[[{"header":{"parameterUnit":"m.s-1","parameterCategory":1,"la1":30.6,"la2":29.2853,"lo1":-89.7004,"lo2":-87.6739,"dy":0.0162,"dx":0.0183,"nx":112,"ny":82,"refTime":"2024-06-10T00:00:00:Z","depth":0,"parameterNumber":2,"parameterNumberName":"U-component_of_WINDS"},"data":[0.0,0.0,0.0,0.0,0.0,0.0,0.0,0.0,0.0,0.0,0.0,0.0,0.0,0.0,0.0,0.0,0.0,0.0,0.0,0.0,0.0,0.0,0.0,0.0,0.0,0.0,0.0,0.0,0.0,0.0,0.0,0.0,0.0,0.0,0.0,0.0,0.0,0.0,0.0,0.0,0.0,0.0,0.0,0.0,0.0,0.0,0.0,0.0,0.0,0.0,0.0,0.0,0.0,0.0,0.0,0.0,0.0,0.0,0.0,0.0,0.0,0.0,0.0,0.0,0.0,0.0,0.0,0.0,0.0,0.0,0.0,0.0,0.0,0.0,0.0,0.0,0.0,0.0,0.0,0.0,0.0,0.0,0.0,0.0,0.0,0.0,0.0,0.0,0.0,0.0,0.0,2.067,2.3002,2.4432,2.4509,2.363,2.2045,1.9568,0.0,0.0,0.0,0.0,0.0,0.0,0.0,0.0,0.0,0.0,0.0,0.0,0.0,0.0,0.0,0.0,0.0,0.0,0.0,0.0,0.0,0.0,0.0,0.0,0.0,0.0,0.0,0.0,0.0,0.0,0.0,0.0,0.0,0.0,0.0,0.0,0.0,0.0,0.0,0.0,0.0,0.0,0.0,0.0,0.0,0.0,0.0,0.0,0.0,0.0,0.0,0.0,0.0,0.0,0.0,0.0,0.0,0.0,0.0,0.0,0.0,0.0,0.0,0.0,0.0,0.0,0.0,0.0,0.0,0.0,0.0,0.0,0.0,0.0,0.0,0.0,0.0,0.0,0.0,0.0,0.0,0.0,0.0,0.0,0.0,0.0,0.0,0.0,0.0,0.0,0.0,0.0,0.0,0.0,0.0,0.0,0.0,0.0,0.0,0.0,0.0,0.0,0.0,0.0,1.9953,2.3174,2.459,2.5328,2.5395,2.3985,2.2298,2.0425,0.0,0.0,0.0,0.0,0.0,0.0,0.0,0.0,0.0,0.0,0.0,0.0,0.0,0.0,0.0,0.0,0.0,0.0,0.0,0.0,0.0,0.0,0.0,0.0,0.0,0.0,0.0,0.0,0.0,0.0,0.0,0.0,0.0,0.0,0.0,0.0,0.0,0.0,0.0,0.0,0.0,0.0,0.0,0.0,0.0,0.0,0.0,0.0,0.0,0.0,0.0,0.0,0.0,0.0,0.0,0.0,0.0,0.0,0.0,0.0,0.0,0.0,0.0,0.0,0.0,0.0,0.0,0.0,0.0,0.0,0.0,0.0,0.0,0.0,0.0,0.0,0.0,0.0,0.0,0.0,0.0,0.0,0.0,0.0,0.0,0.0,0.0,0.0,0.0,0.0,0.0,0.0,0.0,0.0,0.0,0.0,0.0,0.0,0.0,0.0,0.0,0.0,0.0,1.9873,2.1769,2.3888,2.4949,2.5522,2.5544,2.4,2.2328,2.0609,1.887,0.0,0.0,0.0,0.0,0.0,0.0,0.0,0.0,0.0,0.0,0.0,0.0,0.0,0.0,0.0,0.0,0.0,0.0,0.0,0.0,0.0,0.0,0.0,0.0,0.0,0.0,0.0,0.0,0.0,0.0,0.0,0.0,0.0,0.0,0.0,0.0,0.0,0.0,0.0,0.0,0.0,0.0,0.0,0.0,0.0,0.0,0.0,0.0,0.0,0.0,0.0,0.0,0.0,0.0,0.0,0.0,0.0,0.0,0.0,0.0,0.0,0.0,0.0,0.0,0.0,0.0,0.0,0.0,0.0,0.0,0.0,0.0,0.0,0.0,0.0,0.0,0.0,0.0,0.0,0.0,0.0,0.0,0.0,0.0,0.0,0.0,0.0,0.0,0.0,0.0,0.0,0.0,0.0,0.0,0.0,0.0,0.0,0.0,0.0,0.0,0.0,0.0,2.1262,2.316,2.4283,2.5065,2.5503,2.5493,2.395,2.228,2.0588,1.8846,0.0,0.0,0.0,0.0,0.0,0.0,0.0,0.0,0.0,0.0,0.0,0.0,0.0,0.0,0.0,0.0,0.0,0.0,0.0,0.0,0.0,0.0,0.0,0.0,0.0,0.0,0.0,0.0,0.0,0.0,0.0,0.0,0.0,0.0,0.0,0.0,0.0,0.0,0.0,0.0,0.0,0.0,0.0,0.0,0.0,0.0,0.0,0.0,0.0,0.0,0.0,0.0,0.0,0.0,0.0,0.0,0.0,0.0,0.0,0.0,0.0,0.0,0.0,0.0,0.0,0.0,0.0,0.0,0.0,0.0,0.0,0.0,0.0,0.0,0.0,0.0,0.0,0.0,0.0,0.0,0.0,0.0,0.0,0.0,0.0,0.0,0.0,0.0,0.0,0.0,0.0,0.0,0.0,0.0,0.0,0.0,0.0,0.0,0.0,0.0,0.0,0.0,2.169,2.3437,2.5119,2.541,2.549,2.5499,2.3964,2.226,2.0527,1.8775,0.0,0.0,0.0,0.0,0.0,0.0,0.0,0.0,0.0,0.0,0.0,0.0,0.0,0.0,0.0,0.0,0.0,0.0,0.0,0.0,0.0,0.0,0.0,0.0,0.0,0.0,0.0,0.0,0.0,0.0,0.0,0.0,0.0,0.0,0.0,0.0,0.0,0.0,0.0,0.0,0.0,0.0,0.0,0.0,0.0,0.0,0.0,0.0,0.0,0.0,0.0,0.0,0.0,0.0,0.0,0.0,0.0,0.0,0.0,0.0,0.0,0.0,0.0,0.0,0.0,0.0,0.0,0.0,0.0,0.0,0.0,0.0,0.0,0.0,0.0,0.0,0.0,0.0,0.0,0.0,0.0,0.0,0.0,0.0,0.0,0.0,0.0,0.0,0.0,0.0,0.0,0.0,0.0,0.0,0.0,0.0,0.0,0.0,0.0,0.0,0.0,0.0,2.1775,2.3504,0.0,2.5468,2.5505,2.5506,2.396,2.2266,2.0512,0.0,0.0,0.0,0.0,0.0,0.0,0.0,0.0,0.0,0.0,0.0,0.0,0.0,0.0,0.0,0.0,0.0,0.0,0.0,0.0,0.0,0.0,0.0,0.0,0.0,0.0,0.0,0.0,0.0,0.0,0.0,0.0,0.0,0.0,0.0,0.0,0.0,0.0,0.0,0.0,0.0,0.0,0.0,0.0,0.0,0.0,0.0,0.0,0.0,0.0,0.0,0.0,0.0,0.0,0.0,0.0,0.0,0.0,0.0,0.0,0.0,0.0,0.0,0.0,0.0,0.0,0.0,0.0,0.0,0.0,0.0,0.0,0.0,0.0,0.0,0.0,0.0,0.0,0.0,0.0,0.0,0.0,0.0,0.0,0.0,0.0,0.0,0.0,0.0,0.0,0.0,0.0,0.0,0.0,0.0,0.0,0.0,0.0,0.0,0.0,0.0,0.0,2.0063,2.1849,2.3565,0.0,2.5478,2.5499,2.5499,2.3935,2.2211,2.0476,0.0,0.0,0.0,0.0,0.0,0.0,0.0,0.0,0.0,0.0,0.0,0.0,0.0,0.0,0.0,0.0,0.0,0.0,0.0,0.0,0.0,0.0,0.0,0.0,0.0,0.0,0.0,0.0,0.0,0.0,0.0,0.0,0.0,0.0,0.0,0.0,0.0,0.0,0.0,0.0,0.0,0.0,0.0,0.0,0.0,0.0,0.0,0.0,0.0,0.0,0.0,0.0,0.0,0.0,0.0,0.0,0.0,0.0,0.0,0.0,0.0,0.0,0.0,0.0,0.0,0.0,0.0,0.0,0.0,0.0,0.0,0.0,0.0,0.0,0.0,0.0,0.0,0.0,0.0,0.0,0.0,0.0,0.0,0.0,0.0,0.0,0.0,0.0,0.0,0.0,0.0,0.0,0.0,0.0,0.0,0.0,0.0,0.0,0.0,0.0,0.0,0.0,2.0064,2.1931,2.3637,2.5324,2.5499,2.5499,2.5492,2.3895,2.2158,0.0,0.0,0.0,0.0,0.0,0.0,0.0,0.0,0.0,0.0,0.0,0.0,0.0,0.0,0.0,0.0,0.0,0.0,0.0,0.0,0.0,0.0,0.0,0.0,0.0,0.0,0.0,0.0,0.0,0.0,0.0,0.0,0.0,0.0,0.0,0.0,0.0,0.0,0.0,0.0,0.0,0.0,0.0,0.0,0.0,0.0,0.0,0.0,0.0,0.0,0.0,0.0,0.0,0.0,0.0,0.0,0.0,0.0,0.0,0.0,0.0,0.0,0.0,0.0,0.0,0.0,0.0,0.0,0.0,0.0,0.0,0.0,0.0,0.0,0.0,0.0,0.0,0.0,0.0,0.0,0.0,0.0,0.0,0.0,0.0,0.0,0.0,0.0,0.0,0.0,0.0,0.0,0.0,0.0,0.0,0.0,0.0,0.0,0.0,0.0,0.0,0.0,0.0,2.0208,2.1997,2.3709,2.539,2.5574,2.5544,2.549,2.3894,2.24,2.122,0.0,0.0,0.0,0.0,0.0,0.0,0.0,0.0,0.0,0.0,0.0,0.0,0.0,0.0,0.0,0.0,0.0,0.0,0.0,0.0,0.0,0.0,0.0,0.0,0.0,0.0,0.0,0.0,0.0,0.0,0.0,0.0,0.0,0.0,0.0,0.0,0.0,0.0,0.0,0.0,0.0,0.0,0.0,0.0,0.0,0.0,0.0,0.0,0.0,0.0,0.0,0.0,0.0,0.0,0.0,0.0,0.0,0.0,0.0,0.0,0.0,0.0,0.0,0.0,0.0,0.0,0.0,0.0,0.0,0.0,0.0,0.0,0.0,0.0,0.0,0.0,0.0,0.0,0.0,0.0,0.0,0.0,0.0,0.0,0.0,0.0,0.0,0.0,0.0,0.0,0.0,0.0,0.0,0.0,0.0,0.0,0.0,0.0,0.0,0.0,0.0,0.0,2.0282,2.2013,2.3759,2.5468,2.5615,2.5576,2.5505,2.4222,2.2875,2.1581,0.0,0.0,0.0,0.0,0.0,0.0,0.0,0.0,0.0,0.0,0.0,0.0,0.0,0.0,0.0,0.0,0.0,0.0,0.0,0.0,0.0,0.0,0.0,0.0,0.0,0.0,0.0,0.0,0.0,0.0,0.0,0.0,0.0,0.0,0.0,0.0,0.0,0.0,0.0,0.0,0.0,0.0,0.0,0.0,0.0,0.0,0.0,0.0,0.0,0.0,0.0,0.0,0.0,0.0,0.0,0.0,0.0,0.0,0.0,0.0,0.0,0.0,0.0,0.0,0.0,0.0,0.0,0.0,0.0,0.0,0.0,0.0,0.0,0.0,0.0,0.0,0.0,0.0,0.0,0.0,0.0,0.0,0.0,0.0,0.0,0.0,0.0,0.0,0.0,0.0,0.0,0.0,0.0,0.0,0.0,0.0,0.0,0.0,0.0,0.0,0.0,0.0,2.0402,2.2085,2.3766,2.5504,2.5639,2.5576,2.5518,2.4701,2.3454,2.1732,0.0,0.0,0.0,0.0,0.0,0.0,0.0,0.0,0.0,0.0,0.0,0.0,0.0,0.0,0.0,0.0,0.0,0.0,0.0,0.0,0.0,0.0,0.0,0.0,0.0,0.0,0.0,0.0,0.0,0.0,0.0,0.0,0.0,0.0,0.0,0.0,0.0,0.0,0.0,0.0,0.0,0.0,0.0,0.0,0.0,0.0,0.0,0.0,0.0,0.0,0.0,0.0,0.0,0.0,0.0,0.0,0.0,0.0,0.0,0.0,1.6767,0.0,0.0,0.0,0.0,0.0,0.0,0.0,0.0,0.0,0.0,0.0,0.0,0.0,0.0,0.0,0.0,0.0,0.0,0.0,0.0,0.0,0.0,0.0,0.0,0.0,0.0,0.0,0.0,0.0,0.0,0.0,0.0,0.0,0.0,0.0,0.0,0.0,0.0,0.0,0.0,0.0,2.129,2.2489,2.3764,2.5515,2.5643,2.556,2.5506,2.4694,2.3724,2.259,0.0,0.0,0.0,0.0,0.0,0.0,0.0,0.0,0.0,0.0,0.0,0.0,0.0,0.0,0.0,0.0,0.0,0.0,0.0,0.0,0.0,0.0,0.0,0.0,0.0,0.0,0.0,0.0,0.0,0.0,0.0,0.0,0.0,0.0,0.0,0.0,0.0,0.0,0.0,0.0,0.0,0.0,0.0,0.0,0.0,0.0,0.0,0.0,0.0,0.0,0.0,0.0,0.0,0.0,0.0,0.0,0.0,0.0,0.0,0.0,0.0,1.8764,0.0,0.0,0.0,0.0,0.0,0.0,0.0,0.0,0.0,0.0,0.0,0.0,0.0,0.0,0.0,0.0,0.0,0.0,0.0,0.0,0.0,0.0,0.0,0.0,0.0,0.0,0.0,0.0,0.0,0.0,0.0,0.0,0.0,0.0,0.0,0.0,0.0,0.0,0.0,0.0,2.1563,2.294,2.4238,2.5558,2.5648,2.559,2.5544,2.5103,2.4424,2.3491,2.182,0.0,0.0,0.0,0.0,0.0,0.0,0.0,0.0,0.0,0.0,0.0,0.0,0.0,0.0,0.0,0.0,0.0,0.0,0.0,0.0,0.0,0.0,0.0,0.0,0.0,0.0,0.0,0.0,0.0,0.0,0.0,0.0,0.0,0.0,0.0,0.0,0.0,0.0,0.0,0.0,0.0,0.0,0.0,0.0,0.0,0.0,0.0,0.0,0.0,0.0,0.0,0.0,0.0,0.0,2.288,2.4136,2.428,2.4717,2.5239,2.3446,2.2826,2.2832,0.0,0.0,0.0,0.0,0.0,0.0,0.0,0.0,0.0,0.0,0.0,0.0,0.0,0.0,0.0,0.0,0.0,0.0,0.0,0.0,0.0,0.0,0.0,0.0,0.0,2.1105,2.0455,0.0,0.0,0.0,0.0,0.0,0.0,0.0,0.0,0.0,0.0,0.0,0.0,2.1813,2.3427,2.4726,2.5616,2.5648,2.5595,2.5607,2.5538,2.5101,2.4177,2.2674,2.1046,0.0,0.0,0.0,0.0,0.0,0.0,0.0,0.0,0.0,0.0,0.0,0.0,0.0,0.0,0.0,0.0,0.0,0.0,0.0,0.0,0.0,0.0,0.0,0.0,0.0,0.0,0.0,0.0,0.0,0.0,0.0,0.0,1.4899,1.4427,0.0,0.0,0.0,0.0,0.0,0.0,0.0,0.0,0.0,0.0,0.0,0.0,0.0,0.0,2.2337,2.3746,2.4447,2.446,2.5103,2.5446,2.5558,2.6262,2.6586,2.6676,2.7103,0.0,2.3599,2.2591,0.0,0.0,0.0,0.0,0.0,0.0,0.0,0.0,0.0,0.0,0.0,0.0,0.0,0.0,0.0,0.0,0.0,0.0,0.0,0.0,0.0,0.0,2.3653,2.4512,2.4668,2.4332,0.0,2.0751,1.8395,1.7465,0.0,0.0,0.0,0.0,0.0,0.0,0.0,0.0,2.2713,2.3793,2.4739,2.5616,2.5648,2.56,2.5599,2.5538,2.5117,2.4244,2.3274,2.1965,2.0289,1.7705,0.0,0.0,0.0,0.0,0.0,0.0,0.0,0.0,0.0,0.0,0.0,0.0,0.0,0.0,0.0,0.0,0.0,0.0,0.0,0.0,0.0,0.0,0.0,0.0,0.0,0.0,0.0,0.0,0.0,1.4584,1.6294,1.6072,1.6736,1.6601,0.0,0.0,0.0,0.0,0.0,0.0,0.0,0.0,0.0,2.2658,2.3327,2.3978,2.465,2.5316,2.6015,2.6734,2.6609,2.6994,2.7817,2.77,2.7842,2.8177,2.8162,2.7424,2.6133,2.5127,2.3077,2.0534,0.0,0.0,0.0,0.0,0.0,2.0663,2.2759,0.0,0.0,0.0,0.0,0.0,0.0,0.0,0.0,0.0,0.0,0.0,0.0,0.0,0.0,2.7902,2.8181,2.793,2.7094,2.5398,2.3242,0.0,1.9715,1.9448,1.9361,0.0,0.0,0.0,0.0,0.0,2.3676,2.4586,2.5281,2.5668,2.5643,2.56,2.5604,2.557,2.5389,2.4962,2.4161,2.2914,2.1196,1.9563,1.7621,0.0,0.0,0.0,0.0,0.0,0.0,0.0,0.0,0.0,0.0,0.0,0.0,0.0,0.0,0.0,0.0,0.0,0.0,0.0,0.0,0.0,0.0,0.0,0.0,0.0,0.0,0.0,0.0,1.5846,1.7633,1.8025,1.8756,1.8713,0.0,0.0,0.0,0.0,0.0,0.0,2.2062,2.2558,2.34,2.4704,2.5521,2.6134,2.662,2.6939,2.7665,2.8798,2.7923,2.8172,2.9358,2.8667,2.8645,2.913,2.8816,2.8713,2.8627,2.7119,2.5159,2.312,2.2738,2.1752,2.0673,2.217,2.2901,2.345,2.5505,2.6488,2.6784,2.6729,0.0,2.6173,2.4081,0.0,0.0,0.0,0.0,2.5994,2.827,0.0,2.9511,3.0779,3.106,3.0833,2.9963,2.935,2.7776,0.0,2.2646,2.2183,2.1591,0.0,0.0,0.0,0.0,2.3667,2.4326,2.5336,2.6015,2.6011,2.615,2.6174,2.5945,2.5924,2.5828,2.5544,2.4742,2.3636,2.2108,2.1016,1.911,1.6348,0.0,0.0,0.0,0.0,0.0,0.0,0.0,0.0,0.0,0.0,0.0,0.0,0.0,0.0,0.0,0.0,0.0,0.0,0.0,0.0,0.0,0.0,0.0,0.0,0.0,0.0,0.0,0.0,0.0,2.0588,2.1321,0.0,0.0,0.0,0.0,2.1845,2.2055,2.3135,2.5425,2.552,2.5707,2.6184,2.7652,2.8278,2.8002,2.9379,3.0171,3.0386,2.9455,2.9107,2.9301,2.9113,2.9041,2.907,2.991,3.0374,3.0306,2.8144,2.6237,2.4716,2.4944,2.4506,2.3891,2.4871,2.5779,2.669,2.7639,2.8533,2.9241,2.9362,2.856,2.7363,2.6546,2.5791,0.0,0.0,2.827,2.9331,3.1067,3.2127,3.2764,3.286,3.2856,3.2625,3.175,3.16,3.0598,0.0,2.5215,2.418,2.4191,0.0,2.2984,2.304,2.3774,2.4355,2.4394,2.5827,2.6836,2.6844,2.758,2.7727,2.6909,2.6841,2.6481,2.5644,2.4788,2.3913,2.3056,2.14,2.0016,1.9018,1.6569,0.0,0.0,0.0,0.0,0.0,0.0,0.0,0.0,0.0,0.0,0.0,0.0,0.0,0.0,0.0,0.0,0.0,0.0,0.0,0.0,0.0,0.0,0.0,0.0,0.0,0.0,0.0,0.0,2.2235,2.3103,0.0,0.0,2.3728,2.4096,2.4613,2.5105,2.5957,2.727,2.7651,2.8062,2.8548,2.9386,2.973,2.952,2.9978,3.0539,3.1142,3.0313,3.0237,3.0747,3.0183,3.0206,3.0654,3.0666,3.0944,3.1373,3.0303,2.8913,2.7419,2.7111,2.6497,2.5929,2.686,2.74,2.7847,2.8802,2.9249,2.9522,3.0246,2.9531,2.8559,2.9506,2.924,2.8856,3.0012,3.0956,3.1892,3.3017,3.355,3.3916,3.4488,3.4648,3.4583,3.4218,3.3774,3.307,3.1873,2.9892,2.8254,2.777,2.7429,2.7035,2.6466,2.6651,2.6836,2.6787,2.7347,2.7751,2.7731,2.8004,2.8077,2.7766,2.7211,2.6778,2.6466,2.563,2.4754,2.3913,2.278,2.1496,2.0068,1.8574,1.7009,0.0,0.0,0.0,0.0,0.0,0.0,0.0,0.0,0.0,0.0,0.0,0.0,0.0,0.0,0.0,0.0,0.0,0.0,0.0,0.0,0.0,0.0,0.0,0.0,0.0,0.0,2.215,2.3361,2.4522,2.5314,2.5578,2.6151,2.6604,2.6874,2.756,2.8315,2.9063,2.9657,3.0092,3.0341,3.0857,3.1034,3.0909,3.1084,3.1475,3.2179,3.1356,3.1231,3.1841,3.1255,3.1309,3.181,3.1719,3.1996,3.2508,3.203,3.1249,3.0327,2.9521,2.8918,2.8573,2.9231,2.9494,2.9645,3.0339,3.049,3.0506,3.1296,3.0877,3.0328,3.1626,3.1661,3.1426,3.2312,3.2967,3.3602,3.4417,3.4629,3.4783,3.5353,3.5528,3.5547,3.5515,3.5116,3.4784,3.4836,3.2815,3.0944,3.0422,3.0097,2.9697,2.909,2.8773,2.8592,2.8541,2.8571,2.8612,2.8642,2.8905,2.8968,2.8656,2.8111,2.7662,2.739,2.6548,2.5671,2.4814,2.3973,2.2863,2.1413,2.0255,1.84,1.5839,0.0,0.0,0.0,0.0,0.0,0.0,0.0,0.0,0.0,0.0,0.0,0.0,0.0,0.0,0.0,0.0,0.0,0.0,0.0,0.0,0.0,0.0,0.0,1.8872,2.0856,2.28,2.4042,2.5627,2.6782,2.7225,2.7344,2.7751,2.8615,2.9322,3.0095,3.0884,3.1565,3.1797,3.1452,3.2017,3.2292,3.213,3.2691,3.3178,3.3491,3.2495,3.2144,3.232,3.2282,3.2254,3.2291,3.3063,3.3578,3.376,3.3192,3.3115,3.3237,3.208,3.1712,3.1827,3.1969,3.2088,3.2223,3.2279,3.2298,3.2335,3.2566,3.261,3.2653,3.2894,3.2961,3.3122,3.3987,3.4237,3.443,3.5276,3.5507,3.5507,3.5507,3.5495,3.5496,3.5496,3.5604,3.5699,3.5708,3.3701,3.2027,3.2065,3.1372,3.0795,3.0692,3.0013,0.0,2.953,2.9519,2.9543,2.9615,3.038,3.0548,2.9691,2.9604,2.926,2.846,2.7582,2.6702,2.5846,2.4957,2.4057,2.3169,2.1519,1.9412,1.6857,0.0,0.0,0.0,0.0,0.0,0.0,0.0,0.0,0.0,0.0,0.0,0.0,0.0,0.0,0.0,0.0,0.0,0.0,0.0,0.0,0.0,0.0,2.1292,2.0532,2.2188,2.4039,2.5633,2.6504,2.7457,2.8727,2.9005,2.9379,3.0076,3.0396,3.0863,3.152,3.2232,3.2514,3.2265,3.2867,3.3089,3.2895,3.2978,3.3086,3.3208,3.3015,3.2977,3.3024,3.3174,3.3221,3.3249,3.3616,3.3823,3.3954,3.4027,3.4158,3.4175,3.2747,3.2203,3.226,3.2403,3.249,3.2545,3.2353,3.2424,3.2673,3.3263,3.3134,3.2991,3.4309,3.4307,3.4026,3.4911,3.5141,3.5199,3.5449,3.5547,3.5566,3.5522,3.554,3.5577,3.5572,3.5596,3.5643,3.5688,3.5137,3.4475,3.3918,3.3653,3.3289,3.2585,3.2296,0.0,3.215,3.2205,3.2227,3.2244,3.2504,3.258,3.2354,3.1753,3.1289,3.1074,2.965,2.8711,2.8476,2.7064,2.5576,2.4062,2.2965,2.1728,0.0,0.0,0.0,0.0,0.0,0.0,0.0,0.0,0.0,0.0,0.0,0.0,0.0,0.0,0.0,0.0,0.0,0.0,0.0,0.0,0.0,0.0,2.1423,2.2964,2.2549,2.3773,2.5005,2.5739,2.6733,2.7897,2.928,2.9751,3.0334,3.1235,3.1565,3.1955,3.2403,3.3092,3.3419,3.3271,3.3515,3.3559,3.3455,3.3298,3.3268,3.3397,3.3494,3.3578,3.3643,3.3788,3.3868,0.0,3.4023,3.4099,3.4197,3.4473,3.4645,0.0,0.0,0.0,0.0,0.0,3.3723,3.3742,3.3608,3.3658,3.385,3.4308,3.4217,3.4079,3.5133,3.5116,3.486,3.5393,3.5528,3.5528,3.5528,3.5566,3.5591,3.556,3.5565,3.5601,3.5596,3.5631,3.5706,3.5728,0.0,0.0,3.5127,3.5088,3.4908,3.4323,3.4255,3.4129,3.3779,3.3806,3.3699,3.3334,3.3351,3.3395,3.3399,3.2949,0.0,0.0,0.0,3.0265,2.9569,2.8254,0.0,0.0,0.0,0.0,0.0,0.0,0.0,0.0,2.0816,2.1123,0.0,0.0,0.0,0.0,0.0,0.0,0.0,0.0,0.0,0.0,0.0,0.0,0.0,0.0,0.0,0.0,2.3425,2.4635,2.4547,2.5412,2.5769,2.4987,2.6486,2.7989,2.9,2.9687,3.0609,3.1946,3.2493,3.2957,3.3374,0.0,0.0,0.0,0.0,3.3815,3.3815,3.3633,3.3587,3.3815,3.3868,3.3972,3.4099,3.4197,3.4269,3.4316,3.434,3.4386,3.4454,3.4647,3.4788,3.4849,3.4908,3.5001,3.511,3.5176,3.5209,0.0,0.0,0.0,0.0,3.5398,3.5407,3.5422,3.5502,3.5515,3.5515,3.5591,3.5591,3.5591,3.5591,3.5604,3.5604,3.5604,3.5608,3.5612,3.5612,3.5698,3.5794,3.5803,3.5854,3.5864,3.5807,3.5801,3.5785,3.5698,3.5766,3.5592,3.4872,3.4851,3.4588,3.3818,0.0,0.0,3.3673,3.3671,3.3672,3.3683,3.2753,3.1517,2.9941,2.9023,2.8157,2.7301,2.7284,2.6773,2.5766,2.5533,2.562,2.5976,2.4457,2.3659,0.0,0.0,0.0,0.0,0.0,0.0,0.0,0.0,0.0,0.0,0.0,0.0,0.0,0.0,0.0,2.185,2.439,2.61,2.5385,2.6257,2.644,2.5049,2.6078,2.7166,2.7867,2.8772,2.9954,3.1515,3.1816,3.2576,3.4023,3.4242,0.0,3.4363,3.4049,3.3921,3.4049,3.3726,3.3671,3.3868,0.0,0.0,3.4099,3.434,3.445,3.4473,3.4567,3.4672,3.4733,3.4889,3.5001,3.5126,3.5147,3.5162,3.5176,3.5193,3.5209,3.5209,3.5277,3.5339,3.5398,3.5463,3.5483,3.5489,3.5558,3.5584,0.0,3.5591,3.5591,3.5591,3.5591,3.5596,3.5601,3.5601,3.5643,3.5684,3.5687,3.5708,3.5737,3.5794,3.5807,3.5811,3.5799,3.5791,3.5773,3.5708,3.6299,3.6716,3.6606,3.6612,3.656,3.6456,3.5827,3.5428,3.5423,3.5413,3.5428,3.5413,3.3897,3.2541,3.1571,3.0708,2.9847,2.9026,2.9026,2.8476,2.7354,2.7783,2.773,2.7235,2.6274,2.6137,0.0,0.0,0.0,0.0,0.0,0.0,0.0,0.0,0.0,0.0,0.0,1.9425,0.0,0.0,2.3439,2.4051,2.555,2.6511,2.6124,2.6597,2.6611,2.5536,2.6763,2.7862,2.8311,2.9368,3.0509,3.157,3.1626,3.2043,3.3063,3.3538,3.3807,3.3852,3.3993,3.4074,3.4148,3.3842,3.378,3.3895,3.3972,3.4099,3.4245,3.4409,3.4542,3.4649,3.4713,3.4812,3.4927,3.5037,3.516,3.5261,3.5277,3.5261,3.5209,3.5209,3.5226,3.5258,3.5335,3.5388,3.5463,3.5577,3.5593,3.5615,3.5639,3.5658,3.5648,3.5688,3.5707,3.5707,3.5707,3.5698,3.5689,3.5708,3.5718,3.5756,3.5743,3.5791,3.581,3.5846,3.5846,3.5852,3.5838,3.5852,3.5833,3.5752,3.6481,3.7081,3.7133,3.7534,3.7644,3.7237,3.6813,3.6366,3.5942,3.5864,3.5819,3.5742,3.4486,3.3398,3.2622,3.1738,3.0891,3.0167,3.0112,2.9792,2.9159,2.915,2.8817,2.8191,2.7405,2.7277,0.0,0.0,0.0,0.0,0.0,0.0,0.0,0.0,1.8815,1.8842,2.0559,2.2145,2.2422,2.3751,2.5138,2.6231,2.6592,2.6737,2.6795,2.6936,2.6872,2.6379,2.759,2.8543,2.8801,2.9899,3.0844,3.1477,3.1385,3.1538,3.2154,3.2919,3.3414,3.3585,3.4045,3.4245,3.4245,3.3998,3.3895,3.3947,3.4023,3.4197,3.4409,3.4542,3.4691,3.4832,3.487,3.4963,3.5091,3.5176,3.5277,3.5343,3.5383,3.5335,3.5254,3.5254,3.5289,3.5354,3.5424,3.5489,3.5558,3.5678,3.5718,3.5718,3.5715,3.5724,3.5732,3.5788,3.5807,3.5795,3.5811,3.5791,3.5799,3.5775,3.5781,3.5788,3.5805,3.5844,3.5878,3.5883,3.5888,3.5907,3.589,3.5899,3.587,3.584,3.6557,3.7129,3.7183,3.7805,3.7975,3.7287,3.7031,3.6638,3.5892,3.5768,3.5678,3.5557,3.4762,3.3936,3.3178,3.2266,3.1456,3.0778,3.0722,3.0588,3.0414,2.9836,2.9251,2.8657,2.8042,2.7805,1.9335,1.8923,1.8834,1.8112,1.8525,1.9253,0.0,0.0,2.2274,2.2761,2.4252,2.5343,2.4963,2.5799,2.6496,2.6406,2.707,2.7549,2.7495,2.7701,2.7865,2.7832,2.7669,2.7592,2.7757,2.8584,2.9525,3.0475,3.0535,3.1321,3.3152,3.3327,3.3766,3.4602,3.4508,3.4473,3.4473,3.4197,3.4074,3.4074,3.4269,3.4386,3.4495,3.4793,3.4963,3.4999,3.5171,3.5285,3.535,3.5308,3.5373,3.5479,3.5364,3.5374,3.5476,3.5476,3.5457,3.5502,3.5562,3.5629,3.5699,3.5765,3.5795,3.5787,3.5794,3.5794,3.5794,3.5794,3.5794,3.5795,3.5807,3.5797,3.5791,3.5725,3.571,3.5732,3.5795,3.5817,3.5819,3.58,3.5859,3.5877,3.5817,3.5859,3.5899,3.5891,3.6579,3.7125,3.7196,3.7297,3.7311,3.7214,3.6458,3.5846,3.556,3.555,3.5483,3.534,3.4628,3.3833,3.2968,3.2153,3.137,3.0651,3.0614,3.0433,3.0065,2.9645,2.8975,2.8182,2.8032,2.7961,2.1641,2.1618,0.0,0.0,2.2622,2.3268,2.3451,2.4321,2.5087,2.5135,2.5997,2.6648,2.6348,2.6969,2.7462,0.0,2.7566,2.776,2.7783,2.7888,2.7798,2.7431,2.7289,2.7482,2.8173,2.9028,2.9588,2.9695,2.9728,3.04,3.1879,3.2447,3.3204,3.4187,3.4546,3.471,3.4666,3.445,3.434,3.4386,3.445,3.4586,3.4812,3.4944,3.5049,3.5168,3.535,3.5427,3.546,3.5474,3.5515,3.5554,3.5502,3.5521,3.555,3.5509,3.5509,3.5577,3.5629,3.5699,3.5765,3.5845,3.5858,3.5856,3.5853,3.5851,3.5862,3.5864,3.5867,3.5868,3.5855,3.5856,3.5858,3.582,3.5819,3.5819,3.5855,3.5867,3.5851,3.5806,3.5816,3.5795,3.5655,3.5708,3.5747,3.5635,3.6055,3.6599,3.7136,3.7168,3.7136,3.7141,3.6266,3.5611,3.5457,3.5369,3.53,3.5239,3.4814,3.4254,3.3569,3.3111,3.2333,3.1149,3.1163,3.0778,2.9935,2.9383,2.8897,2.8472,2.7791,2.7603,2.3126,0.0,0.0,2.461,2.5562,2.6378,2.6411,2.6804,2.7112,2.6991,2.7175,2.7301,2.7074,2.7424,2.7733,2.7733,2.7837,2.7922,2.7946,2.778,2.7455,2.6952,2.6817,2.7069,2.7961,2.8883,2.9384,2.9323,2.9373,2.9981,3.1299,3.2031,3.2971,3.4177,3.4715,3.4945,3.4868,3.471,3.4647,3.4668,3.4649,3.4793,3.5034,3.5086,3.5203,3.536,3.5455,3.5501,3.5534,3.5579,3.5596,3.5608,3.5612,3.5646,3.5648,3.5612,3.5604,3.5669,3.5736,3.5788,3.5833,3.5885,3.5903,3.5908,3.5897,3.5898,3.5893,3.589,3.5909,3.5908,3.5901,3.5899,3.5874,3.5877,3.5853,3.5845,3.5836,3.6025,3.608,3.5715,3.5805,3.5813,3.5326,3.5321,3.5328,3.5174,3.534,3.578,3.6554,3.6601,3.6569,3.6552,3.5883,3.5366,3.5209,3.5102,3.5035,3.5,3.4832,3.4358,3.3519,3.3346,3.2549,3.1009,3.1021,3.0573,2.962,2.928,2.8941,2.8609,2.794,2.7583,0.0,0.0,2.564,2.4968,2.6038,2.7439,2.807,2.8128,2.8172,2.8534,2.8015,2.7423,2.7151,2.7118,2.7102,2.7041,2.7745,2.8219,2.8025,2.745,2.7005,2.6908,2.6267,2.5978,0.0,2.7339,2.841,2.9513,2.9664,3.0503,3.2447,3.2641,3.3486,3.52,3.5207,3.5143,3.5001,3.4983,3.4927,3.4812,3.5,3.5088,3.5105,3.5304,3.5422,3.5483,3.5502,3.5547,3.5591,3.5608,3.5604,3.5607,3.5678,3.5728,3.5785,3.5785,3.5782,3.5799,3.5872,3.5909,3.5893,3.5909,3.5898,3.5894,3.5909,3.5903,3.5896,3.5896,3.5896,3.5907,3.5904,3.5844,3.5795,3.5799,3.5756,3.5718,3.5718,3.6377,3.6626,3.5443,3.5864,3.601,3.4813,3.4586,3.4529,3.4529,3.4486,3.4632,3.5195,3.527,3.524,3.5155,3.5081,3.4944,3.4734,3.4653,3.4591,3.4539,3.4569,3.3859,3.224,3.2204,3.143,2.968,2.9657,2.942,2.8927,2.9375,2.9124,2.8228,2.866,2.8238,2.5265,0.0,2.6987,2.7357,2.7884,2.848,2.9146,2.9265,2.9045,2.8431,2.8091,2.7656,2.6899,2.6695,2.6835,2.7432,2.7585,2.7615,2.7615,2.7753,2.7289,2.5696,2.6296,0.0,0.0,0.0,0.0,2.8595,2.8782,2.9918,3.2395,3.2638,3.3513,3.5311,3.5345,3.5296,3.5207,3.5155,3.5119,3.5138,3.5882,3.5921,3.5374,3.608,3.61,3.556,3.557,3.5593,3.5604,3.5648,3.5688,3.5737,3.5763,3.5818,3.5866,3.5864,3.5875,3.5868,3.5896,3.5906,3.5894,3.5898,3.5908,3.5907,3.5908,3.586,3.582,3.5772,3.5764,3.5741,3.5611,3.5551,3.553,3.5488,3.5519,3.5709,3.6265,3.6709,3.6988,3.6944,3.6569,3.6041,3.5305,3.4589,3.4045,3.3868,3.4199,3.4508,3.4599,3.4639,3.466,3.4642,3.4504,3.437,3.4323,3.4157,3.4099,3.4147,3.3975,3.3482,3.2664,3.2405,3.1533,2.9953,3.0454,3.0184,2.9096,2.9551,2.9554,2.905,2.8426,2.7843,2.6186,2.7063,2.8113,2.8689,2.9079,2.9332,2.944,2.9431,2.9011,2.755,2.7046,2.6562,2.5502,2.5516,2.5937,2.6886,2.7321,2.7627,2.787,2.8057,2.7574,2.5948,2.6512,0.0,0.0,0.0,0.0,2.8689,2.894,2.9934,3.2046,3.2593,3.35,3.4962,3.531,3.5432,3.5383,3.535,3.5383,3.5457,3.6105,3.6103,3.5601,3.6195,3.6168,3.5635,3.5639,3.5649,3.5669,3.5715,3.5784,3.5844,3.584,3.586,3.5903,3.5901,3.5898,3.5893,3.5897,3.5897,3.5895,3.5896,3.5884,3.5869,3.5859,3.5811,3.5765,3.5708,3.5637,3.5574,3.5438,3.5366,3.5325,3.5254,3.5283,3.5465,3.5944,3.668,3.7161,3.6994,3.6557,3.5988,3.5184,3.4019,3.3136,3.2889,3.3223,3.3623,3.3826,3.3887,3.3868,3.3807,3.3702,3.364,3.3632,3.3405,3.3338,3.357,3.3306,3.2925,3.2493,3.2229,3.1492,3.0228,3.0685,3.0412,2.9263,2.9817,2.9778,2.9156,2.8515,2.7874,2.6473,2.7772,2.904,2.8981,2.9601,2.9983,2.9107,2.8808,2.8123,2.6085,2.5158,2.4362,0.0,0.0,2.4572,2.5426,2.6916,2.8125,2.8644,2.8264,2.7849,0.0,0.0,0.0,0.0,0.0,0.0,2.9731,0.0,3.0458,3.1557,3.2568,3.3479,3.4279,3.5162,3.5577,3.5519,3.5581,3.5646,3.5718,3.5756,3.5747,3.5708,3.5747,3.5747,3.5706,3.5715,3.5754,3.5812,3.5801,3.5846,3.5899,3.59,3.5896,3.5898,3.5896,3.5907,3.5891,3.5896,3.5884,3.5892,3.5899,3.5853,3.5795,3.5799,3.5747,3.5707,3.5678,3.5531,3.5393,3.5391,3.5307,3.5235,3.5098,3.5047,3.5016,3.4983,3.6386,3.7205,3.5848,3.5925,3.5754,3.4289,3.2878,3.1896,3.1677,3.1679,3.2004,3.2822,3.2924,3.2845,3.2644,3.2666,3.2706,3.2713,3.2398,3.2347,3.2681,3.2517,3.2196,3.1653,3.1617,3.1212,3.0356,3.03,2.9972,2.9385,3.0052,2.9777,2.8646,2.8981,2.8323,2.8198,2.918,2.9973,2.996,3.0113,3.0056,2.9181,2.8945,2.8191,2.5632,2.512,2.4626,0.0,0.0,0.0,2.5095,2.6415,0.0,2.7587,2.8346,0.0,2.7187,0.0,2.8406,2.7786,2.8461,0.0,0.0,2.9106,2.936,3.156,3.2628,3.3572,3.4408,3.5297,3.5752,3.5715,3.5745,3.5773,3.5779,3.6437,3.6409,3.5801,3.644,3.639,3.5771,3.5833,3.586,3.5866,3.5871,3.5884,3.5891,3.5898,3.5899,3.5895,3.5899,3.5899,3.5885,3.5846,3.582,3.5833,3.5838,3.5807,3.5793,3.5728,3.5708,3.5657,3.547,3.5321,3.5212,3.5069,3.4945,3.4831,3.4672,3.5063,3.5581,3.6054,3.7088,3.7873,3.7839,3.6364,3.4424,3.2254,3.15,3.1094,3.0891,3.0851,3.1094,3.1774,3.1793,3.1704,3.1543,3.1305,3.121,3.1281,3.1151,3.1074,3.1151,3.1316,3.1119,3.0594,3.0435,3.0073,2.9437,2.9672,2.9576,2.917,2.9935,2.9786,2.8821,2.8639,2.7868,2.9002,2.9733,3.0343,3.0305,3.0037,2.955,2.8668,2.79,2.6718,2.4405,2.3811,0.0,0.0,0.0,0.0,0.0,0.0,0.0,2.7622,2.8461,2.8782,0.0,2.9041,0.0,2.8692,2.9213,2.9685,0.0,2.9321,2.965,3.118,3.2195,3.3106,3.3957,3.4828,3.5464,3.5833,3.584,3.584,3.584,3.6351,3.6317,3.5869,3.6348,3.6302,3.5834,0.0,3.5877,3.5897,3.5878,3.5867,3.5903,3.5896,3.5875,3.585,3.5859,3.5818,3.5752,3.5735,3.5679,3.5621,3.5689,3.5737,3.5737,3.5596,3.557,3.5521,3.5311,3.51,3.4906,3.4754,3.4526,3.4279,3.4154,3.4673,3.5262,3.5496,3.6546,3.7374,3.7127,3.5366,3.3282,3.1399,3.0642,3.0302,3.0166,3.0097,3.0149,3.0419,3.0606,3.0573,3.0311,3.0281,3.0315,3.0342,3.0372,3.0461,3.0712,3.0642,3.0542,3.0392,3.0166,2.9911,2.9626,2.9872,2.979,2.9417,2.9842,2.9556,2.8559,2.8319,2.755,2.935,2.991,3.0409,3.0348,2.9733,2.886,2.7901,2.6448,2.4799,2.292,0.0,2.1418,2.0464,2.0961,2.1991,2.3383,0.0,2.5874,2.7972,2.8555,2.9017,2.9791,2.9971,2.9774,2.9078,2.9198,2.9322,2.9388,3.0095,3.0574,3.0706,3.1591,3.2504,3.3437,3.4316,3.5139,3.5899,3.5904,3.5899,3.5877,3.5871,3.5867,3.5857,3.5857,3.5845,3.5848,0.0,0.0,3.5869,3.5792,3.5794,3.5857,3.5852,3.5807,3.5718,3.562,3.5573,3.5566,3.545,3.5399,3.5418,3.5543,3.5626,3.5615,3.5419,3.535,3.53,3.5133,3.4794,3.4505,3.4491,3.4043,3.3588,3.3613,3.4014,3.4339,3.4127,3.5289,3.6061,3.4834,3.3668,3.2442,3.1066,3.0119,2.9582,2.9582,2.9507,2.9418,2.9249,2.9598,2.9637,2.9199,2.95,2.9715,2.9684,2.9807,3.0109,3.0592,3.016,3.0054,3.035,3.0129,3.0021,3.0081,3.0166,3.0011,2.9617,2.9572,2.9012,2.7978,2.7913,2.7159,3.0156,3.0458,3.0557,3.0546,2.99,2.8848,2.7321,2.6149,0.0,0.0,2.1705,2.1401,2.0472,2.1043,2.1766,2.2045,0.0,0.0,0.0,0.0,2.9264,0.0,0.0,0.0,0.0,0.0,0.0,0.0,0.0,0.0,3.0774,3.1562,3.2733,3.4316,3.5215,3.5777,3.5985,3.5979,3.5897,3.5749,3.5792,3.5723,3.5572,3.558,3.5562,3.5566,0.0,0.0,3.5646,3.5641,3.5611,3.556,3.557,3.5523,3.538,3.466,3.4841,3.5335,3.4597,3.4828,3.5418,3.5495,3.5483,3.5418,3.5224,3.5059,3.4904,3.4576,3.4223,3.4009,3.4256,3.3436,3.2677,3.3085,3.3001,3.2931,3.3355,3.4236,3.446,3.2817,3.2572,3.2015,3.0242,2.9685,2.9495,2.9495,2.9314,2.9331,2.9848,2.9589,2.9218,2.9,2.8944,2.8872,2.8872,2.8935,2.8994,2.9089,2.8959,2.8941,2.9127,2.8693,2.8654,2.895,2.8811,2.8732,2.8622,2.8463,2.8012,2.7276,2.6916,2.6322,3.0535,3.0651,3.0528,3.0056,2.9292,2.8233,2.6514,0.0,0.0,0.0,2.1299,2.0894,2.043,0.0,0.0,0.0,0.0,0.0,0.0,0.0,0.0,0.0,0.0,0.0,0.0,0.0,0.0,0.0,0.0,0.0,3.0696,3.1388,3.2369,3.3662,3.4539,3.5207,3.568,3.5713,3.5636,3.5444,3.5502,3.5446,3.5282,3.5226,3.5232,3.5285,3.5168,0.0,3.534,3.5306,3.5282,3.5295,3.5328,3.532,3.5249,3.4827,3.4879,3.5139,3.4757,3.484,3.5168,3.53,3.5311,3.5209,3.5049,3.4888,3.4658,3.4269,3.3997,3.381,3.3695,3.3143,3.2634,3.2724,3.2261,3.2006,3.2661,3.2433,3.1992,3.1505,3.1217,3.0753,2.993,2.9445,2.9149,2.9184,2.8946,2.8996,2.9621,2.9589,2.9415,2.9154,2.9145,2.9116,2.9059,2.9174,2.9244,2.914,2.861,2.832,2.8429,2.7802,2.7635,2.8046,2.7993,2.7944,2.7929,2.7765,2.7414,2.6878,2.6428,2.5892,3.0347,3.0436,3.0281,2.953,2.8728,2.7618,2.5693,2.4046,0.0,0.0,2.0701,2.008,2.0069,0.0,2.0069,0.0,0.0,0.0,0.0,0.0,0.0,0.0,0.0,0.0,0.0,0.0,0.0,0.0,0.0,0.0,3.0533,3.1207,3.1978,3.283,3.3652,3.4477,3.5341,3.5396,3.5329,3.5162,3.5174,3.513,3.4975,3.4802,3.4789,3.4882,3.4756,0.0,0.0,3.4831,3.4867,3.4935,3.4988,3.5026,3.5047,3.484,3.4808,3.4869,3.4791,3.4775,3.485,3.5057,3.5089,3.4996,3.487,3.4632,3.4353,3.3957,3.3683,3.3387,3.285,3.2553,3.2253,3.1648,3.1086,3.0763,3.1058,3.0356,2.9697,3.0135,2.9834,2.9476,2.934,2.9077,2.8815,2.8757,2.8702,2.8882,2.9492,2.9811,2.9813,2.9528,2.9464,2.9473,2.934,2.9402,2.9435,2.9338,2.84,2.7818,2.7808,2.7124,2.6875,2.7261,2.7261,2.7327,2.7429,2.7261,2.6953,2.6525,2.6,2.5508,2.9207,2.9616,2.9601,2.9499,2.8828,2.7537,2.5075,0.0,0.0,2.0771,1.9696,1.9035,1.9047,1.8395,1.813,0.0,0.0,2.1249,0.0,0.0,0.0,0.0,0.0,0.0,0.0,0.0,0.0,0.0,0.0,0.0,0.0,3.1085,3.1892,3.2686,3.3493,3.4351,3.522,3.5166,3.5101,3.5015,3.4887,3.4755,3.4548,3.4292,3.4181,3.4181,0.0,0.0,0.0,3.419,3.4259,3.4364,3.4383,3.4486,3.4553,3.37,3.3869,3.4459,3.3864,3.4028,3.4583,3.4772,3.4832,3.4793,3.4593,3.4242,3.3788,3.3387,3.273,3.2046,3.1577,3.1086,3.0394,2.9009,2.8599,2.8345,2.755,2.8081,2.8504,2.8104,2.8697,2.8857,2.7722,2.8412,2.8885,2.8369,2.8829,2.9551,3.0366,3.0511,3.0392,3.0079,2.9524,2.9142,2.9142,2.8712,2.8417,2.8417,2.7936,2.7387,2.6917,2.6438,2.6274,2.6404,2.6549,2.6774,2.7218,2.6893,2.6472,2.5948,2.5384,2.4821,2.8393,2.8727,2.8591,2.8118,2.7728,2.6796,2.42,0.0,2.2231,1.9923,1.9056,1.8555,1.8042,1.765,1.7702,1.8573,1.904,2.0194,2.2785,0.0,0.0,0.0,0.0,0.0,0.0,0.0,0.0,0.0,0.0,0.0,0.0,3.0527,3.1412,3.2671,3.2929,3.3449,3.4226,3.4604,3.4667,3.4467,3.4347,3.4211,3.4,3.3393,3.3205,3.3302,0.0,0.0,0.0,3.3056,3.3114,3.3359,3.3091,3.3123,3.3314,3.3064,3.3204,3.3566,3.378,3.406,3.434,3.4442,3.4442,3.439,3.439,3.4,3.34,3.2696,3.1893,3.1002,3.0084,2.9431,2.8954,2.8895,2.7811,2.6764,2.6372,2.5892,2.5836,2.6693,2.7294,2.7607,2.7554,2.8116,2.8468,2.7993,2.8313,2.8872,2.9566,2.9713,2.9651,2.9526,2.9512,2.9401,2.9099,2.8817,2.8481,2.8287,2.735,2.672,2.6492,2.5612,2.5279,2.566,2.5591,2.5701,2.5988,2.577,2.555,2.5342,2.4821,2.4523,2.7066,2.7626,2.7676,2.7106,2.6774,2.5963,0.0,2.253,2.1415,1.9262,1.826,1.7576,1.6918,1.6772,1.7075,1.7987,1.8621,1.9824,2.2135,2.3274,0.0,0.0,0.0,0.0,0.0,0.0,0.0,0.0,0.0,0.0,0.0,3.043,3.1107,3.2344,3.2211,3.2464,3.3216,3.3587,3.3656,3.3372,3.327,3.3188,3.3071,3.2422,3.221,3.2327,0.0,0.0,0.0,3.2004,3.2159,3.2438,3.1918,3.1924,3.2238,3.2169,3.2346,3.2735,3.34,3.3751,3.391,3.4049,3.4018,3.3902,3.3935,3.3625,3.3027,3.2108,3.0808,2.956,2.8877,2.8103,2.7651,2.8422,2.7345,2.6004,2.5652,2.4833,2.4451,2.5503,2.6096,2.6578,2.7023,2.7626,2.7886,2.7359,2.7864,2.8277,2.8422,2.865,2.8691,2.8387,2.8657,2.8858,2.8853,2.8624,2.8287,2.8105,2.7203,2.6546,2.6436,2.5408,2.5034,2.5333,2.5219,2.5263,2.5547,2.5554,2.552,2.5418,2.5042,2.4807,2.4946,2.6256,2.6904,2.69,2.6256,2.5138,0.0,2.1505,1.9917,1.8825,1.7124,1.5801,1.5636,1.5567,1.5848,1.6853,1.8584,2.0327,2.1886,0.0,0.0,0.0,0.0,0.0,0.0,0.0,0.0,0.0,0.0,0.0,0.0,3.0984,3.1135,3.1607,3.1346,3.1558,3.2305,3.2037,3.183,3.1603,3.1495,3.151,3.1598,3.1342,3.1264,0.0,0.0,0.0,0.0,3.1172,3.1459,3.174,3.1063,3.1135,3.1535,3.0884,3.1214,3.2071,3.2383,3.282,3.3262,3.3514,3.3514,3.3361,3.3172,3.297,3.259,3.1668,2.945,2.7441,2.8056,2.7189,2.6303,2.6966,2.6881,2.6304,2.4992,2.5133,2.5303,2.4577,2.5307,2.6013,2.5751,2.6674,2.7262,2.6419,2.7624,2.8153,2.6945,2.7605,2.7803,2.6742,2.6614,2.7085,2.8193,2.7842,2.7523,2.7523,2.7523,2.7262,2.6751,2.6112,2.5709,2.5606,2.5593,2.5828,2.6279,2.6708,2.6755,2.6451,2.6342,2.5772,2.2235,2.3139,2.3499,2.4097,2.3985,2.3281,2.1462,2.0502,1.9368,1.7146,1.6061,1.5311,1.458,1.4877,1.5785,1.7473,1.8796,0.0,0.0,0.0,0.0,0.0,0.0,0.0,0.0,0.0,0.0,0.0,0.0,0.0,0.0,3.0306,3.0768,3.1303,3.125,3.1133,3.1014,3.1438,3.153,3.1191,3.1023,3.0869,3.068,3.0033,0.0,0.0,0.0,0.0,0.0,2.9892,3.0175,3.0563,2.9634,2.9574,2.9915,2.9581,2.9928,3.0698,3.1517,3.2103,3.2598,3.2934,3.2903,3.2713,3.2734,3.2651,3.2109,3.0177,2.7861,2.6133,2.662,2.5708,2.4734,2.5288,2.4845,2.4192,2.404,2.3916,2.4087,2.4918,2.5253,2.5494,2.5753,2.6539,2.693,2.6233,2.6829,2.7128,2.6757,2.6645,2.6445,2.6074,2.606,2.6205,2.6575,2.644,2.6317,2.6317,2.5984,2.5908,2.6061,2.5537,2.5419,2.5735,2.5722,2.5722,2.5647,2.5955,2.6047,2.5798,2.5785,2.5754,0.0,2.0695,2.1301,2.1855,2.1685,2.1086,1.9903,1.8974,1.7825,1.5956,1.5338,1.4836,1.385,1.4809,1.6111,1.7201,1.905,0.0,0.0,0.0,0.0,0.0,0.0,0.0,0.0,0.0,0.0,0.0,0.0,0.0,0.0,0.0,2.9762,2.9799,3.0128,3.0077,2.9576,2.9939,2.989,2.9422,2.939,2.9247,2.9119,2.8635,0.0,0.0,0.0,0.0,0.0,2.8622,2.8888,2.908,2.8343,2.8279,2.8627,2.8349,2.8783,2.9572,3.0159,3.0902,3.1576,3.174,3.1827,3.1933,3.1933,3.1647,3.0875,2.903,2.701,2.5464,2.5588,2.4962,2.4395,2.4847,2.4507,2.4104,2.3993,2.3976,2.4202,2.4854,2.511,2.5313,2.5642,2.6201,2.6375,2.5753,2.6008,2.6051,2.5486,2.5128,2.4897,2.489,2.4864,2.5,2.5123,2.5561,2.5831,2.5826,2.5519,2.5485,2.582,2.5319,2.5174,2.5486,2.5486,2.5421,2.5227,2.5625,2.5792,2.5648,2.5648,2.5706,0.0,1.8603,0.0,2.008,1.9446,1.8731,1.8555,1.7066,0.0,1.517,1.4835,1.4349,1.3463,1.517,1.6627,1.6377,0.0,0.0,0.0,0.0,0.0,0.0,0.0,0.0,0.0,0.0,0.0,0.0,0.0,0.0,0.0,0.0,2.8211,2.7354,2.8115,2.8403,2.8097,2.7819,2.7384,2.6849,2.6953,2.7041,2.7136,2.7282,0.0,0.0,0.0,0.0,0.0,2.7419,2.754,2.747,2.7126,2.7273,2.7617,2.7142,2.7698,2.8556,2.8349,2.9114,3.0129,2.9946,3.0319,3.0874,3.0778,3.0103,2.9185,2.8356,2.6799,2.5256,2.4945,2.4849,2.4864,2.5065,2.534,2.5365,2.4526,2.4879,2.5202,2.4398,2.4847,2.5312,2.5465,2.5688,2.5656,2.5061,2.5222,2.4892,2.3636,2.3464,2.343,2.3334,2.333,2.3535,2.3988,2.5023,2.5652,2.5633,2.5602,2.5677,2.5787,2.5301,2.5056,2.5044,2.4976,2.4976,2.4976,2.5465,2.5709,2.5779,2.5779,2.5652,1.2659,0.0,1.6689,1.7929,1.7996,1.753,0.0,1.5974,1.5108,1.4051,1.3799,1.371,1.3493,1.475,1.6188,0.0,0.0,0.0,0.0,0.0,0.0,0.0,0.0,0.0,0.0,0.0,0.0,0.0,0.0,0.0,0.0,0.0,2.6087,2.5671,2.5671,2.6169,2.7181,2.7144,2.682,2.6347,2.6187,2.6172,2.6265,2.5918,0.0,0.0,0.0,0.0,2.5986,2.6279,2.6515,2.6637,2.6153,2.6056,2.618,2.5357,2.5708,2.6531,2.6332,2.6594,2.7041,2.7472,2.8225,2.9013,2.9275,2.9278,2.9057,2.8473,2.6562,2.4647,2.4585,2.3811,2.301,2.2931,2.2951,2.2928,2.2799,2.3283,2.372,2.3925,2.4529,2.4849,2.4778,2.5111,2.5346,2.5061,2.5046,2.4816,2.4128,2.3686,2.3231,2.286,2.2798,2.2972,2.3542,2.3816,2.3952,2.3936,2.3939,2.4176,2.4642,2.4905,2.5247,2.5677,2.4955,2.4661,2.5001,2.4339,2.4158,2.429,2.429,2.4158,1.1312,1.2979,1.4806,1.5604,1.5993,1.5977,1.5277,1.4774,1.4204,1.3278,0.0,0.0,0.0,0.0,0.0,0.0,0.0,0.0,0.0,0.0,0.0,0.0,0.0,0.0,0.0,0.0,0.0,0.0,0.0,0.0,0.0,0.0,2.4376,2.4045,2.3742,2.4204,2.5577,2.5439,2.5093,2.4644,2.4657,2.467,2.467,2.4768,0.0,0.0,0.0,0.0,2.4469,2.4727,2.4869,2.494,2.4669,2.4721,2.4813,2.397,2.4012,2.4393,2.3811,2.3865,2.431,2.5114,2.5908,2.6526,2.6316,2.628,2.6411,2.6974,2.5563,2.3717,2.3318,2.2623,2.2155,2.2309,2.2163,2.2015,2.2327,2.2749,2.3095,2.3151,2.3654,2.4116,2.42,2.4394,2.4455,2.4371,2.399,2.3549,2.3178,2.2648,2.2232,2.2127,2.2157,2.2339,2.2817,2.2733,2.285,2.3454,2.3467,2.3605,2.3977,2.4232,2.4443,2.4719,2.4143,2.3841,2.3829,2.3254,2.3021,2.3158,2.284,2.2606,1.1015,1.2334,1.3541,1.3652,1.4078,1.4402,1.4198,0.0,0.0,0.0,0.0,0.0,0.0,0.0,0.0,0.0,0.0,0.0,0.0,0.0,0.0,0.0,0.0,0.0,0.0,0.0,0.0,0.0,0.0,0.0,0.0,0.0,0.0,2.2335,2.1992,2.2237,2.3204,2.3144,2.2905,2.2567,2.2809,2.287,2.2895,2.3551,2.3741,0.0,0.0,0.0,2.2822,2.299,2.305,2.293,2.2832,2.3047,2.3259,2.2491,2.2188,2.2007,2.0985,2.0985,2.168,2.2518,2.3192,2.3568,2.266,2.2359,2.2564,2.3883,2.3539,2.2536,2.1609,2.1411,2.1599,2.2037,2.1779,2.1593,2.2027,2.2399,2.253,2.2069,2.2633,2.3298,2.3666,2.3604,2.3446,2.3519,2.2776,2.2107,2.1814,2.1256,2.091,2.1226,2.1285,2.1435,2.1896,2.1581,2.1811,2.2958,2.3149,2.321,2.3338,2.3372,2.3372,2.315,2.3075,2.2777,2.2252,2.209,2.1939,2.1928,2.1211,2.0807,1.0279,1.0971,1.2005,1.3296,1.3514,1.352,1.3801,1.3405,0.0,0.0,0.0,0.0,0.0,0.0,0.0,0.0,0.0,0.0,0.0,0.0,0.0,0.0,0.0,0.0,0.0,0.0,0.0,0.0,0.0,0.0,0.0,0.0,0.0,2.0041,1.9927,1.9804,1.9498,2.071,2.135,2.1557,2.1095,2.1283,2.1992,2.1729,2.1842,0.0,0.0,2.1432,2.1557,2.1307,2.1192,2.1192,2.0853,2.0778,2.0767,1.9922,1.9413,1.907,1.7835,1.7891,1.8461,1.8585,1.9271,2.0023,1.9533,1.9198,1.8846,1.7954,1.9097,2.0575,2.0509,2.0232,2.0002,2.0195,2.0005,1.9795,1.9948,2.0434,2.0864,2.0795,2.1714,2.2628,2.2852,2.2852,2.2927,2.3075,2.2542,2.1966,2.1418,2.0864,2.0303,1.9919,1.9879,2.002,2.03,2.0266,2.0297,2.0428,2.1046,2.1576,2.1952,2.2381,2.2553,2.2553,2.2025,2.1731,2.1655,2.0547,2.007,1.9991,1.885,1.8292,1.0057,1.0283,1.091,1.2365,1.2924,1.3269,1.3955,1.3537,0.0,0.0,0.0,0.0,0.0,0.0,0.0,0.0,0.0,0.0,0.0,0.0,0.0,0.0,0.0,0.0,0.0,0.0,0.0,0.0,0.0,0.0,0.0,0.0,0.0,0.0,1.8398,1.8144,1.7891,1.8218,1.8798,1.9629,1.9498,1.9619,1.9998,2.016,2.0289,2.0406,0.0,1.9836,1.976,1.9509,1.9367,1.9357,1.8895,1.8742,1.8512,1.7182,1.6347,1.5739,1.523,1.535,1.5739,1.5866,1.6464,1.7024,1.559,1.5254,1.5105,1.3798,1.5739,1.8255,1.799,1.8053,1.8284,1.8673,1.8507,1.8384,1.8544,1.8988,1.927,1.9282,2.0284,2.1231,2.1766,2.1939,2.2101,2.2155,2.17,2.1084,2.0483,2.0081,1.9697,1.9431,1.9412,1.9411,1.9456,1.9465,1.9618,1.9847,2.0226,2.0523,2.071,2.1441,2.169,2.1375,2.1318,2.1021,2.0469,1.9432,1.8789,1.855,1.6985,1.6332,0.9962,1.0035,1.041,1.1636,1.2408,1.3117,1.4059,1.3718,1.3159,0.0,0.0,0.0,0.0,0.0,0.0,0.0,0.0,0.0,0.0,0.0,0.0,0.0,0.0,0.0,0.0,0.0,0.0,0.0,0.0,0.0,0.0,0.0,0.0,0.0,1.7112,1.6842,1.6751,1.6333,1.6673,1.7804,1.7862,1.792,1.7988,1.8572,1.8706,1.8459,1.8469,1.8257,1.791,1.7716,1.7571,1.7406,1.6945,1.6651,1.6278,1.4767,1.3795,1.3244,1.3091,1.3222,1.344,1.3652,1.4197,1.4439,1.2545,1.2094,1.2029,1.0718,1.2493,1.4952,1.5209,1.5685,1.6316,1.6936,1.7035,1.7021,1.7261,1.7665,1.8,1.8092,1.8897,1.9816,2.0672,2.0934,2.1031,2.1242,2.0547,1.9844,1.9274,1.8807,1.8576,1.8656,1.8656,1.8665,1.8594,1.8514,1.8567,1.8912,1.9237,1.9483,1.9483,2.0275,2.0585,2.0119,2.0372,2.006,1.9027,1.8212,1.7568,1.6993,1.5253,1.4504,0.9813,1.0312,1.0974,1.1574,1.2088,1.2684,1.3625,1.3718,0.0,1.2609,0.0,0.0,0.0,0.0,0.0,0.0,0.0,0.0,0.0,0.0,0.0,0.0,0.0,0.0,0.0,0.0,0.0,0.0,0.0,0.0,0.0,0.0,0.0,0.0,0.0,1.5696,1.5346,1.5497,1.5982,1.6742,1.6315,1.6315,1.6437,1.6697,1.6835,1.6973,1.6793,1.6567,1.6175,1.593,1.5587,1.5147,1.4871,1.4458,1.389,1.2879,1.2445,1.2298,1.1552,1.1403,1.1596,1.1866,1.226,1.2434,1.1572,1.0898,1.0201,0.8946,0.8923,0.9882,1.2499,1.3497,1.4018,1.4788,1.5245,1.5591,1.5801,1.6495,1.7188,1.7398,1.7989,1.8727,1.9816,1.9678,1.9696,2.0557,1.9274,1.8158,1.8158,1.7107,1.6468,1.6812,1.6894,1.6976,1.7212,1.6976,1.664,1.6057,1.7367,1.8112,1.8112,1.8656,1.8895,1.8816,1.8656,1.8149,1.7463,1.6838,1.6011,1.492,1.351,1.2668,0.9573,1.0067,1.0721,1.127,1.2311,0.0,0.0,1.4401,1.4333,1.4541,1.3692,0.0,0.0,0.0,0.0,0.0,0.0,0.0,0.0,0.0,0.0,0.0,0.0,0.0,0.0,0.0,0.0,0.0,0.0,0.0,0.0,0.0,0.0,0.0,0.0,1.5093,1.5083,1.4796,1.4841,1.5188,1.5409,1.5338,1.5037,1.5534,1.5455,1.5092,1.5259,1.5037,1.4442,1.453,1.425,1.3825,1.3382,1.2652,1.1922,1.1632,1.1335,1.0962,1.0663,1.0663,1.0784,1.0351,1.0656,1.0869,0.975,0.9374,0.9105,0.8058,0.7854,0.8454,1.01,1.1499,1.2523,1.2785,1.3567,1.4169,1.4131,1.4566,1.5123,1.5876,1.6437,1.7074,1.7552,1.8301,1.8718,1.8372,1.806,1.7666,1.7286,1.655,1.6049,1.6049,1.6057,1.6064,1.6057,1.5809,1.5394,1.472,1.5891,1.6394,1.5974,1.6527,1.6927,1.7261,1.7001,1.6577,1.6055,1.4823,1.3562,1.2116,1.0945,1.0086,0.9515,1.0059,1.0729,1.1424,0.0,0.0,1.5049,1.5094,1.5078,1.5789,1.469,0.0,0.0,0.0,0.0,0.0,0.0,0.0,0.0,0.0,0.0,0.0,0.0,0.0,0.0,0.0,0.0,0.0,0.0,0.0,0.0,0.0,0.0,0.0,0.0,0.0,1.453,1.4039,1.3862,1.3985,1.4418,1.4418,1.3985,1.4338,1.4194,1.376,1.3985,1.3615,1.2952,1.3171,1.2959,1.2452,1.1929,1.1409,1.0887,1.0812,1.0588,1.0293,1.0218,1.0218,1.0257,0.9735,0.9964,1.0174,0.9414,0.9041,0.8704,0.7978,0.7858,0.8021,0.851,0.9757,1.101,1.1685,1.2548,1.3406,1.3698,1.4151,1.4552,1.5054,1.5448,1.5771,1.5846,1.6667,1.7074,1.6577,1.6503,1.6355,1.5801,1.5387,1.513,1.4949,1.5047,1.5144,1.497,1.4803,1.4468,1.3711,1.4384,1.4727,1.4475,1.4963,1.5282,1.5613,1.526,1.4747,1.4232,1.2802,1.1359,0.9908,0.8877,0.8177,0.9733,1.0404,1.118,0.0,0.0,0.0,1.5624,1.558,1.5446,1.5892,0.0,1.344,0.0,0.0,0.0,0.0,0.0,0.0,0.0,0.0,0.0,0.0,0.0,0.0,0.0,0.0,0.0,0.0,0.0,0.0,0.0,0.0,0.0,0.0,0.0,0.0,1.3491,1.3337,1.3219,1.3193,1.3411,1.3419,1.3193,1.2973,1.2973,1.3193,1.2973,1.2452,1.1706,1.1929,1.1632,1.1037,1.0663,1.0738,1.1037,1.0443,1.0293,1.0438,1.0293,1.0067,0.996,1.0213,1.0293,1.0374,1.0842,1.0063,0.9028,0.8813,0.8615,0.8276,0.7843,0.8328,0.9428,1.1472,1.2498,1.3353,1.4796,1.5575,1.5914,1.522,1.5054,1.5047,1.5011,1.4685,1.4601,1.5148,1.4518,1.3957,1.3704,1.3294,1.313,1.3366,1.3704,1.3957,1.3957,1.3957,1.3711,1.3045,1.296,1.3294,1.3957,1.3957,1.3957,1.3957,1.3275,1.2674,1.1986,1.0763,0.9557,0.8456,0.7826,0.721,0.9396,1.0756,0.0,1.2336,0.0,0.0,0.0,1.6001,0.0,0.0,0.0,0.0,0.0,0.0,0.0,0.0,0.0,0.0,0.0,0.0,0.0,0.0,0.0,0.0,0.0,0.0,0.0,0.0,0.0,0.0,0.0,0.0,0.0,0.0,0.0,0.0,1.2772,1.2087,1.2053,1.2728,1.2363,1.2473,1.2973,1.2746,1.2526,1.215,1.2077,1.1632,1.0887,1.0887,1.0812,1.0663,1.0218,1.0067,1.0067,0.9997,0.9922,0.9846,0.962,0.962,0.958,0.9106,0.9072,0.9213,0.946,0.9322,0.8986,0.8725,0.8731,0.8736,0.8562,0.869,0.934,1.13,1.2254,1.3033,1.4126,1.4384,1.4468,1.4734,1.4314,1.3802,1.362,1.3613,1.3522,1.3093,1.3184,1.319,1.2869,1.21,1.1929,1.2613,1.2339,1.2163,1.2351,1.2351,1.2095,1.1413,1.1413,1.1763,1.254,1.2625,1.2528,1.2413,1.1198,1.0245,0.9543,0.8154,0.6936,0.58,0.5891,0.545,0.9889,0.0,0.0,1.2828,1.387,1.5025,1.5944,0.0,0.0,0.0,0.0,0.0,0.0,0.0,0.0,0.0,0.0,0.0,0.0,0.0,0.0,0.0,0.0,0.0,0.0,0.0,0.0,0.0,0.0,0.0,0.0,0.0,0.0,0.0,0.0,0.0,1.1692,1.0996,1.096,1.1633,1.1391,1.1533,1.2065,1.2104,1.2003,1.1706,1.126,1.0812,1.0218,1.0067,0.9992,0.9836,0.9463,0.9387,0.962,0.9539,0.969,0.9922,0.9549,0.9549,0.9646,0.8932,0.8807,0.8942,0.9166,0.9278,0.9321,0.879,0.8844,0.917,0.899,0.9078,0.9767,1.1729,1.251,1.3203,1.4552,1.4636,1.4468,1.4216,1.3626,1.3039,1.2186,1.218,1.218,1.1585,1.1832,1.1912,1.1488,1.0809,1.0636,1.1058,1.0702,1.0621,1.0982,1.0987,1.0901,1.0554,1.0554,1.0733,1.0997,1.1079,1.0982,1.0605,0.9392,0.8428,0.7632,0.6322,0.5356,0.4648,0.4293,0.3849,1.0747,0.0,0.0,1.3517,1.3996,0.0,0.0,0.0,0.0,0.0,0.0,0.0,0.0,0.0,0.0,0.0,0.0,0.0,0.0,0.0,0.0,0.0,0.0,0.0,0.0,0.0,0.0,0.0,0.0,0.0,0.0,0.0,0.0,0.0,0.0,0.0,1.0441,1.0091,1.0025,0.0,1.0568,1.0689,1.0701,1.1132,1.1335,1.1409,1.0513,0.9992,0.9765,0.9316,0.9089,0.8851,0.8399,0.8703,0.9392,0.9079,0.9528,1.0218,0.9792,0.9727,0.9803,0.9448,0.9296,0.9316,0.9536,0.9732,0.9683,0.8822,0.9004,0.9318,0.8978,0.9331,1.0284,1.2334,1.293,1.3613,1.5575,1.5831,1.5228,1.3704,1.319,1.251,1.0982,1.0641,1.0641,1.0641,1.0554,1.0376,0.984,0.9589,0.9336,0.9061,0.8969,0.924,0.9772,0.9864,0.9946,1.012,1.012,0.9951,0.9519,0.9685,0.941,0.8694,0.7742,0.6861,0.606,0.5001,0.4383,0.4291,0.2953,0.2329,0.9813,1.1316,0.0,0.0,1.4614,0.0,0.0,0.0,0.0,0.0,0.0,0.0,0.0,0.0,0.0,0.0,0.0,0.0,0.0,0.0,0.0,0.0,0.0,0.0,0.0,0.0,0.0,0.0,0.0,0.0,0.0,0.0,0.0,0.0,0.0,0.9267,0.9722,0.939,0.9419,0.0,0.9794,0.9774,0.9791,1.0234,1.0218,0.9771,0.9458,0.9226,0.9155,0.8232,0.8012,0.825,0.748,0.7557,0.8016,0.8399,0.8546,0.8713,0.9436,0.9579,0.9453,0.9383,0.9245,0.908,0.8963,0.8859,0.868,0.8447,0.8227,0.8201,0.8777,0.8815,0.9327,1.123,1.251,1.3698,1.5228,1.5409,1.4992,1.4048,1.3112,1.2095,1.1068,1.0294,0.9864,0.9864,0.9689,0.9515,0.9148,0.8452,0.7925,0.7837,0.757,0.7658,0.8548,0.8723,0.8807,0.8636,0.8636,0.8556,0.8404,0.8623,0.8249,0.6939,0.5697,0.4459,0.3309,0.2956,0.251,0.2061,0.1793,0.1255,0.9815,0.0,0.0,1.3265,0.0,0.0,0.0,0.0,0.0,0.0,0.0,0.0,0.0,0.0,0.0,0.0,0.0,0.0,0.0,0.0,0.0,0.0,0.0,0.0,0.0,0.0,0.0,0.0,0.0,0.0,0.0,0.0,0.0,0.0,0.8112,0.8304,0.8623,0.8229,0.8215,0.8716,0.8528,0.8536,0.8827,0.9499,0.9458,0.9013,0.8932,0.8618,0.8228,0.7536,0.708,0.6861,0.6475,0.6549,0.6949,0.7651,0.8151,0.8485,0.8857,0.9332,0.9511,0.8968,0.9013,0.911,0.8728,0.8669,0.8535,0.7804,0.7483,0.7389,0.7555,0.7661,0.8269,0.9918,1.1735,1.3372,1.4384,1.4482,1.4153,1.3203,1.2174,1.1149,1.0207,0.9602,0.9257,0.9257,0.9078,0.8723,0.8281,0.7573,0.7048,0.6874,0.6609,0.6694,0.7312,0.7217,0.7031,0.6672,0.7129,0.6776,0.5255,0.5416,0.5328,0.4721,0.3653,0.25,0.1344,0.1165,0.0987,0.0718,0.0359,-0.009,0.9836,0.0,1.1597,1.2469,1.2788,0.0,0.0,0.0,0.0,0.0,0.0,0.0,0.0,0.0,0.0,0.0,0.0,0.0,0.0,0.0,0.0,0.0,0.0,0.0,0.0,0.0,0.0,0.0,0.0,0.0,0.0,0.0,0.7125,0.706,0.7125,0.726,0.7396,0.6994,0.7008,0.745,0.7193,0.7338,0.7821,0.8528,0.8694,0.847,0.8399,0.7931,0.7157,0.6692,0.6079,0.5389,0.5234,0.5467,0.5951,0.6723,0.7501,0.8171,0.8237,0.8726,0.9306,0.8604,0.8669,0.9051,0.8556,0.8476,0.8404,0.7243,0.6917,0.6753,0.6331,0.6508,0.7119,0.8515,1.0428,1.2254,1.3197,1.3379,1.313,1.2015,1.0982,0.9941,0.8907,0.8644,0.8556,0.8556,0.8372,0.7925,0.7401,0.6868,0.6428,0.6171,0.5994,0.5991,0.6163,0.5708,0.5166,0.4709,0.5255,0.4452,0.1869,0.1781,0.1693,0.1693,0.1518,0.0894,-0.0269,-0.0179,-0.0179,-0.0269,-0.0897,-0.1166,0.0,0.0,1.1318,0.0,0.0,0.0,0.0,0.0,0.0,0.0,0.0,0.0,0.0,0.0,0.0,0.0,0.0,0.0,0.0,0.0,0.0,0.0,0.0,0.0,0.0,0.0,0.0,0.0,0.0,0.0,0.0,0.5675,0.554,0.5404,0.5675,0.5943,0.6137,0.6207,0.635,0.6573,0.6503,0.6473,0.666,0.6878,0.7092,0.7395,0.7019,0.6479,0.5777,0.5079,0.4693,0.4538,0.3915,0.3995,0.4557,0.5212,0.5666,0.6121,0.7461,0.7812,0.7661,0.8249,0.8459,0.8336,0.7909,0.7655,0.7507,0.7477,0.6757,0.6109,0.6571,0.6157,0.5888,0.7122,0.8249,0.9639,1.174,1.2272,1.2015,1.1241,0.9937,0.8723,0.8116,0.7672,0.7316,0.7316,0.6962,0.6605,0.6517,0.5988,0.5725,0.6083,0.5371,0.5102,0.5539,0.4636,0.3831,0.3207,0.2312,0.1335,0.0357,-0.0446,-0.1518,-0.2865,-0.1254,-0.0628,-0.1256,-0.0807,-0.0807,-0.1256,-0.1345,-0.1345,0.8546,0.9408,1.0164,0.0,0.0,0.0,0.0,0.0,0.0,0.0,0.0,0.0,0.0,0.0,0.0,0.0,0.0,0.0,0.0,0.0,0.0,0.0,0.0,0.0,0.0,0.0,0.0,0.0,0.0,0.0,0.502,0.4818,0.4683,0.468,0.4815,0.5014,0.5276,0.5017,0.4992,0.5209,0.5345,0.559,0.5881,0.5868,0.6093,0.6475,0.6247,0.5628,0.4691,0.407,0.3602,0.329,0.3214,0.3295,0.3461,0.3611,0.4078,0.4814,0.5814,0.6612,0.7125,0.7285,0.7709,0.8174,0.765,0.7512,0.7304,0.6853,0.6346,0.592,0.5528,0.5272,0.5361,0.6157,0.6858,0.7822,0.9666,1.0448,1.0448,0.9235,0.8456,0.7672,0.6786,0.6789,0.6881,0.6612,0.6432,0.6428,0.6428,0.6166,0.5813,0.5544,0.501,0.4385,0.3666,0.2408,0.1247,0.0178,-0.0356,-0.1159,-0.2593,-0.2684,-0.3135,-0.3857,-0.2959,-0.242,-0.242,-0.224,-0.2152,-0.2243,-0.2332,-0.242,0.0,0.0,0.9064,0.0,0.0,0.0,0.0,0.0,0.0,0.0,0.0,0.0,0.0,0.0,0.0,0.0,0.0,0.0,0.0,0.0,0.0,0.0,0.0,0.0,0.0,0.0,0.0,0.0,0.0,0.0,0.4225,0.3956,0.3823,0.3756,0.3823,0.3954,0.4284,0.3892,0.3869,0.402,0.427,0.467,0.5161,0.5038,0.5045,0.524,0.5392,0.4846,0.3834,0.329,0.2744,0.2276,0.2512,0.2512,0.2282,0.2007,0.2291,0.3084,0.4118,0.5157,0.6019,0.6062,0.6782,0.7489,0.7136,0.7132,0.7048,0.6346,0.5991,0.5547,0.4654,0.4476,0.4565,0.5097,0.5539,0.6248,0.8101,0.9061,0.9144,0.7925,0.7499,0.6972,0.6077,0.6169,0.6349,0.5994,0.608,0.6166,0.6343,0.6254,0.5985,0.5366,0.4739,0.3664,0.2056,0.0446,-0.1071,-0.25,-0.2768,-0.3486,-0.4837,-0.4572,-0.4302,-0.4214,-0.4123,-0.3855,-0.3317,-0.3227,-0.3139,-0.3053,-0.3138,-0.3227,0.0,0.8035,0.0,0.0,0.0,0.0,0.0,0.0,0.0,0.0,0.0,0.0,0.0,0.0,0.0,0.0,0.0,0.0,0.0,0.0,0.0,0.0,0.0,0.0,0.0,0.0,0.0,0.0,0.0,0.0,0.309,0.2691,0.2423,0.2287,0.2423,0.2622,0.282,0.2956,0.3094,0.3234,0.3395,0.3701,0.416,0.4331,0.4054,0.3524,0.399,0.3834,0.3132,0.2508,0.2041,0.165,0.1729,0.1335,0.0709,0.0241,-0.0081,-0.0,0.2565,0.3299,0.3312,0.48,0.5544,0.5808,0.5808,0.6074,0.6428,0.6428,0.563,0.4739,0.4739,0.3851,0.3141,0.3849,0.4028,0.4825,0.7834,0.8544,0.8456,0.8197,0.7408,0.6704,0.6432,0.5902,0.546,0.546,0.546,0.5638,0.6083,0.5899,0.5811,0.5994,0.438,0.2679,0.1247,-0.0803,-0.2499,-0.3749,-0.4912,-0.5455,-0.5371,-0.5727,-0.5636,-0.4921,-0.4921,-0.4476,-0.3587,-0.3317,-0.3317,-0.3588,-0.3317,-0.3317,0.0,0.0,0.0,0.0,0.0,0.0,0.0,0.0,0.0,0.0,0.0,0.0,0.0,0.0,0.0,0.0,0.0,0.0,0.0,0.0,0.0,0.0,0.0,0.0,0.0,0.0,0.0,0.0,0.0,0.0,0.2285,0.2018,0.1884,0.1817,0.1884,0.1951,0.2218,0.2488,0.2624,0.2691,0.2852,0.3113,0.3482,0.3715,0.3812,0.3834,0.3661,0.3137,0.2276,0.2041,0.1806,0.165,0.1493,0.1257,0.0943,0.0238,-0.0482,-0.0897,0.0083,0.1092,0.2127,0.3257,0.4034,0.4473,0.4889,0.5087,0.5187,0.49,0.4472,0.4026,0.3221,0.2776,0.2598,0.313,0.3935,0.5008,0.6425,0.7048,0.7319,0.6966,0.67,0.6343,0.563,0.5725,0.5727,0.546,0.5725,0.6077,0.6254,0.608,0.5813,0.5455,0.3664,0.1696,-0.0178,-0.214,-0.384,-0.5184,-0.5808,-0.6077,-0.6077,-0.5899,-0.5544,-0.501,-0.501,-0.4567,-0.3767,-0.3678,-0.3587,-0.3587,-0.3676,-0.3678,0.721,0.0,0.0,0.0,0.0,0.0,0.0,0.0,0.0,0.0,0.0,0.0,0.0,0.0,0.0,0.0,0.0,0.0,0.0,0.0,0.0,0.0,0.0,0.0,0.0,0.0,0.0,0.0,0.0,0.0,0.1681,0.148,0.148,0.1547,0.1547,0.1614,0.1681,0.1884,0.1951,0.1951,0.2083,0.2317,0.2662,0.278,0.3134,0.3517,0.3071,0.2652,0.2278,0.1807,0.1493,0.1335,0.1021,0.0864,0.0786,-0.0079,-0.0794,-0.1289,-0.1137,-0.0246,0.0999,0.1675,0.2348,0.3025,0.3415,0.3688,0.3705,0.3432,0.3187,0.2921,0.2125,0.1772,0.1864,0.2323,0.331,0.4293,0.4917,0.5811,0.6526,0.6257,0.6257,0.6077,0.5364,0.5547,0.5816,0.5547,0.5813,0.6077,0.6166,0.5991,0.5547,0.4832,0.2948,0.0892,-0.1338,-0.3303,-0.5003,-0.6346,-0.652,-0.6609,-0.6609,-0.634,-0.5897,-0.5275,-0.5277,-0.4832,-0.4036,-0.3946,-0.3946,-0.4032,-0.3946,-0.3946,0.0,0.0,0.0,0.0,0.0,0.0,0.0,0.0,0.0,0.0,0.0,0.0,0.0,0.0,0.0,0.0,0.0,0.0,0.0,0.0,0.0,0.0,0.0,0.0,0.0,0.0,0.0,0.0,0.0,0.1817,0.1076,0.1076,0.1143,0.1345,0.148,0.148,0.1277,0.1143,0.1076,0.1076,0.1076,0.1296,0.168,0.1611,0.1849,0.2337,0.2021,0.2302,0.2902,0.1805,0.1021,0.055,0.0157,-0.0,-0.0157,-0.1021,-0.1335,-0.1261,-0.0887,-0.0569,-0.0163,-0.0,0.067,0.1422,0.1507,0.1759,0.2189,0.2152,0.1819,0.1472,0.1472,0.1127,0.0872,0.1247,0.1879,0.2684,0.3395,0.4825,0.608,0.6343,0.6169,0.5994,0.5722,0.5547,0.5458,0.563,0.5547,0.546,0.563,0.5458,0.5104,0.4297,0.2322,0.0089,-0.2228,-0.4287,-0.5902,-0.7051,-0.7139,-0.7139,-0.7139,-0.7139,-0.6609,-0.5719,-0.5719,-0.5186,-0.4295,-0.4034,-0.4302,-0.4921,-0.4212,-0.4034,0.6597,0.0,0.0,0.0,0.0,0.0,0.0,0.0,0.0,0.0,0.0,0.0,0.0,0.0,0.0,0.0,0.0,0.0,0.0,0.0,0.0,0.0,0.0,0.0,0.0,0.0,0.0,0.0,0.0202,0.0337,0.0336,0.0471,0.0606,0.0674,0.101,0.0875,0.0067,0.047,0.047,0.0067,0.0202,0.0337,0.0476,0.0833,0.0985,0.0993,0.1093,0.0897,0.0459,0.1092,0.1257,0.0943,-0.0393,-0.0943,-0.0943,-0.1178,-0.1335,-0.1258,-0.1188,-0.1111,-0.0874,-0.0399,0.008,0.0481,0.0815,0.0983,0.107,0.0758,0.0593,0.0339,-0.0085,-0.0254,-0.017,0.0085,0.0693,0.1482,0.24,0.3065,0.3846,0.4917,0.5008,0.4743,0.4743,0.483,0.4919,0.5006,0.5008,0.5099,0.5186,0.4832,0.4117,0.286,0.1072,-0.0982,-0.3301,-0.5085,-0.6599,-0.7845,-0.7937,-0.7937,-0.7937,-0.7051,-0.634,-0.5719,-0.5364,-0.5063,-0.4729,-0.4358,-0.43,-0.4476,-0.43,-0.421,0.6484,0.6863,0.0,0.0,0.0,0.0,0.0,0.0,0.0,0.0,0.0,0.0,0.0,0.0,0.0,0.0,0.0,0.0,0.0,0.0,0.0,0.0,0.0,0.0,0.0,0.0,0.0,0.0,-0.1346,-0.1277,-0.1141,-0.0874,-0.0672,-0.0672,-0.0269,-0.0269,-0.0672,-0.0403,-0.0403,-0.0739,-0.0538,-0.0403,-0.0336,-0.0342,-0.0207,0.0069,0.0071,-0.0289,-0.0735,-0.0076,0.0311,0.0393,-0.0864,-0.1492,-0.1805,-0.1727,-0.1649,-0.1649,-0.1649,-0.1492,-0.1257,-0.0864,-0.0628,-0.0472,-0.0239,-0.016,-0.0322,-0.0577,-0.0663,-0.083,-0.1258,-0.1251,-0.1079,-0.067,-0.0255,0.0341,0.1262,0.1542,0.2185,0.4053,0.436,0.43,0.43,0.4387,0.4563,0.465,0.4565,0.4565,0.4654,0.3578,0.2236,0.1073,-0.0358,-0.2233,-0.4825,-0.5802,-0.6868,-0.8197,-0.8285,-0.8285,-0.8285,-0.7665,-0.6959,-0.634,-0.5808,-0.5333,-0.4925,-0.4541,-0.4389,-0.448,-0.4389,-0.4389,0.6332,0.6563,0.6793,0.0,0.0,0.0,0.6136,0.5113,0.0,0.0,0.0,0.0,0.0,0.0,0.0,0.0,0.0,0.0,0.0,0.0,0.0,0.0,0.0,0.0,0.0,0.0,-0.2394,-0.2661,-0.2669,-0.2678,-0.2684,-0.2484,-0.2281,-0.2214,-0.1814,-0.1546,-0.1344,-0.1412,-0.1412,-0.1412,-0.1277,-0.1143,-0.1008,-0.1614,-0.1412,-0.0673,-0.1104,-0.1258,-0.1265,-0.14,-0.1145,-0.0704,-0.1099,-0.1805,-0.251,-0.2275,-0.2275,-0.2273,-0.2196,-0.1884,-0.1414,-0.1335,-0.1335,-0.1414,-0.1336,-0.1492,-0.1658,-0.1693,-0.1782,-0.1951,-0.1992,-0.1973,-0.1789,-0.1162,-0.1003,-0.0753,0.0083,0.0251,0.0928,0.3088,0.3687,0.3929,0.3939,0.3941,0.3939,0.4202,0.3851,0.3587,0.376,0.1789,-0.0,-0.0807,-0.1878,-0.3664,-0.6447,-0.6441,-0.6962,-0.8544,-0.8544,-0.8544,-0.8632,-0.8456,-0.8017,-0.7139,-0.6593,-0.5883,-0.501,-0.4565,-0.4478,-0.475,-0.4478,-0.4478,0.5838,0.6125,0.641,0.6436,0.0,0.0,0.0,0.5004,0.0,0.0,0.0,0.0,0.0,0.0,0.0,0.0,0.0,0.0,0.0,0.0,0.0,0.0,0.0,0.0,0.0,0.0,-0.2568,-0.2384,-0.2498,-0.2556,-0.2683,-0.2889,-0.2956,-0.2753,-0.2283,-0.2283,-0.2755,-0.2151,-0.1951,-0.2154,-0.2154,-0.2087,-0.1951,-0.215,-0.2216,-0.2014,-0.2296,-0.24,-0.2382,-0.2407,-0.1902,-0.1146,-0.1248,-0.1805,-0.251,-0.2275,-0.2508,-0.282,-0.2352,-0.2118,-0.1961,-0.1649,-0.1727,-0.1961,-0.1807,-0.2042,-0.2277,-0.2131,-0.2212,-0.2372,-0.2224,-0.214,-0.2056,-0.1591,-0.1614,-0.1465,-0.056,-0.0492,-0.0335,0.0826,0.1276,0.1493,0.1429,0.1433,0.1434,0.1433,0.1703,0.1613,0.0894,0.009,-0.0896,-0.206,-0.3848,-0.5369,-0.6174,-0.7143,-0.8285,-0.951,-0.9078,-0.9078,-0.9598,-0.8368,-0.7489,-0.7139,-0.6234,-0.5534,-0.501,-0.4921,-0.4921,-0.4921,-0.4921,-0.4921,0.5725,0.602,0.6268,0.6164,0.0,0.0,0.0,0.0,0.0,0.0,0.0,0.0,0.0,0.0,0.0,0.0,0.0,0.0,0.0,0.0,0.0,0.0,0.0,0.0,0.0,0.0,-0.371,-0.3588,-0.3634,-0.3727,-0.3852,-0.3843,-0.3745,-0.3612,-0.3195,-0.3153,-0.3491,-0.3157,-0.3023,-0.3226,-0.3224,-0.3155,-0.3086,-0.3086,-0.3086,-0.3086,-0.3023,-0.2978,-0.3086,-0.2783,-0.2488,-0.2122,-0.2128,-0.2543,-0.3161,-0.3196,-0.3366,-0.3521,-0.3288,-0.2898,-0.2665,-0.251,-0.2588,-0.2665,-0.2668,-0.2902,-0.3136,-0.329,-0.3134,-0.2978,-0.3212,-0.3056,-0.2744,-0.2746,-0.277,-0.2624,-0.1965,-0.1916,-0.1866,-0.1462,-0.1323,-0.0761,0.0519,0.0789,0.0618,0.0353,0.0267,0.009,-0.0179,-0.1522,-0.269,-0.3317,-0.4659,-0.573,-0.6169,-0.7228,-0.8372,-0.9515,-0.9257,-0.9257,-0.9602,-0.8811,-0.8109,-0.7496,-0.6715,-0.6271,-0.6248,-0.5897,-0.5633,-0.5547,-0.5455,-0.5542,0.0,0.0,0.0,0.0,0.0,0.6301,0.0,0.0,0.0,0.3383,0.0,0.0,0.0,0.0,0.0,0.0,0.0,0.0,0.0,0.0,0.0,0.0,0.0,0.0,0.0,0.0,-0.4833,-0.4862,-0.48,-0.4823,-0.4972,-0.4774,-0.4583,-0.4517,-0.4257,-0.4122,-0.4122,-0.4148,-0.4159,-0.4159,-0.4154,-0.4084,-0.4082,-0.3956,-0.3959,-0.3959,-0.3627,-0.3625,-0.3694,-0.3299,-0.3193,-0.3352,-0.3094,-0.3304,-0.3911,-0.3986,-0.4103,-0.4196,-0.4119,-0.3742,-0.3366,-0.3446,-0.3446,-0.3366,-0.3602,-0.3839,-0.3997,-0.4307,-0.3992,-0.368,-0.4226,-0.3992,-0.3602,-0.3839,-0.3919,-0.3761,-0.329,-0.321,-0.3229,-0.3212,-0.3144,-0.252,-0.0251,0.0085,-0.0086,-0.0431,-0.1055,-0.1337,-0.1068,-0.295,-0.4397,-0.4486,-0.5193,-0.5899,-0.6517,-0.7312,-0.8197,-0.9345,-0.9262,-0.9262,-0.9519,-0.9345,-0.8907,-0.8025,-0.758,-0.7404,-0.7489,-0.6871,-0.652,-0.6346,-0.6077,-0.634,0.0,0.0,0.0,0.0,0.5715,0.0,0.0,0.0,0.4631,0.4024,0.0,0.0,0.0,0.0,0.0,0.0,0.0,0.0,0.0,0.0,0.0,0.0,0.0,0.0,0.0,0.0,0.0,-0.5078,-0.4797,-0.473,-0.4961,-0.5107,-0.5182,-0.5182,-0.5133,-0.5145,-0.5145,-0.5022,-0.4885,-0.4683,-0.4556,-0.4422,-0.4287,-0.4425,-0.4492,-0.4492,-0.4561,-0.4631,-0.4631,-0.4579,-0.4584,-0.4476,-0.3295,-0.3216,-0.3728,-0.3737,-0.4168,-0.4626,-0.4098,-0.4079,-0.4226,-0.3841,-0.3995,-0.4304,-0.4693,-0.4616,-0.4307,-0.4384,-0.4307,-0.4307,-0.4384,-0.4307,-0.4226,-0.4068,-0.4226,-0.4151,-0.3524,-0.3526,-0.3608,-0.3222,-0.3146,-0.295,-0.2583,-0.2439,-0.2444,-0.2363,-0.2755,-0.3054,-0.3137,-0.3813,-0.4576,-0.5196,-0.6077,-0.6868,-0.7312,-0.8201,-0.9082,-0.9772,-0.9087,-0.9174,-1.012,-0.9607,-0.9165,-0.8803,-0.8456,-0.8105,-0.7489,-0.7401,-0.7401,-0.7312,-0.7051,-0.7136,0.0,0.0,0.0,0.0,0.0,0.0,0.0,0.0,0.4403,0.0,0.0,0.0,0.0,0.0,0.0,0.0,0.0,0.0,0.0,0.0,0.0,0.0,0.0,0.0,0.0,0.0,0.0,0.0,0.0,-0.5081,-0.5339,-0.5494,-0.549,-0.5428,-0.5439,-0.5505,-0.5505,-0.5734,-0.5818,-0.5749,-0.5815,-0.5683,-0.555,-0.555,-0.5488,-0.5355,-0.5289,-0.5289,-0.5223,-0.5024,-0.4957,-0.4903,-0.4469,-0.4346,-0.4417,-0.4413,-0.4683,-0.502,-0.4724,-0.4803,-0.4994,-0.491,-0.501,-0.5318,-0.5473,-0.5395,-0.5318,-0.5476,-0.5243,-0.5007,-0.5398,-0.5243,-0.4929,-0.5082,-0.5237,-0.5162,-0.4618,-0.4618,-0.4543,-0.4229,-0.4229,-0.4178,-0.3941,-0.3343,-0.2964,-0.3131,-0.3362,-0.3683,-0.4161,-0.4809,-0.5385,-0.5802,-0.6868,-0.7665,-0.7933,-0.864,-0.9262,-0.9515,-0.9174,-0.9262,-0.9689,-0.9432,-0.9257,-0.9165,-0.8723,-0.8544,-0.8723,-0.8281,-0.8281,-0.8719,-0.8021,-0.8021,0.2944,0.0,0.0,0.0,0.0,0.0,0.0,0.0,0.0,0.0,0.0,0.0,0.0,0.0,0.0,0.0,0.0,0.0,0.0,0.0,0.0,0.0,0.0,0.0,0.0,0.0,0.0,0.0,0.0,0.0,-0.5608,-0.5784,-0.5823,-0.5758,-0.5891,-0.5956,-0.5946,-0.6318,-0.6567,-0.6613,-0.6741,-0.6679,-0.6548,-0.6346,-0.6152,-0.602,-0.5818,-0.5683,-0.5683,-0.555,-0.5484,-0.555,-0.569,-0.5691,-0.5467,-0.5294,-0.5284,-0.5383,-0.5522,-0.5719,-0.5969,-0.6156,-0.629,-0.6475,-0.6475,-0.6475,-0.6553,-0.6714,-0.6479,-0.617,-0.6486,-0.6251,-0.6015,-0.617,-0.6247,-0.6247,-0.586,-0.5705,-0.5476,-0.5323,-0.5093,-0.4937,-0.4701,-0.3972,-0.3456,-0.3778,-0.3854,-0.4101,-0.4845,-0.5474,-0.5955,-0.6477,-0.753,-0.8229,-0.8319,-0.8923,-0.9293,-0.9174,-0.9401,-0.9432,-0.9345,-0.9432,-0.9519,-0.9519,-0.9074,-0.9161,-0.9602,-0.9074,-0.9074,-0.9602,-0.8815,-0.8815,0.0,0.0,0.0,0.2154,0.0,0.0,0.0,0.0,0.3368,0.0,0.0,0.0,0.0,0.0,0.23,0.2201,0.0,0.0,0.0,0.0,0.0,0.0,0.0,0.0,0.0,0.0,0.0,0.0,0.0,0.0,-0.5562,-0.6034,-0.6288,-0.6386,-0.6604,-0.6764,-0.6741,-0.6821,-0.6953,-0.7204,-0.7012,-0.6881,-0.6881,-0.6552,-0.6416,-0.6354,-0.602,-0.5888,-0.5892,-0.6218,-0.6482,-0.6675,-0.6675,-0.6741,-0.6806,-0.6288,-0.5933,-0.5862,-0.6405,-0.6915,-0.7364,-0.7586,-0.778,-0.8008,-0.8008,-0.8008,-0.8008,-0.8008,-0.8008,-0.7855,-0.7334,-0.7484,-0.7553,-0.7019,-0.7173,-0.7407,-0.718,-0.6633,-0.6089,-0.5938,-0.5401,-0.4937,-0.4701,-0.4701,-0.4548,-0.4389,-0.44,-0.4708,-0.527,-0.5539,-0.6117,-0.7454,-0.7942,-0.8271,-0.853,-0.9019,-0.9179,-0.895,-0.9579,-0.9864,-0.9602,-0.9864,-0.9951,-0.9951,-0.9951,-0.9864,-0.9602,-0.9602,-0.9602,-0.9602,-0.9345,-0.9345,0.0,0.0,0.0624,0.0755,0.0,0.0,0.0,0.0,0.0,0.0,0.0,0.0,0.0,0.0,0.1239,0.2196,0.2153,0.0,0.0,0.0,0.0,0.0,0.0,0.0,0.0,0.0,0.0,0.0,0.0,0.0,0.0,-0.5953,-0.6524,-0.7133,-0.7366,-0.76,-0.7903,-0.8088,-0.8327,-0.856,-0.8501,-0.8177,-0.7596,-0.7526,-0.7134,-0.6613,-0.6548,-0.6544,-0.6605,-0.6806,-0.7003,-0.7195,-0.7461,-0.7456,-0.7186,-0.6793,-0.6573,-0.6576,-0.7166,-0.7436,-0.764,-0.7771,-0.8025,-0.8259,-0.8259,-0.8355,-0.8466,-0.8309,-0.8304,-0.8232,-0.7855,-0.7783,-0.7783,-0.7553,-0.748,-0.7407,-0.7099,-0.6788,-0.6553,-0.6167,-0.5709,-0.5404,-0.5323,-0.5093,-0.4857,-0.4621,-0.4964,-0.541,-0.5817,-0.683,-0.7635,-0.8168,-0.8919,-0.9327,-0.9414,-0.9495,-0.9504,-0.9541,-0.9705,-0.9809,-0.9859,-0.9951,-1.0038,-1.0038,-1.0038,-0.9951,-0.9864,-1.0038,-1.0033,-1.0028,-0.9981,-0.9918,-0.1939,-0.1576,0.0,-0.1014,-0.0585,0.0,0.0127,0.0,0.0,0.0,0.0,0.0,0.0,0.0,0.0505,0.1665,0.1928,0.1884,0.0,0.0,0.0,0.0,0.0,0.0,0.0,0.0,-0.21,-0.2509,0.0,0.0,0.0,0.0,-0.6304,-0.7003,-0.7351,-0.77,-0.823,-0.8491,-0.8813,-0.9253,-0.9354,-0.9075,-0.8436,-0.8366,-0.8037,-0.7386,-0.7456,-0.7456,-0.7512,-0.7717,-0.7912,-0.7972,-0.8301,-0.8236,-0.7907,-0.7647,-0.7582,-0.7727,-0.8067,-0.823,-0.8321,-0.8398,-0.8649,-0.8963,-0.8963,-0.9124,-0.9306,-0.9069,-0.9069,-0.8917,-0.8466,-0.8318,-0.8246,-0.794,-0.794,-0.7863,-0.7629,-0.7399,-0.7092,-0.6707,-0.6325,-0.6022,-0.5944,-0.5789,-0.5553,-0.5165,-0.5473,-0.5967,-0.6691,-0.7646,-0.8404,-0.8777,-0.9428,-0.9831,-0.9831,-0.9582,-0.9604,-0.9819,-0.9659,-0.968,-0.9814,-1.0062,-1.01,-1.0014,-1.0173,-1.0212,-1.0212,-1.0381,-1.0428,-1.0262,-1.0293,-1.0143]},{"header":{"parameterUnit":"m.s-1","parameterCategory":1,"la1":30.6,"la2":29.2853,"lo1":-89.7004,"lo2":-87.6739,"dy":0.0162,"dx":0.0183,"nx":112,"ny":82,"refTime":"2024-06-10T00:00:00:Z","depth":0,"parameterNumber":3,"parameterNumberName":"V-component_of_WINDS"},"data":[0.0,0.0,0.0,0.0,0.0,0.0,0.0,0.0,0.0,0.0,0.0,0.0,0.0,0.0,0.0,0.0,0.0,0.0,0.0,0.0,0.0,0.0,0.0,0.0,0.0,0.0,0.0,0.0,0.0,0.0,0.0,0.0,0.0,0.0,0.0,0.0,0.0,0.0,0.0,0.0,0.0,0.0,0.0,0.0,0.0,0.0,0.0,0.0,0.0,0.0,0.0,0.0,0.0,0.0,0.0,0.0,0.0,0.0,0.0,0.0,0.0,0.0,0.0,0.0,0.0,0.0,0.0,0.0,0.0,0.0,0.0,0.0,0.0,0.0,0.0,0.0,0.0,0.0,0.0,0.0,0.0,0.0,0.0,0.0,0.0,0.0,0.0,0.0,0.0,0.0,0.0,0.3459,0.3335,0.3108,0.2792,0.2379,0.1929,0.154,0.0,0.0,0.0,0.0,0.0,0.0,0.0,0.0,0.0,0.0,0.0,0.0,0.0,0.0,0.0,0.0,0.0,0.0,0.0,0.0,0.0,0.0,0.0,0.0,0.0,0.0,0.0,0.0,0.0,0.0,0.0,0.0,0.0,0.0,0.0,0.0,0.0,0.0,0.0,0.0,0.0,0.0,0.0,0.0,0.0,0.0,0.0,0.0,0.0,0.0,0.0,0.0,0.0,0.0,0.0,0.0,0.0,0.0,0.0,0.0,0.0,0.0,0.0,0.0,0.0,0.0,0.0,0.0,0.0,0.0,0.0,0.0,0.0,0.0,0.0,0.0,0.0,0.0,0.0,0.0,0.0,0.0,0.0,0.0,0.0,0.0,0.0,0.0,0.0,0.0,0.0,0.0,0.0,0.0,0.0,0.0,0.0,0.0,0.0,0.0,0.0,0.0,0.0,0.0,0.3698,0.3878,0.3675,0.3335,0.2781,0.2362,0.1951,0.1607,0.0,0.0,0.0,0.0,0.0,0.0,0.0,0.0,0.0,0.0,0.0,0.0,0.0,0.0,0.0,0.0,0.0,0.0,0.0,0.0,0.0,0.0,0.0,0.0,0.0,0.0,0.0,0.0,0.0,0.0,0.0,0.0,0.0,0.0,0.0,0.0,0.0,0.0,0.0,0.0,0.0,0.0,0.0,0.0,0.0,0.0,0.0,0.0,0.0,0.0,0.0,0.0,0.0,0.0,0.0,0.0,0.0,0.0,0.0,0.0,0.0,0.0,0.0,0.0,0.0,0.0,0.0,0.0,0.0,0.0,0.0,0.0,0.0,0.0,0.0,0.0,0.0,0.0,0.0,0.0,0.0,0.0,0.0,0.0,0.0,0.0,0.0,0.0,0.0,0.0,0.0,0.0,0.0,0.0,0.0,0.0,0.0,0.0,0.0,0.0,0.0,0.0,0.0,0.3908,0.4084,0.4105,0.3784,0.336,0.2854,0.2417,0.2052,0.1758,0.1692,0.0,0.0,0.0,0.0,0.0,0.0,0.0,0.0,0.0,0.0,0.0,0.0,0.0,0.0,0.0,0.0,0.0,0.0,0.0,0.0,0.0,0.0,0.0,0.0,0.0,0.0,0.0,0.0,0.0,0.0,0.0,0.0,0.0,0.0,0.0,0.0,0.0,0.0,0.0,0.0,0.0,0.0,0.0,0.0,0.0,0.0,0.0,0.0,0.0,0.0,0.0,0.0,0.0,0.0,0.0,0.0,0.0,0.0,0.0,0.0,0.0,0.0,0.0,0.0,0.0,0.0,0.0,0.0,0.0,0.0,0.0,0.0,0.0,0.0,0.0,0.0,0.0,0.0,0.0,0.0,0.0,0.0,0.0,0.0,0.0,0.0,0.0,0.0,0.0,0.0,0.0,0.0,0.0,0.0,0.0,0.0,0.0,0.0,0.0,0.0,0.0,0.0,0.4133,0.4292,0.4227,0.3802,0.3357,0.2961,0.2517,0.2145,0.1982,0.1939,0.0,0.0,0.0,0.0,0.0,0.0,0.0,0.0,0.0,0.0,0.0,0.0,0.0,0.0,0.0,0.0,0.0,0.0,0.0,0.0,0.0,0.0,0.0,0.0,0.0,0.0,0.0,0.0,0.0,0.0,0.0,0.0,0.0,0.0,0.0,0.0,0.0,0.0,0.0,0.0,0.0,0.0,0.0,0.0,0.0,0.0,0.0,0.0,0.0,0.0,0.0,0.0,0.0,0.0,0.0,0.0,0.0,0.0,0.0,0.0,0.0,0.0,0.0,0.0,0.0,0.0,0.0,0.0,0.0,0.0,0.0,0.0,0.0,0.0,0.0,0.0,0.0,0.0,0.0,0.0,0.0,0.0,0.0,0.0,0.0,0.0,0.0,0.0,0.0,0.0,0.0,0.0,0.0,0.0,0.0,0.0,0.0,0.0,0.0,0.0,0.0,0.0,0.3971,0.408,0.4204,0.3741,0.3299,0.2905,0.2572,0.234,0.2203,0.2222,0.0,0.0,0.0,0.0,0.0,0.0,0.0,0.0,0.0,0.0,0.0,0.0,0.0,0.0,0.0,0.0,0.0,0.0,0.0,0.0,0.0,0.0,0.0,0.0,0.0,0.0,0.0,0.0,0.0,0.0,0.0,0.0,0.0,0.0,0.0,0.0,0.0,0.0,0.0,0.0,0.0,0.0,0.0,0.0,0.0,0.0,0.0,0.0,0.0,0.0,0.0,0.0,0.0,0.0,0.0,0.0,0.0,0.0,0.0,0.0,0.0,0.0,0.0,0.0,0.0,0.0,0.0,0.0,0.0,0.0,0.0,0.0,0.0,0.0,0.0,0.0,0.0,0.0,0.0,0.0,0.0,0.0,0.0,0.0,0.0,0.0,0.0,0.0,0.0,0.0,0.0,0.0,0.0,0.0,0.0,0.0,0.0,0.0,0.0,0.0,0.0,0.0,0.3595,0.367,0.0,0.3466,0.3188,0.3019,0.2783,0.2635,0.2655,0.0,0.0,0.0,0.0,0.0,0.0,0.0,0.0,0.0,0.0,0.0,0.0,0.0,0.0,0.0,0.0,0.0,0.0,0.0,0.0,0.0,0.0,0.0,0.0,0.0,0.0,0.0,0.0,0.0,0.0,0.0,0.0,0.0,0.0,0.0,0.0,0.0,0.0,0.0,0.0,0.0,0.0,0.0,0.0,0.0,0.0,0.0,0.0,0.0,0.0,0.0,0.0,0.0,0.0,0.0,0.0,0.0,0.0,0.0,0.0,0.0,0.0,0.0,0.0,0.0,0.0,0.0,0.0,0.0,0.0,0.0,0.0,0.0,0.0,0.0,0.0,0.0,0.0,0.0,0.0,0.0,0.0,0.0,0.0,0.0,0.0,0.0,0.0,0.0,0.0,0.0,0.0,0.0,0.0,0.0,0.0,0.0,0.0,0.0,0.0,0.0,0.0,0.3043,0.3119,0.3259,0.0,0.3241,0.3074,0.3074,0.2992,0.2924,0.2923,0.0,0.0,0.0,0.0,0.0,0.0,0.0,0.0,0.0,0.0,0.0,0.0,0.0,0.0,0.0,0.0,0.0,0.0,0.0,0.0,0.0,0.0,0.0,0.0,0.0,0.0,0.0,0.0,0.0,0.0,0.0,0.0,0.0,0.0,0.0,0.0,0.0,0.0,0.0,0.0,0.0,0.0,0.0,0.0,0.0,0.0,0.0,0.0,0.0,0.0,0.0,0.0,0.0,0.0,0.0,0.0,0.0,0.0,0.0,0.0,0.0,0.0,0.0,0.0,0.0,0.0,0.0,0.0,0.0,0.0,0.0,0.0,0.0,0.0,0.0,0.0,0.0,0.0,0.0,0.0,0.0,0.0,0.0,0.0,0.0,0.0,0.0,0.0,0.0,0.0,0.0,0.0,0.0,0.0,0.0,0.0,0.0,0.0,0.0,0.0,0.0,0.0,0.2464,0.2644,0.285,0.3053,0.3074,0.3074,0.313,0.3146,0.3163,0.0,0.0,0.0,0.0,0.0,0.0,0.0,0.0,0.0,0.0,0.0,0.0,0.0,0.0,0.0,0.0,0.0,0.0,0.0,0.0,0.0,0.0,0.0,0.0,0.0,0.0,0.0,0.0,0.0,0.0,0.0,0.0,0.0,0.0,0.0,0.0,0.0,0.0,0.0,0.0,0.0,0.0,0.0,0.0,0.0,0.0,0.0,0.0,0.0,0.0,0.0,0.0,0.0,0.0,0.0,0.0,0.0,0.0,0.0,0.0,0.0,0.0,0.0,0.0,0.0,0.0,0.0,0.0,0.0,0.0,0.0,0.0,0.0,0.0,0.0,0.0,0.0,0.0,0.0,0.0,0.0,0.0,0.0,0.0,0.0,0.0,0.0,0.0,0.0,0.0,0.0,0.0,0.0,0.0,0.0,0.0,0.0,0.0,0.0,0.0,0.0,0.0,0.0,0.1857,0.2021,0.2179,0.2445,0.2575,0.2854,0.3299,0.3305,0.3398,0.3599,0.0,0.0,0.0,0.0,0.0,0.0,0.0,0.0,0.0,0.0,0.0,0.0,0.0,0.0,0.0,0.0,0.0,0.0,0.0,0.0,0.0,0.0,0.0,0.0,0.0,0.0,0.0,0.0,0.0,0.0,0.0,0.0,0.0,0.0,0.0,0.0,0.0,0.0,0.0,0.0,0.0,0.0,0.0,0.0,0.0,0.0,0.0,0.0,0.0,0.0,0.0,0.0,0.0,0.0,0.0,0.0,0.0,0.0,0.0,0.0,0.0,0.0,0.0,0.0,0.0,0.0,0.0,0.0,0.0,0.0,0.0,0.0,0.0,0.0,0.0,0.0,0.0,0.0,0.0,0.0,0.0,0.0,0.0,0.0,0.0,0.0,0.0,0.0,0.0,0.0,0.0,0.0,0.0,0.0,0.0,0.0,0.0,0.0,0.0,0.0,0.0,0.0,0.1418,0.1588,0.1818,0.2004,0.2354,0.2745,0.3188,0.335,0.3521,0.3805,0.0,0.0,0.0,0.0,0.0,0.0,0.0,0.0,0.0,0.0,0.0,0.0,0.0,0.0,0.0,0.0,0.0,0.0,0.0,0.0,0.0,0.0,0.0,0.0,0.0,0.0,0.0,0.0,0.0,0.0,0.0,0.0,0.0,0.0,0.0,0.0,0.0,0.0,0.0,0.0,0.0,0.0,0.0,0.0,0.0,0.0,0.0,0.0,0.0,0.0,0.0,0.0,0.0,0.0,0.0,0.0,0.0,0.0,0.0,0.0,0.0,0.0,0.0,0.0,0.0,0.0,0.0,0.0,0.0,0.0,0.0,0.0,0.0,0.0,0.0,0.0,0.0,0.0,0.0,0.0,0.0,0.0,0.0,0.0,0.0,0.0,0.0,0.0,0.0,0.0,0.0,0.0,0.0,0.0,0.0,0.0,0.0,0.0,0.0,0.0,0.0,0.0,0.1069,0.1399,0.1714,0.1783,0.23,0.2745,0.2907,0.3307,0.361,0.3734,0.0,0.0,0.0,0.0,0.0,0.0,0.0,0.0,0.0,0.0,0.0,0.0,0.0,0.0,0.0,0.0,0.0,0.0,0.0,0.0,0.0,0.0,0.0,0.0,0.0,0.0,0.0,0.0,0.0,0.0,0.0,0.0,0.0,0.0,0.0,0.0,0.0,0.0,0.0,0.0,0.0,0.0,0.0,0.0,0.0,0.0,0.0,0.0,0.0,0.0,0.0,0.0,0.0,0.0,0.0,0.0,0.0,0.0,0.0,0.0,0.5896,0.0,0.0,0.0,0.0,0.0,0.0,0.0,0.0,0.0,0.0,0.0,0.0,0.0,0.0,0.0,0.0,0.0,0.0,0.0,0.0,0.0,0.0,0.0,0.0,0.0,0.0,0.0,0.0,0.0,0.0,0.0,0.0,0.0,0.0,0.0,0.0,0.0,0.0,0.0,0.0,0.0,0.0883,0.1179,0.1453,0.1616,0.2018,0.2517,0.3019,0.3361,0.3652,0.3932,0.0,0.0,0.0,0.0,0.0,0.0,0.0,0.0,0.0,0.0,0.0,0.0,0.0,0.0,0.0,0.0,0.0,0.0,0.0,0.0,0.0,0.0,0.0,0.0,0.0,0.0,0.0,0.0,0.0,0.0,0.0,0.0,0.0,0.0,0.0,0.0,0.0,0.0,0.0,0.0,0.0,0.0,0.0,0.0,0.0,0.0,0.0,0.0,0.0,0.0,0.0,0.0,0.0,0.0,0.0,0.0,0.0,0.0,0.0,0.0,0.0,0.6922,0.0,0.0,0.0,0.0,0.0,0.0,0.0,0.0,0.0,0.0,0.0,0.0,0.0,0.0,0.0,0.0,0.0,0.0,0.0,0.0,0.0,0.0,0.0,0.0,0.0,0.0,0.0,0.0,0.0,0.0,0.0,0.0,0.0,0.0,0.0,0.0,0.0,0.0,0.0,0.0,0.0894,0.1152,0.1376,0.1563,0.1962,0.2408,0.2854,0.3249,0.3596,0.3878,0.3798,0.0,0.0,0.0,0.0,0.0,0.0,0.0,0.0,0.0,0.0,0.0,0.0,0.0,0.0,0.0,0.0,0.0,0.0,0.0,0.0,0.0,0.0,0.0,0.0,0.0,0.0,0.0,0.0,0.0,0.0,0.0,0.0,0.0,0.0,0.0,0.0,0.0,0.0,0.0,0.0,0.0,0.0,0.0,0.0,0.0,0.0,0.0,0.0,0.0,0.0,0.0,0.0,0.0,0.0,0.9477,1.0121,1.0181,1.0301,1.0519,0.9592,0.8934,0.848,0.0,0.0,0.0,0.0,0.0,0.0,0.0,0.0,0.0,0.0,0.0,0.0,0.0,0.0,0.0,0.0,0.0,0.0,0.0,0.0,0.0,0.0,0.0,0.0,0.0,0.3912,0.3883,0.0,0.0,0.0,0.0,0.0,0.0,0.0,0.0,0.0,0.0,0.0,0.0,0.1,0.1177,0.1404,0.1567,0.1962,0.2352,0.2635,0.3079,0.3416,0.3667,0.3541,0.3333,0.0,0.0,0.0,0.0,0.0,0.0,0.0,0.0,0.0,0.0,0.0,0.0,0.0,0.0,0.0,0.0,0.0,0.0,0.0,0.0,0.0,0.0,0.0,0.0,0.0,0.0,0.0,0.0,0.0,0.0,0.0,0.0,0.5203,0.4514,0.0,0.0,0.0,0.0,0.0,0.0,0.0,0.0,0.0,0.0,0.0,0.0,0.0,0.0,0.8352,0.8878,0.9507,1.0257,1.0591,1.0933,1.1312,1.1555,1.1837,1.2017,1.2067,0.0,0.9475,0.8729,0.0,0.0,0.0,0.0,0.0,0.0,0.0,0.0,0.0,0.0,0.0,0.0,0.0,0.0,0.0,0.0,0.0,0.0,0.0,0.0,0.0,0.0,0.3852,0.4047,0.4294,0.44,0.0,0.3566,0.3202,0.2844,0.0,0.0,0.0,0.0,0.0,0.0,0.0,0.0,0.0992,0.1299,0.1513,0.1567,0.1962,0.2296,0.2521,0.291,0.314,0.3192,0.3219,0.3136,0.2851,0.2567,0.0,0.0,0.0,0.0,0.0,0.0,0.0,0.0,0.0,0.0,0.0,0.0,0.0,0.0,0.0,0.0,0.0,0.0,0.0,0.0,0.0,0.0,0.0,0.0,0.0,0.0,0.0,0.0,0.0,0.5272,0.565,0.5145,0.5438,0.5474,0.0,0.0,0.0,0.0,0.0,0.0,0.0,0.0,0.0,0.7746,0.849,0.9204,0.9897,1.0228,1.0842,1.1694,1.1639,1.1878,1.2385,1.2406,1.2615,1.2915,1.276,1.221,1.1363,1.028,0.9148,0.8037,0.0,0.0,0.0,0.0,0.0,0.6814,0.7505,0.0,0.0,0.0,0.0,0.0,0.0,0.0,0.0,0.0,0.0,0.0,0.0,0.0,0.0,0.4732,0.4842,0.4799,0.4595,0.4193,0.3577,0.0,0.2421,0.2001,0.1439,0.0,0.0,0.0,0.0,0.0,0.1293,0.145,0.1602,0.1682,0.2018,0.2296,0.2465,0.28,0.3005,0.312,0.3074,0.2966,0.2697,0.2532,0.232,0.0,0.0,0.0,0.0,0.0,0.0,0.0,0.0,0.0,0.0,0.0,0.0,0.0,0.0,0.0,0.0,0.0,0.0,0.0,0.0,0.0,0.0,0.0,0.0,0.0,0.0,0.0,0.0,0.5689,0.6201,0.577,0.6049,0.599,0.0,0.0,0.0,0.0,0.0,0.0,0.6798,0.7493,0.8229,0.8991,0.9925,1.0758,1.1368,1.1713,1.2245,1.2822,1.2578,1.2691,1.3148,1.3064,1.3206,1.3506,1.3208,1.301,1.2821,1.1441,1.0357,0.9459,0.8728,0.8133,0.7729,0.8014,0.7998,0.7903,0.8534,0.8479,0.8189,0.83,0.0,0.6103,0.5615,0.0,0.0,0.0,0.0,0.4059,0.4541,0.0,0.4939,0.5289,0.5267,0.509,0.5081,0.4714,0.4027,0.0,0.258,0.2136,0.1462,0.0,0.0,0.0,0.0,0.1448,0.1541,0.1661,0.1762,0.1819,0.2058,0.2232,0.2384,0.261,0.2772,0.2854,0.2819,0.2693,0.247,0.2395,0.222,0.179,0.0,0.0,0.0,0.0,0.0,0.0,0.0,0.0,0.0,0.0,0.0,0.0,0.0,0.0,0.0,0.0,0.0,0.0,0.0,0.0,0.0,0.0,0.0,0.0,0.0,0.0,0.0,0.0,0.0,0.6343,0.6876,0.0,0.0,0.0,0.0,0.6367,0.6272,0.6688,0.7956,0.8108,0.8789,1.0051,1.0962,1.1858,1.2687,1.3621,1.3909,1.3529,1.3501,1.3418,1.3276,1.3498,1.3697,1.3865,1.3868,1.3603,1.3177,1.1874,1.1069,1.0555,0.9951,0.9407,0.8992,0.893,0.8939,0.893,0.9047,0.9202,0.936,0.8907,0.7586,0.6066,0.5401,0.478,0.0,0.0,0.4667,0.4711,0.499,0.516,0.5263,0.5278,0.5425,0.5386,0.5171,0.4864,0.4436,0.0,0.2984,0.2382,0.1798,0.0,0.1406,0.146,0.161,0.1703,0.1706,0.1919,0.2053,0.1936,0.205,0.2182,0.2118,0.223,0.2317,0.2244,0.2169,0.2092,0.2017,0.2108,0.2015,0.1789,0.1741,0.0,0.0,0.0,0.0,0.0,0.0,0.0,0.0,0.0,0.0,0.0,0.0,0.0,0.0,0.0,0.0,0.0,0.0,0.0,0.0,0.0,0.0,0.0,0.0,0.0,0.0,0.0,0.0,0.7224,0.7395,0.0,0.0,0.6302,0.6513,0.7058,0.7258,0.7751,0.8598,0.9319,1.0214,1.1246,1.2247,1.3081,1.3687,1.4138,1.4322,1.4274,1.3974,1.3859,1.4012,1.3835,1.3925,1.4213,1.3573,1.3375,1.3317,1.2013,1.1171,1.0594,0.9801,0.9253,0.8865,0.8727,0.8771,0.8847,0.86,0.8942,0.9379,0.8673,0.75,0.6266,0.5936,0.5353,0.4829,0.5022,0.518,0.5265,0.5525,0.5539,0.56,0.5849,0.572,0.5632,0.5803,0.55,0.4942,0.4196,0.334,0.2658,0.2125,0.1978,0.2009,0.2025,0.2156,0.2289,0.2402,0.2272,0.2123,0.2122,0.2143,0.221,0.2185,0.2261,0.2284,0.2257,0.2186,0.2111,0.2092,0.2043,0.1928,0.1667,0.1707,0.1451,0.0,0.0,0.0,0.0,0.0,0.0,0.0,0.0,0.0,0.0,0.0,0.0,0.0,0.0,0.0,0.0,0.0,0.0,0.0,0.0,0.0,0.0,0.0,0.0,0.0,0.0,0.8837,0.8044,0.8146,0.7982,0.7093,0.7068,0.7191,0.739,0.7838,0.832,0.8885,0.9851,1.0804,1.1647,1.2624,1.3413,1.3842,1.4166,1.4344,1.4159,1.3797,1.3742,1.3762,1.359,1.3614,1.3832,1.3301,1.309,1.2969,1.1817,1.0989,1.0369,0.9949,0.9536,0.9078,0.8867,0.8807,0.8781,0.8414,0.8671,0.9036,0.8167,0.7342,0.6585,0.6291,0.5797,0.5329,0.548,0.5591,0.5698,0.5914,0.595,0.5977,0.6234,0.6025,0.5789,0.6103,0.564,0.4966,0.4432,0.3739,0.3048,0.2528,0.2435,0.2533,0.2737,0.2771,0.2816,0.2937,0.2625,0.2377,0.2254,0.2148,0.2089,0.2067,0.2027,0.1995,0.1975,0.1973,0.1908,0.1844,0.1834,0.1749,0.1497,0.1239,0.0803,0.0173,0.0,0.0,0.0,0.0,0.0,0.0,0.0,0.0,0.0,0.0,0.0,0.0,0.0,0.0,0.0,0.0,0.0,0.0,0.0,0.0,0.0,0.0,0.0,0.87,0.934,0.9619,0.881,0.9138,0.9026,0.7871,0.7519,0.7436,0.7534,0.8063,0.8488,0.8929,0.9651,1.0408,1.1292,1.213,1.272,1.3227,1.3961,1.3912,1.3193,1.3211,1.2987,1.265,1.2798,1.2868,1.2883,1.3107,1.2806,1.2204,1.1348,1.0521,0.9924,1.0423,1.0227,0.973,0.9394,0.905,0.8709,0.8574,0.8503,0.8362,0.7668,0.7304,0.7015,0.632,0.596,0.584,0.5993,0.6037,0.6071,0.622,0.6261,0.6261,0.6261,0.6099,0.586,0.586,0.5162,0.4462,0.4384,0.4063,0.3578,0.3017,0.2883,0.2965,0.3565,0.3486,0.0,0.3234,0.2972,0.2715,0.2331,0.2058,0.1868,0.1816,0.1616,0.1469,0.1429,0.1385,0.1399,0.1298,0.1472,0.1471,0.1265,0.0423,-0.0254,-0.0773,0.0,0.0,0.0,0.0,0.0,0.0,0.0,0.0,0.0,0.0,0.0,0.0,0.0,0.0,0.0,0.0,0.0,0.0,0.0,0.0,0.0,0.0,0.9703,0.9249,0.9361,0.953,0.952,0.8932,0.8591,0.8646,0.818,0.8148,0.8838,0.8788,0.9069,0.9863,1.0395,1.1037,1.1744,1.2534,1.3201,1.3626,1.4083,1.4129,1.384,1.3591,1.3323,1.3259,1.2984,1.2919,1.2846,1.2485,1.2144,1.1774,1.081,1.0118,0.9638,0.9159,0.878,0.8418,0.7929,0.765,0.7588,0.8292,0.8009,0.7468,0.7603,0.7194,0.6637,0.6514,0.6204,0.6,0.6156,0.6196,0.6207,0.6251,0.6028,0.5792,0.5944,0.5709,0.5476,0.5634,0.5479,0.5168,0.4698,0.4392,0.4004,0.3341,0.324,0.3352,0.3857,0.3966,0.0,0.3876,0.3385,0.2961,0.2538,0.2202,0.1921,0.1766,0.1664,0.1571,0.1561,0.1489,0.1505,0.1492,0.1182,0.0726,0.0105,-0.0401,-0.1139,0.0,0.0,0.0,0.0,0.0,0.0,0.0,0.0,0.0,0.0,0.0,0.0,0.0,0.0,0.0,0.0,0.0,0.0,0.0,0.0,0.0,0.0,1.0161,1.0647,1.0336,1.0275,1.0166,1.0009,0.9467,0.9199,0.9302,0.9238,0.9202,0.9326,0.9651,0.9846,0.9984,1.0593,1.1101,1.1537,1.2364,1.2966,1.3178,1.3622,1.3695,1.3324,1.3025,1.2806,1.2579,1.2298,1.2077,0.0,1.1632,1.1409,1.1111,1.0293,0.9771,0.0,0.0,0.0,0.0,0.0,0.7245,0.7249,0.7759,0.7539,0.7118,0.7214,0.6884,0.647,0.6353,0.6113,0.599,0.6002,0.6025,0.6025,0.6025,0.5792,0.5637,0.5712,0.5553,0.5321,0.5479,0.5246,0.4859,0.4545,0.0,0.0,0.3615,0.3611,0.3823,0.429,0.4358,0.4266,0.4073,0.3479,0.2948,0.2623,0.2113,0.1677,0.1604,0.1151,0.0,0.0,0.0,0.0726,0.1097,0.0678,0.0,0.0,0.0,0.0,0.0,0.0,0.0,0.0,-0.5238,-0.5908,0.0,0.0,0.0,0.0,0.0,0.0,0.0,0.0,0.0,0.0,0.0,0.0,0.0,0.0,0.0,0.0,1.1362,1.1684,1.1643,1.1447,1.1071,1.0414,1.03,1.0187,0.9844,1.0367,1.039,0.9539,1.0479,1.0629,0.9807,0.0,0.0,0.0,0.0,1.2224,1.2224,1.2826,1.2893,1.2224,1.2077,1.1781,1.1409,1.1111,1.0887,1.0738,1.0663,1.0513,1.0288,0.969,0.9322,0.9094,0.8703,0.8403,0.8025,0.7638,0.7484,0.0,0.0,0.0,0.0,0.6641,0.6483,0.6405,0.5941,0.5864,0.5864,0.5637,0.5637,0.5637,0.5637,0.5559,0.5559,0.5559,0.5401,0.5243,0.5243,0.4621,0.4157,0.4079,0.361,0.3295,0.3684,0.3921,0.4235,0.4621,0.4709,0.4528,0.3973,0.3433,0.2874,0.2439,0.0,0.0,0.1102,0.022,0.0,0.0735,-0.0286,-0.0619,0.0131,-0.019,-0.0614,-0.1132,-0.2327,-0.311,-0.3449,-0.4675,-0.6151,-0.7756,-0.7245,-0.7516,0.0,0.0,0.0,0.0,0.0,0.0,0.0,0.0,0.0,0.0,0.0,0.0,0.0,0.0,0.0,1.0716,1.1699,1.224,1.2108,1.1759,1.1291,1.0568,0.9945,0.9821,1.035,1.026,1.0314,1.0698,1.0723,1.0663,1.0564,1.0714,0.0,1.0588,1.1558,1.1929,1.1558,1.2526,1.2673,1.2077,0.0,0.0,1.1409,1.0663,1.0368,1.0293,0.983,0.9453,0.9226,0.878,0.8322,0.7868,0.7953,0.7795,0.7638,0.7561,0.7484,0.7484,0.7257,0.6949,0.6641,0.6173,0.5938,0.578,0.5473,0.5556,0.0,0.5637,0.5637,0.5637,0.5637,0.5479,0.5321,0.5321,0.5168,0.5015,0.4857,0.4543,0.4309,0.4157,0.3684,0.3448,0.3763,0.3841,0.3997,0.4384,0.4537,0.4346,0.3928,0.3687,0.2958,0.1432,0.0938,0.0309,-0.0696,-0.1082,-0.1237,-0.1082,-0.1406,-0.1563,-0.1378,-0.1811,-0.1825,-0.1458,-0.2093,-0.2993,-0.421,-0.5589,-0.7365,-0.9511,-0.924,-0.9449,0.0,0.0,0.0,0.0,0.0,0.0,0.0,0.0,0.0,0.0,0.0,0.8853,0.0,0.0,1.1243,1.1992,1.253,1.2787,1.2601,1.2332,1.1779,1.0971,1.061,1.0417,1.0444,1.0907,1.1029,1.0717,1.0736,1.0721,1.0425,1.0414,1.0336,1.0188,1.1045,1.1484,1.126,1.215,1.2378,1.2003,1.1781,1.1409,1.0962,1.0438,0.9986,0.9609,0.9301,0.9003,0.8627,0.8169,0.7714,0.7334,0.7257,0.7334,0.7484,0.7484,0.7407,0.7253,0.6868,0.6479,0.6173,0.5476,0.524,0.5085,0.4771,0.4774,0.4851,0.4698,0.4701,0.4701,0.4701,0.4621,0.454,0.4384,0.4307,0.4153,0.3915,0.3841,0.3843,0.3688,0.3057,0.2743,0.3372,0.3215,0.3214,0.3837,0.3995,0.3897,0.3575,0.3036,0.2302,0.1463,0.0482,-0.0317,-0.102,-0.1958,-0.2662,-0.3127,-0.3549,-0.3437,-0.2711,-0.2498,-0.2025,-0.1317,-0.2238,-0.3526,-0.5142,-0.6396,-0.8127,-1.0261,-1.1212,-1.1719,0.0,0.0,0.0,0.0,0.0,0.0,0.0,0.0,0.7602,0.8047,0.9046,1.0092,1.1057,1.1584,1.2261,1.3222,1.3331,1.3258,1.3141,1.2848,1.2388,1.1676,1.1428,1.11,1.0412,1.1328,1.1532,1.038,1.0654,1.0629,1.0061,0.9829,0.9739,0.971,1.049,1.0962,1.0962,1.1706,1.2003,1.1855,1.1632,1.1111,1.0438,0.9986,0.9458,0.8846,0.8694,0.8394,0.8021,0.7638,0.7257,0.703,0.6718,0.6868,0.7173,0.7173,0.7099,0.6872,0.6167,0.578,0.5473,0.4776,0.4465,0.4307,0.399,0.3912,0.3834,0.3682,0.3684,0.3604,0.3448,0.3446,0.3368,0.2973,0.2895,0.2817,0.2582,0.2585,0.2666,0.2588,0.1881,0.1489,0.2195,0.2038,0.2194,0.3136,0.344,0.3412,0.3008,0.2229,0.1575,0.1139,-0.0162,-0.1279,-0.1803,-0.3051,-0.4144,-0.5076,-0.5506,-0.5223,-0.4,-0.3178,-0.2338,-0.1613,-0.2688,-0.4231,-0.5981,-0.7163,-0.8803,-1.0857,-1.2928,-1.3787,0.6658,0.6654,0.667,0.6369,0.6606,0.7007,0.0,0.0,0.8999,0.9956,1.0545,1.1217,1.2175,1.2375,1.2638,1.331,1.3423,1.3511,1.3708,1.3287,1.2846,1.2684,1.1745,1.1008,1.0585,1.0829,1.0819,1.0419,1.0365,1.0101,0.9663,0.9478,0.9285,0.911,0.9895,1.0293,1.0293,1.1111,1.1484,1.1484,1.0887,1.0513,1.0218,0.8917,0.8313,0.8161,0.7476,0.7019,0.6791,0.7103,0.6876,0.6416,0.6714,0.6556,0.6096,0.6096,0.6093,0.5941,0.5315,0.4849,0.4462,0.4075,0.3604,0.3288,0.321,0.321,0.321,0.321,0.321,0.2974,0.2268,0.2111,0.1876,0.1092,0.0935,0.0858,0.0625,0.0469,0.0313,0.0156,-0.0156,-0.0391,-0.0469,0.0156,0.1175,0.2746,0.32,0.3003,0.2275,0.1873,0.0977,-0.0974,-0.1831,-0.3057,-0.4919,-0.5392,-0.5938,-0.663,-0.6184,-0.5738,-0.5222,-0.4734,-0.413,-0.3222,-0.3556,-0.4616,-0.6322,-0.7529,-0.9485,-1.2035,-1.4206,-1.5181,0.7399,0.7286,0.0,0.0,0.697,0.7392,0.7961,0.8493,0.9193,1.0155,1.0835,1.1449,1.2077,1.2504,1.2879,0.0,1.3296,1.339,1.3476,1.3302,1.3036,1.2574,1.1936,1.1383,1.1027,1.1143,1.0989,1.0225,0.9947,0.9585,0.9141,0.8998,0.8742,0.8445,0.9015,0.9463,0.9695,1.0368,1.0663,1.0513,1.0368,0.9836,0.8922,0.8389,0.7851,0.7395,0.6791,0.6486,0.6412,0.6335,0.6103,0.587,0.5941,0.5705,0.5392,0.5783,0.5783,0.5476,0.4849,0.4462,0.4075,0.3294,0.2665,0.2115,0.1801,0.1409,0.1096,0.1017,0.0939,0.0861,0.0548,0.0469,0.0313,-0.0156,-0.0234,-0.0313,-0.0548,-0.0939,-0.1409,-0.1955,-0.2426,-0.2974,-0.3826,-0.2575,-0.1561,-0.1868,-0.0079,0.1278,0.0972,0.0162,-0.0972,-0.2516,-0.3412,-0.453,-0.5854,-0.6475,-0.6942,-0.7249,-0.7559,-0.7281,-0.6222,-0.6436,-0.6139,-0.5213,-0.5005,-0.5843,-0.7811,-0.8634,-1.0375,-1.2975,-1.5247,-1.7081,0.7514,0.0,0.0,0.6999,0.7149,0.7564,0.8138,0.8645,0.9269,1.0293,1.0842,1.1309,1.1842,1.2354,1.2712,1.2712,1.2907,1.3094,1.318,1.3028,1.2802,1.2354,1.194,1.156,1.1085,1.1087,1.0695,0.974,0.9332,0.8952,0.846,0.8209,0.7992,0.7812,0.8174,0.8551,0.9018,0.9463,0.969,0.9614,0.9609,0.8998,0.8008,0.7778,0.7322,0.6633,0.6331,0.618,0.6106,0.5715,0.5479,0.5401,0.5243,0.501,0.4851,0.5243,0.5162,0.4696,0.4151,0.3682,0.3214,0.2273,0.1568,0.0862,0.0313,-0.0157,-0.0627,-0.0783,-0.0784,-0.0862,-0.1097,-0.1175,-0.1331,-0.1723,-0.1801,-0.1957,-0.2113,-0.2519,-0.3077,-0.399,-0.4555,-0.5352,-0.6707,-0.5594,-0.4886,-0.6123,-0.4496,-0.2659,-0.1436,-0.2399,-0.3521,-0.4407,-0.5283,-0.6157,-0.7003,-0.7702,-0.8089,-0.8241,-0.8846,-0.8646,-0.7354,-0.7852,-0.7739,-0.6946,-0.6523,-0.727,-0.9197,-0.9868,-1.1473,-1.3876,-1.6294,-1.8693,0.0,0.0,0.7231,0.6807,0.7038,0.7545,0.8182,0.8734,0.9426,1.0739,1.0894,1.101,1.1665,1.1791,1.1925,1.211,1.2208,1.249,1.292,1.2438,1.2094,1.2263,1.1832,1.1228,0.0,1.0086,0.9575,0.8882,0.8436,0.8031,0.7491,0.7162,0.7041,0.7242,0.7403,0.7791,0.8403,0.8479,0.8627,0.9003,0.8241,0.7859,0.7783,0.7022,0.6405,0.5938,0.5941,0.5789,0.5637,0.5401,0.5162,0.5004,0.4776,0.4545,0.4235,0.4235,0.3919,0.3368,0.2981,0.2196,0.1332,0.0784,0.0157,-0.0548,-0.0784,-0.1019,-0.1254,-0.1254,-0.1254,-0.1489,-0.2275,-0.2585,-0.2974,-0.3763,-0.4153,-0.4307,-0.4307,-0.4386,-0.4903,-0.617,-0.6485,-0.7081,-0.8599,-0.8784,-0.8769,-0.8529,-0.997,-0.9523,-0.526,-0.5665,-0.6531,-0.7073,-0.7617,-0.8309,-0.9145,-0.9448,-0.9674,-1.0067,-0.975,-0.939,-0.8941,-0.8704,-0.8422,-0.8161,-0.7947,-0.8575,-1.0173,-1.1056,-1.2663,-1.493,-1.7563,-1.9773,0.6829,0.0,0.7042,0.6694,0.6759,0.7035,0.7741,0.8047,0.8466,0.9513,0.9604,0.9726,1.0258,1.0515,1.0638,1.0668,1.1285,1.1722,1.1722,1.1995,1.1936,1.124,1.123,0.0,0.0,0.0,0.0,0.8879,0.8321,0.7877,0.7628,0.7086,0.6818,0.6784,0.671,0.6861,0.7403,0.7553,0.7625,0.7629,0.6812,0.6496,0.6556,0.6038,0.5798,0.5712,0.5395,0.524,0.5162,0.4851,0.4698,0.4626,0.3917,0.337,0.3059,0.2586,0.2116,0.1488,0.1254,0.094,0.0548,-0.0157,-0.0862,-0.1489,-0.1882,-0.235,-0.2898,-0.3444,-0.3522,-0.3756,-0.453,-0.4838,-0.4993,-0.5541,-0.5467,-0.5257,-0.5501,-0.5159,-0.5281,-0.6764,-0.7274,-0.8073,-0.9874,-1.0246,-1.049,-1.0923,-1.0049,-0.9005,-0.8067,-0.8156,-0.8321,-0.8477,-0.9326,-1.0018,-1.0248,-1.0852,-1.1162,-1.1013,-1.1533,-1.1284,-1.0064,-1.0685,-1.0704,-0.995,-1.0116,-1.0837,-1.1978,-1.3003,-1.4655,-1.7026,-1.9084,-2.0981,0.6468,0.6497,0.6555,0.6492,0.6447,0.657,0.7136,0.7338,0.7638,0.8489,0.8398,0.8311,0.8843,0.9098,0.9312,0.9323,1.0079,1.0813,1.1049,1.1265,1.1211,1.0748,1.0711,0.0,0.0,0.0,0.0,0.843,0.7754,0.7256,0.6958,0.6335,0.6058,0.6086,0.5909,0.6009,0.6398,0.6472,0.6398,0.6093,0.5638,0.5396,0.5321,0.5167,0.5083,0.5087,0.4771,0.4693,0.4696,0.399,0.4077,0.4401,0.2899,0.2036,0.1568,0.1097,0.0235,-0.0627,-0.0313,-0.0313,-0.047,-0.1254,-0.1959,-0.2508,-0.2901,-0.3448,-0.4075,-0.4543,-0.4929,-0.5237,-0.5851,-0.6157,-0.6388,-0.6773,-0.6619,-0.6493,-0.6905,-0.6468,-0.6552,-0.8371,-0.903,-0.9896,-1.1858,-1.2634,-1.3136,-1.3792,-1.2421,-1.1169,-1.0991,-1.0929,-1.0923,-1.0985,-1.1605,-1.2078,-1.2158,-1.2823,-1.3048,-1.2551,-1.3288,-1.3136,-1.1746,-1.2452,-1.2564,-1.1831,-1.2164,-1.2831,-1.3958,-1.4785,-1.6337,-1.8575,-2.0059,-2.168,0.593,0.584,0.5974,0.616,0.6157,0.6237,0.632,0.6585,0.7012,0.7665,0.7214,0.6871,0.0,0.0,0.7866,0.8017,0.8745,0.9684,1.0781,1.0287,0.9999,0.0,0.0,0.0,0.0,0.0,0.0,0.7344,0.0,0.6058,0.5493,0.4867,0.4705,0.5047,0.4942,0.5079,0.5467,0.5318,0.501,0.4623,0.4628,0.4548,0.4384,0.4389,0.4231,0.4068,0.399,0.3995,0.4001,0.2896,0.3057,0.3932,0.1646,0.0392,-0.0157,-0.0392,-0.1489,-0.2746,-0.1724,-0.1567,-0.1803,-0.2353,-0.2979,-0.3604,-0.3763,-0.4231,-0.4701,-0.4776,-0.5389,-0.6002,-0.624,-0.6703,-0.7169,-0.754,-0.777,-0.8084,-0.8479,-0.8317,-0.8761,-1.0874,-1.1673,-1.2661,-1.4643,-1.577,-1.6515,-1.6932,-1.6844,-1.6044,-1.4101,-1.406,-1.4196,-1.4364,-1.4458,-1.4561,-1.4736,-1.528,-1.5342,-1.4807,-1.5163,-1.4928,-1.4093,-1.4077,-1.3978,-1.3834,-1.4049,-1.478,-1.5955,-1.6487,-1.7715,-1.9596,-2.0482,-2.193,0.5609,0.5672,0.5894,0.5959,0.599,0.5978,0.5871,0.5955,0.6121,0.651,0.58,0.5234,0.0,0.0,0.0,0.5909,0.714,0.0,0.8368,0.921,0.0,0.9229,0.0,0.9024,0.7968,0.7427,0.0,0.0,0.5329,0.5243,0.4999,0.4151,0.3825,0.4072,0.3866,0.3837,0.399,0.4073,0.3997,0.3761,0.3669,0.3746,0.3921,0.383,0.3744,0.3839,0.2741,0.235,0.2272,0.1409,0.1018,0.0705,-0.0078,-0.1175,-0.2117,-0.2038,-0.2353,-0.2824,-0.2821,-0.2898,-0.2978,-0.3372,-0.3684,-0.3999,-0.4387,-0.4543,-0.4932,-0.6015,-0.6626,-0.7084,-0.7855,-0.847,-0.9008,-0.9453,-0.9724,-1.0119,-1.0594,-1.046,-1.0771,-1.2478,-1.405,-1.5597,-1.6969,-1.7461,-1.7862,-1.8287,-1.8355,-1.7862,-1.6453,-1.6374,-1.6504,-1.6684,-1.7086,-1.73,-1.725,-1.7445,-1.7581,-1.7445,-1.7269,-1.6896,-1.6096,-1.6354,-1.6244,-1.5652,-1.6448,-1.7248,-1.7963,-1.8434,-1.9436,-2.094,-2.1483,-2.2567,0.5244,0.5377,0.5624,0.5822,0.5771,0.561,0.5443,0.5297,0.5133,0.4854,0.4092,0.0,0.0,0.0,0.0,0.0,0.0,0.0,0.7466,0.8094,0.8321,0.0,0.8054,0.0,0.6822,0.6476,0.5636,0.0,0.4121,0.4167,0.3759,0.2887,0.2533,0.2673,0.2817,0.2947,0.2978,0.3136,0.3136,0.2899,0.2622,0.254,0.2508,0.2064,0.1823,0.18,0.0,0.0391,0.0313,-0.0235,-0.0939,-0.1568,-0.1724,-0.243,-0.3452,-0.3137,-0.337,-0.3837,-0.3992,-0.4302,-0.4611,-0.4382,-0.4309,-0.4467,-0.5082,-0.5395,-0.5705,-0.6784,-0.7621,-0.838,-0.9069,-0.99,-1.0726,-1.118,-1.1601,-1.2056,-1.2744,-1.2763,-1.3235,-1.5095,-1.6679,-1.807,-1.896,-1.9147,-1.9212,-1.9497,-1.9639,-1.9486,-1.8916,-1.8572,-1.8552,-1.894,-1.9571,-1.9876,-1.9799,-2.039,-2.0643,-2.0232,-1.9804,-1.9271,-1.8624,-1.8395,-1.8061,-1.7626,-1.8127,-1.8705,-1.9287,-1.9565,-2.0409,-2.1815,-2.2125,-2.3015,0.4714,0.4804,0.502,0.5488,0.5377,0.5154,0.4857,0.4545,0.3983,0.3068,0.0,0.1921,0.2241,0.2527,0.2798,0.3286,0.0,0.5559,0.6974,0.6724,0.6633,0.7015,0.6576,0.599,0.5586,0.5477,0.4644,0.27,0.2898,0.2809,0.2147,0.1379,0.0993,0.1168,0.1648,0.1995,0.2353,0.2275,0.2038,0.1723,0.1409,0.0939,0.0391,-0.0391,-0.1017,-0.1487,0.0,0.0,-0.188,-0.2189,-0.2738,-0.3374,-0.3215,-0.3684,-0.4465,-0.4137,-0.4525,-0.5157,-0.514,-0.5607,-0.6086,-0.5312,-0.5007,-0.5085,-0.5848,-0.6472,-0.6942,-0.7468,-0.8756,-0.9976,-1.0299,-1.1391,-1.2558,-1.2987,-1.357,-1.4224,-1.5016,-1.5528,-1.6339,-1.823,-1.9341,-2.0174,-2.0758,-2.0797,-2.0714,-2.0714,-2.0854,-2.1081,-2.1446,-2.0725,-2.0464,-2.1117,-2.1929,-2.2392,-2.2368,-2.3393,-2.3736,-2.2948,-2.2317,-2.1735,-2.1251,-2.0227,-1.9683,-1.9628,-1.9497,-1.977,-2.0355,-2.042,-2.1175,-2.2555,-2.2604,-2.3505,0.3769,0.3875,0.4023,0.3954,0.4069,0.4119,0.39,0.3385,0.0,0.0,0.0758,0.0467,0.0804,0.1149,0.1474,0.1687,0.0,0.0,0.0,0.0,0.5226,0.0,0.0,0.0,0.0,0.0,0.0,0.0,0.0,0.0,0.0671,-0.0069,-0.0286,0.0075,0.0077,0.0546,0.1492,0.1099,0.0313,-0.0936,-0.0781,-0.1169,-0.1942,-0.2722,-0.413,-0.5792,0.0,0.0,-0.501,-0.4455,-0.453,-0.4919,-0.4841,-0.5309,-0.5841,-0.5645,-0.5752,-0.5992,-0.6023,-0.6063,-0.6086,-0.5622,-0.5699,-0.6086,-0.6927,-0.7532,-0.8138,-0.9508,-1.0708,-1.1793,-1.2893,-1.385,-1.472,-1.5516,-1.6364,-1.7234,-1.8016,-1.937,-2.0502,-2.0606,-2.1457,-2.221,-2.2174,-2.2268,-2.2327,-2.2327,-2.2595,-2.3019,-2.353,-2.291,-2.2623,-2.2965,-2.4179,-2.4988,-2.4988,-2.5153,-2.5204,-2.5065,-2.3978,-2.3228,-2.2962,-2.2217,-2.1592,-2.1227,-2.1514,-2.1651,-2.1765,-2.1939,-2.2482,-2.3399,-2.3813,-2.4439,0.3209,0.3222,0.3276,0.3624,0.3597,0.3404,0.3138,0.0,0.0,0.0,-0.0651,-0.1004,-0.0892,0.0,0.0,0.0,0.0,0.0,0.0,0.0,0.0,0.0,0.0,0.0,0.0,0.0,0.0,0.0,0.0,0.0,-0.1273,-0.2195,-0.269,-0.2428,-0.2491,-0.2462,-0.2417,-0.1872,-0.218,-0.3179,-0.3184,-0.3569,-0.4332,-0.5186,-0.6133,-0.7019,-0.7395,0.0,-0.663,-0.6384,-0.63,-0.6224,-0.615,-0.6307,-0.6692,-0.6612,-0.6859,-0.7149,-0.7071,-0.7247,-0.7395,-0.6942,-0.6784,-0.7003,-0.7851,-0.8456,-0.9205,-1.0559,-1.2123,-1.366,-1.4738,-1.6254,-1.7627,-1.8233,-1.9193,-2.0097,-2.0707,-2.1876,-2.282,-2.2995,-2.3417,-2.3704,-2.3489,-2.3317,-2.3186,-2.311,-2.344,-2.3903,-2.4526,-2.4718,-2.4682,-2.4355,-2.5447,-2.6216,-2.628,-2.6733,-2.7033,-2.7173,-2.5874,-2.5055,-2.4931,-2.3745,-2.2882,-2.2408,-2.2567,-2.2628,-2.2616,-2.2786,-2.3207,-2.3884,-2.4323,-2.4894,0.2722,0.2596,0.2583,0.3234,0.3019,0.2538,0.2135,0.1313,0.0,0.0,-0.2039,-0.2332,-0.242,0.0,-0.0613,0.0,0.0,0.0,0.0,0.0,0.0,0.0,0.0,0.0,0.0,0.0,0.0,0.0,0.0,0.0,-0.3411,-0.4316,-0.485,-0.4833,-0.4879,-0.5306,-0.6073,-0.4817,-0.473,-0.5726,-0.565,-0.6036,-0.6878,-0.7795,-0.8112,-0.7973,-0.8746,0.0,0.0,-0.8362,-0.821,-0.7825,-0.7677,-0.7685,-0.777,-0.7804,-0.8116,-0.8452,-0.8192,-0.8509,-0.8932,-0.8255,-0.794,-0.7999,-0.8694,-0.9523,-1.0421,-1.1942,-1.3866,-1.5746,-1.7009,-1.8889,-2.0547,-2.1047,-2.1767,-2.2453,-2.2877,-2.361,-2.4372,-2.4731,-2.5034,-2.5064,-2.4619,-2.4507,-2.4394,-2.413,-2.4406,-2.4886,-2.5525,-2.6259,-2.6492,-2.5781,-2.6647,-2.7245,-2.736,-2.8147,-2.8675,-2.883,-2.7666,-2.6864,-2.662,-2.5183,-2.4093,-2.3386,-2.3386,-2.3339,-2.322,-2.3386,-2.3741,-2.4305,-2.4781,-2.5287,0.1722,0.1747,0.1681,0.174,0.1511,0.1082,0.0383,0.0,0.0,-0.3197,-0.3473,-0.3399,-0.3444,-0.2708,-0.2186,0.0,0.0,-0.13,0.0,0.0,0.0,0.0,0.0,0.0,0.0,0.0,0.0,0.0,0.0,0.0,0.0,-0.5691,-0.5839,-0.5837,-0.5981,-0.6289,-0.6846,-0.628,-0.7141,-0.9382,-0.8295,-0.8424,-0.9825,-1.0484,-1.0777,-1.0777,0.0,0.0,0.0,-1.0616,-1.0392,-1.0179,-1.0185,-0.997,-0.9664,-0.9663,-0.9712,-0.9637,-0.9074,-0.9437,-0.9916,-0.9155,-0.8846,-0.8998,-0.9593,-1.0714,-1.2298,-1.4952,-1.6857,-1.8595,-2.0801,-2.2173,-2.3112,-2.3702,-2.3891,-2.389,-2.3739,-2.4735,-2.5553,-2.4974,-2.5952,-2.6559,-2.5514,-2.6149,-2.6701,-2.6109,-2.6417,-2.6842,-2.7222,-2.7352,-2.7485,-2.7683,-2.8387,-2.8889,-2.8889,-2.9345,-2.9685,-2.9685,-2.8928,-2.8236,-2.7631,-2.6787,-2.5707,-2.4408,-2.4221,-2.4002,-2.3556,-2.3897,-2.4363,-2.4948,-2.5495,-2.6042,0.0558,0.0439,0.0374,0.0614,0.0605,0.0175,-0.0951,0.0,-0.2239,-0.3423,-0.4007,-0.4284,-0.4248,-0.3471,-0.3082,-0.3737,-0.3016,-0.2524,-0.2899,0.0,0.0,0.0,0.0,0.0,0.0,0.0,0.0,0.0,0.0,0.0,0.0,-0.8826,-0.8785,-0.9214,-0.952,-0.9829,-1.0301,-1.0332,-1.1181,-1.2716,-1.2247,-1.2452,-1.3393,-1.3492,-1.3331,-1.3034,0.0,0.0,0.0,-1.3439,-1.3295,-1.2722,-1.2044,-1.1486,-1.0985,-1.0743,-1.0629,-1.0583,-1.0489,-1.0576,-1.0663,-1.0121,-1.0121,-1.0432,-1.0432,-1.1459,-1.3157,-1.5333,-1.7678,-2.0037,-2.2059,-2.3833,-2.528,-2.579,-2.5821,-2.5621,-2.5578,-2.6119,-2.6638,-2.681,-2.7175,-2.7248,-2.6377,-2.7033,-2.7371,-2.6681,-2.7223,-2.7881,-2.8427,-2.8444,-2.8509,-2.8638,-2.8624,-2.8766,-2.9099,-2.9324,-2.9623,-2.9808,-2.8947,-2.828,-2.8039,-2.6989,-2.6063,-2.5216,-2.5258,-2.5147,-2.4878,-2.5104,-2.5328,-2.5564,-2.6042,-2.6297,-0.0472,-0.0784,-0.1027,-0.0414,-0.0409,-0.085,0.0,-0.2567,-0.3248,-0.3875,-0.451,-0.4957,-0.5052,-0.4494,-0.4257,-0.4862,-0.4256,-0.3853,-0.4353,-0.5373,0.0,0.0,0.0,0.0,0.0,0.0,0.0,0.0,0.0,0.0,0.0,-1.2064,-1.1941,-1.2093,-1.2445,-1.287,-1.3252,-1.3741,-1.4286,-1.5033,-1.5162,-1.5388,-1.5774,-1.5726,-1.5536,-1.5246,0.0,0.0,0.0,-1.587,-1.5598,-1.4869,-1.3878,-1.306,-1.2375,-1.1948,-1.1693,-1.1592,-1.1582,-1.1704,-1.1842,-1.131,-1.1465,-1.1922,-1.1768,-1.2572,-1.4019,-1.6272,-1.9251,-2.2174,-2.4016,-2.5415,-2.6586,-2.7447,-2.7345,-2.7046,-2.7031,-2.7339,-2.7759,-2.8076,-2.8354,-2.8253,-2.7499,-2.8112,-2.8377,-2.7359,-2.7986,-2.8649,-2.8671,-2.8775,-2.8816,-2.8761,-2.8408,-2.8483,-2.9233,-2.9512,-2.9808,-3.0007,-2.9299,-2.8843,-2.8598,-2.7607,-2.6728,-2.6119,-2.6229,-2.616,-2.5883,-2.6232,-2.6427,-2.6552,-2.6854,-2.7072,-0.1307,-0.1951,-0.2413,-0.1351,-0.1663,-0.2199,0.0,-0.331,-0.4461,-0.4825,-0.5113,-0.5402,-0.5807,-0.5937,-0.5965,-0.5885,-0.5549,-0.5637,-0.6639,0.0,0.0,0.0,0.0,0.0,0.0,0.0,0.0,0.0,0.0,0.0,0.0,-1.5112,-1.4934,-1.3907,-1.4203,-1.4632,-1.5064,-1.5625,-1.5957,-1.6102,-1.6482,-1.6578,-1.6537,-1.7017,-1.7241,0.0,0.0,0.0,0.0,-1.7726,-1.717,-1.6435,-1.5828,-1.4934,-1.3876,-1.3269,-1.3089,-1.2958,-1.2269,-1.2763,-1.3608,-1.2865,-1.2865,-1.331,-1.3825,-1.425,-1.5284,-1.8468,-2.2192,-2.5701,-2.7571,-2.7308,-2.7001,-2.8665,-2.845,-2.784,-2.7879,-2.8408,-2.8726,-2.8272,-2.9241,-2.9793,-2.8851,-2.9755,-3.0013,-2.8455,-2.8983,-2.9153,-2.7902,-2.7968,-2.8047,-2.7935,-2.7923,-2.8418,-2.9709,-3.0251,-3.0568,-3.0568,-3.0568,-3.0277,-2.958,-2.9,-2.8179,-2.7102,-2.7087,-2.6863,-2.6394,-2.7179,-2.7706,-2.7996,-2.8125,-2.8623,-0.1994,-0.2739,-0.3303,-0.2426,-0.2733,-0.3168,-0.2921,-0.3846,-0.4829,-0.5038,-0.5609,-0.6108,-0.6339,-0.6585,-0.6498,-0.5762,-0.5791,0.0,0.0,0.0,0.0,0.0,0.0,0.0,0.0,0.0,0.0,0.0,0.0,0.0,0.0,-1.7586,-1.7408,-1.6469,-1.6528,-1.6992,-1.7726,-1.8242,-1.8665,-1.9114,-1.9385,-1.9666,-1.9924,-1.9878,0.0,0.0,0.0,0.0,0.0,-1.9879,-1.941,-1.8455,-1.7109,-1.6057,-1.5242,-1.4109,-1.3876,-1.4071,-1.3868,-1.4377,-1.4942,-1.4235,-1.4307,-1.4736,-1.4832,-1.4966,-1.6097,-2.0643,-2.3586,-2.5794,-2.7808,-2.7569,-2.7111,-2.8086,-2.7958,-2.783,-2.8398,-2.8884,-2.935,-2.9828,-3.0363,-3.0518,-2.9888,-3.0396,-3.0573,-2.9651,-2.9536,-2.9475,-2.9073,-2.8698,-2.8483,-2.8454,-2.844,-2.8598,-2.9001,-2.9885,-3.0408,-3.0408,-3.0693,-3.0604,-3.0113,-2.9507,-2.8858,-2.8208,-2.8194,-2.8194,-2.8235,-2.8325,-2.8425,-2.8652,-2.8637,-2.911,0.0,-0.3047,-0.3469,-0.3072,-0.3289,-0.3576,-0.3644,-0.438,-0.5153,-0.5611,-0.6353,-0.6958,-0.7019,-0.7546,-0.7598,-0.6474,-0.6466,0.0,0.0,0.0,0.0,0.0,0.0,0.0,0.0,0.0,0.0,0.0,0.0,0.0,0.0,0.0,-1.9792,-1.963,-1.9194,-1.9346,-2.0138,-2.0576,-2.1124,-2.1771,-2.1847,-2.2039,-2.2143,-2.1972,0.0,0.0,0.0,0.0,0.0,-2.1667,-2.1279,-2.0647,-1.9208,-1.8277,-1.7542,-1.6367,-1.6037,-1.6224,-1.629,-1.6517,-1.6789,-1.6435,-1.6392,-1.6358,-1.6358,-1.6738,-1.8006,-2.1678,-2.4001,-2.58,-2.768,-2.7723,-2.7574,-2.871,-2.8821,-2.8854,-2.9629,-3.0143,-3.0562,-3.0967,-3.1287,-3.1399,-3.1106,-3.1225,-3.1155,-3.0556,-3.0184,-2.9837,-2.9448,-2.9034,-2.8641,-2.8257,-2.8228,-2.8134,-2.8024,-2.9019,-2.9847,-3.0238,-3.0548,-3.0779,-3.0908,-3.0308,-2.9869,-2.9578,-2.9578,-2.9633,-2.9799,-2.987,-2.9933,-3.003,-3.003,-3.0365,0.0,-0.2905,0.0,-0.3315,-0.3429,-0.3641,-0.4284,-0.4894,0.0,-0.64,-0.7276,-0.7913,-0.793,-0.8803,-0.9122,-0.7856,0.0,0.0,0.0,0.0,0.0,0.0,0.0,0.0,0.0,0.0,0.0,0.0,0.0,0.0,0.0,0.0,-2.2041,-2.3157,-2.2164,-2.1794,-2.225,-2.2628,-2.3182,-2.3859,-2.3741,-2.361,-2.3382,-2.3301,0.0,0.0,0.0,0.0,0.0,-2.311,-2.2905,-2.2745,-2.1869,-2.1117,-2.0435,-1.9629,-1.9215,-1.9171,-1.9302,-1.9179,-1.901,-1.9262,-1.8854,-1.8277,-1.8402,-1.927,-2.0531,-2.1758,-2.3709,-2.5813,-2.7342,-2.7719,-2.8228,-3.0138,-3.0468,-3.0498,-3.1251,-3.1844,-3.2112,-3.1796,-3.2091,-3.2398,-3.2302,-3.215,-3.1825,-3.1226,-3.087,-3.0332,-2.9188,-2.8976,-2.855,-2.7563,-2.7437,-2.7314,-2.6995,-2.8035,-2.9122,-3.0145,-3.0376,-3.0874,-3.1845,-3.1384,-3.108,-3.1065,-3.1119,-3.1119,-3.1119,-3.1728,-3.2033,-3.1977,-3.1977,-3.2104,-0.1977,0.0,-0.2868,-0.3363,-0.3825,-0.4289,0.0,-0.55,-0.6296,-0.6967,-0.8169,-0.9117,-0.923,-1.009,-1.0214,0.0,0.0,0.0,0.0,0.0,0.0,0.0,0.0,0.0,0.0,0.0,0.0,0.0,0.0,0.0,0.0,0.0,-2.4433,-2.4898,-2.4898,-2.4403,-2.342,-2.3492,-2.3833,-2.4355,-2.4526,-2.4513,-2.4385,-2.4811,0.0,0.0,0.0,0.0,-2.4768,-2.4399,-2.4084,-2.3774,-2.2935,-2.2451,-2.2065,-2.1466,-2.1381,-2.158,-2.1514,-2.144,-2.1413,-2.0985,-2.0696,-2.0504,-2.0403,-2.0501,-2.1014,-2.275,-2.4553,-2.6315,-2.7667,-2.8003,-2.8162,-2.8828,-2.9508,-3.0289,-3.1236,-3.1899,-3.2499,-3.2929,-3.2848,-3.2827,-3.2881,-3.2578,-3.2296,-3.2222,-3.1488,-3.0646,-2.9796,-2.9249,-2.8688,-2.7855,-2.778,-2.7991,-2.8432,-2.8763,-2.9056,-2.9297,-3.0917,-3.1793,-3.1682,-3.2021,-3.2026,-3.1708,-3.223,-3.2431,-3.2144,-3.2892,-3.3098,-3.2977,-3.2977,-3.3098,-0.1741,-0.2201,-0.2744,-0.3246,-0.3913,-0.4581,-0.5186,-0.6082,-0.6966,-0.7705,0.0,0.0,0.0,0.0,0.0,0.0,0.0,0.0,0.0,0.0,0.0,0.0,0.0,0.0,0.0,0.0,0.0,0.0,0.0,0.0,0.0,0.0,-2.614,-2.6471,-2.6718,-2.6299,-2.5134,-2.5218,-2.5535,-2.5969,-2.5983,-2.5997,-2.5997,-2.5986,0.0,0.0,0.0,0.0,-2.624,-2.5943,-2.5753,-2.5602,-2.5103,-2.4721,-2.449,-2.4393,-2.4434,-2.4607,-2.4874,-2.4822,-2.4524,-2.3728,-2.3328,-2.3161,-2.3282,-2.3353,-2.3469,-2.3865,-2.5675,-2.7647,-2.8162,-2.8698,-2.9135,-2.9606,-3.0226,-3.1007,-3.1886,-3.264,-3.3136,-3.3217,-3.3316,-3.3346,-3.3309,-3.3118,-3.3049,-3.3087,-3.2421,-3.1824,-3.1467,-3.0887,-3.032,-2.9767,-2.9671,-2.9779,-3.0005,-3.0167,-3.0323,-3.0428,-3.1569,-3.2341,-3.2552,-3.2898,-3.3033,-3.2803,-3.323,-3.3423,-3.3407,-3.3834,-3.3969,-3.3853,-3.4021,-3.4153,-0.1745,-0.2147,-0.2602,-0.312,-0.3904,-0.4784,-0.5629,0.0,0.0,0.0,0.0,0.0,0.0,0.0,0.0,0.0,0.0,0.0,0.0,0.0,0.0,0.0,0.0,0.0,0.0,0.0,0.0,0.0,0.0,0.0,0.0,0.0,0.0,-2.7954,-2.8275,-2.8082,-2.7289,-2.7339,-2.754,-2.7868,-2.767,-2.762,-2.765,-2.7093,-2.6953,0.0,0.0,0.0,-2.7685,-2.752,-2.747,-2.757,-2.7575,-2.7345,-2.7113,-2.7527,-2.7646,-2.7666,-2.8231,-2.8231,-2.775,-2.6718,-2.6213,-2.606,-2.6649,-2.7003,-2.701,-2.6064,-2.7439,-2.9237,-2.9203,-2.9878,-3.0703,-3.1326,-3.1838,-3.2317,-3.2966,-3.3681,-3.4039,-3.3501,-3.3713,-3.3899,-3.3642,-3.371,-3.3797,-3.3745,-3.3451,-3.3242,-3.3272,-3.2889,-3.2508,-3.2069,-3.2006,-3.1929,-3.171,-3.1996,-3.2336,-3.2636,-3.2453,-3.2841,-3.3799,-3.3848,-3.3848,-3.4,-3.405,-3.425,-3.4594,-3.4675,-3.4771,-3.4754,-3.5128,-3.5323,-0.1766,-0.2108,-0.2607,-0.3346,-0.4164,-0.5055,-0.6217,-0.7279,0.0,0.0,0.0,0.0,0.0,0.0,0.0,0.0,0.0,0.0,0.0,0.0,0.0,0.0,0.0,0.0,0.0,0.0,0.0,0.0,0.0,0.0,0.0,0.0,0.0,-2.9713,-3.0539,-3.0642,-3.0025,-2.9035,-2.8592,-2.8607,-2.8902,-2.8763,-2.8275,-2.8575,-2.8465,0.0,0.0,-2.8701,-2.8607,-2.8794,-2.8903,-2.8903,-2.91,-2.913,-2.9114,-2.9675,-2.9894,-2.979,-2.9683,-2.9923,-3.0125,-2.9033,-2.8842,-2.9134,-2.9793,-3.0426,-3.1057,-3.1896,-3.1316,-3.0648,-3.1581,-3.2221,-3.264,-3.2636,-3.346,-3.4286,-3.4378,-3.4863,-3.5244,-3.5127,-3.475,-3.4349,-3.4201,-3.4201,-3.4151,-3.405,-3.4219,-3.4151,-3.362,-3.3715,-3.3623,-3.2988,-3.2921,-3.3155,-3.3784,-3.3896,-3.4286,-3.5205,-3.4176,-3.3867,-3.4624,-3.4464,-3.4399,-3.4399,-3.4739,-3.4947,-3.4994,-3.5588,-3.5837,-3.5881,-3.6405,-3.6689,-0.2,-0.2256,-0.2745,-0.378,-0.4577,-0.553,-0.7072,-0.8336,0.0,0.0,0.0,0.0,0.0,0.0,0.0,0.0,0.0,0.0,0.0,0.0,0.0,0.0,0.0,0.0,0.0,0.0,0.0,0.0,0.0,0.0,0.0,0.0,0.0,0.0,-3.1234,-3.1427,-3.1145,-3.0774,-3.0377,-2.994,-3.0025,-2.9923,-2.9648,-2.9609,-2.952,-2.9416,0.0,-2.9827,-2.9854,-3.0041,-3.011,-3.0093,-3.0385,-3.0434,-3.0506,-3.1319,-3.1741,-3.1916,-3.1751,-3.1823,-3.1916,-3.1307,-3.146,-3.1849,-3.2141,-3.2712,-3.3532,-3.4806,-3.4338,-3.3448,-3.3658,-3.4133,-3.4387,-3.3686,-3.4444,-3.5128,-3.4513,-3.5339,-3.6052,-3.5513,-3.5311,-3.5161,-3.4833,-3.4771,-3.4691,-3.461,-3.4897,-3.509,-3.4947,-3.5135,-3.5172,-3.4874,-3.484,-3.5019,-3.5463,-3.548,-3.5574,-3.5805,-3.5209,-3.5015,-3.5335,-3.4988,-3.488,-3.5052,-3.5131,-3.5333,-3.5633,-3.6165,-3.6481,-3.6603,-3.7269,-3.756,-0.2346,-0.2619,-0.3158,-0.4293,-0.5108,-0.6116,-0.7914,-0.9384,-1.0751,0.0,0.0,0.0,0.0,0.0,0.0,0.0,0.0,0.0,0.0,0.0,0.0,0.0,0.0,0.0,0.0,0.0,0.0,0.0,0.0,0.0,0.0,0.0,0.0,0.0,-3.1846,-3.2012,-3.1839,-3.2055,-3.1858,-3.115,-3.1094,-3.1038,-3.0999,-3.0606,-3.0525,-3.0721,-3.0737,-3.0841,-3.1021,-3.1155,-3.1215,-3.124,-3.1537,-3.1649,-3.1776,-3.2592,-3.31,-3.3408,-3.3447,-3.3354,-3.3266,-3.337,-3.3651,-3.4015,-3.4468,-3.4877,-3.5436,-3.6771,-3.6804,-3.632,-3.5831,-3.6073,-3.6221,-3.5308,-3.5715,-3.609,-3.5194,-3.6019,-3.6702,-3.5893,-3.5918,-3.5933,-3.5448,-3.5362,-3.535,-3.5178,-3.5588,-3.5985,-3.6249,-3.6516,-3.6655,-3.6615,-3.6615,-3.6632,-3.669,-3.6731,-3.6638,-3.6329,-3.618,-3.6071,-3.6071,-3.5654,-3.5476,-3.5742,-3.5644,-3.582,-3.6357,-3.6729,-3.7041,-3.7287,-3.799,-3.8282,-0.2837,-0.3276,-0.394,-0.4824,-0.5733,-0.6887,-0.8638,-1.029,0.0,-1.2664,0.0,0.0,0.0,0.0,0.0,0.0,0.0,0.0,0.0,0.0,0.0,0.0,0.0,0.0,0.0,0.0,0.0,0.0,0.0,0.0,0.0,0.0,0.0,0.0,0.0,-3.3281,-3.2539,-3.2489,-3.2232,-3.1821,-3.202,-3.202,-3.1914,-3.1735,-3.1662,-3.1588,-3.175,-3.1825,-3.1917,-3.2127,-3.2316,-3.2482,-3.2631,-3.2858,-3.3124,-3.355,-3.3734,-3.3788,-3.403,-3.408,-3.416,-3.4955,-3.5108,-3.5358,-3.7268,-3.7389,-3.7099,-3.8365,-3.8651,-3.8558,-3.8469,-3.8379,-3.8255,-3.8027,-3.7972,-3.7873,-3.768,-3.7488,-3.7283,-3.7099,-3.6882,-3.6557,-3.5933,-3.6054,-3.6088,-3.5605,-3.6249,-3.6821,-3.6821,-3.7321,-3.765,-3.754,-3.7503,-3.7466,-3.7337,-3.7466,-3.7595,-3.7827,-3.7243,-3.693,-3.693,-3.6615,-3.6492,-3.6533,-3.6615,-3.6803,-3.7026,-3.7379,-3.7719,-3.8122,-3.8685,-3.899,-0.3508,-0.3966,-0.4634,-0.5497,-0.7036,0.0,0.0,-1.1977,-1.378,-1.5869,-1.6834,0.0,0.0,0.0,0.0,0.0,0.0,0.0,0.0,0.0,0.0,0.0,0.0,0.0,0.0,0.0,0.0,0.0,0.0,0.0,0.0,0.0,0.0,0.0,0.0,-3.2183,-3.18,-3.1912,-3.2193,-3.257,-3.2488,-3.2521,-3.2619,-3.2385,-3.2401,-3.255,-3.2537,-3.2619,-3.2822,-3.2827,-3.297,-3.3172,-3.3332,-3.3616,-3.3902,-3.4023,-3.4124,-3.4245,-3.434,-3.434,-3.4465,-3.5514,-3.5689,-3.5829,-3.7362,-3.7599,-3.7565,-3.8741,-3.9042,-3.8936,-3.8704,-3.8821,-3.8831,-3.8211,-3.8313,-3.8407,-3.7796,-3.7945,-3.8147,-3.7861,-3.7578,-3.725,-3.7006,-3.6706,-3.6539,-3.6649,-3.6825,-3.7038,-3.7281,-3.7613,-3.7809,-3.7809,-3.7827,-3.7845,-3.7827,-3.7931,-3.8101,-3.8346,-3.7897,-3.7703,-3.7862,-3.756,-3.736,-3.7228,-3.7305,-3.7452,-3.7594,-3.8118,-3.8564,-3.9021,-3.9467,-3.9716,-0.4412,-0.4906,-0.5615,-0.6696,0.0,0.0,-1.2296,-1.3651,-1.5277,-1.7846,-1.9058,0.0,0.0,0.0,0.0,0.0,0.0,0.0,0.0,0.0,0.0,0.0,0.0,0.0,0.0,0.0,0.0,0.0,0.0,0.0,0.0,0.0,0.0,0.0,0.0,0.0,-3.1519,-3.1719,-3.2265,-3.3147,-3.2961,-3.2961,-3.3147,-3.2975,-3.3037,-3.322,-3.3147,-3.328,-3.3522,-3.3437,-3.3541,-3.3753,-3.3921,-3.4099,-3.4269,-3.4293,-3.4363,-3.4473,-3.4495,-3.4495,-3.4626,-3.5708,-3.5929,-3.6073,-3.7408,-3.766,-3.77,-3.8778,-3.9061,-3.8988,-3.8784,-3.9134,-3.9368,-3.852,-3.8618,-3.8659,-3.7893,-3.8101,-3.841,-3.8216,-3.7995,-3.7841,-3.7789,-3.7434,-3.725,-3.7452,-3.7506,-3.7614,-3.7913,-3.8083,-3.8165,-3.8194,-3.8198,-3.8201,-3.8249,-3.8314,-3.8442,-3.8718,-3.8473,-3.8364,-3.846,-3.8231,-3.8062,-3.7928,-3.8008,-3.8168,-3.8321,-3.8823,-3.9289,-3.974,-4.0043,-4.0192,-0.5563,-0.6159,-0.6986,0.0,0.0,0.0,-1.4317,-1.5244,-1.6064,-1.7963,0.0,-2.1932,0.0,0.0,0.0,0.0,0.0,0.0,0.0,0.0,0.0,0.0,0.0,0.0,0.0,0.0,0.0,0.0,0.0,0.0,0.0,0.0,0.0,0.0,0.0,0.0,-3.1977,-3.2,-3.2513,-3.3491,-3.3404,-3.3422,-3.3491,-3.3577,-3.3577,-3.3491,-3.3577,-3.3753,-3.3998,-3.3921,-3.4023,-3.4221,-3.434,-3.4316,-3.4221,-3.4427,-3.4473,-3.4409,-3.4473,-3.4539,-3.4733,-3.5615,-3.5897,-3.6179,-3.7812,-3.7885,-3.7603,-3.8556,-3.8861,-3.8935,-3.8984,-3.9603,-4.0038,-3.9358,-3.9044,-3.8781,-3.8296,-3.807,-3.7951,-3.815,-3.8216,-3.8198,-3.8107,-3.8255,-3.8287,-3.7969,-3.8319,-3.8609,-3.87,-3.8884,-3.896,-3.8818,-3.87,-3.8609,-3.8609,-3.8609,-3.8718,-3.8989,-3.9017,-3.8884,-3.8609,-3.8609,-3.8609,-3.8609,-3.8828,-3.9008,-3.9205,-3.9477,-3.9806,-4.0214,-4.0262,-4.0377,-0.6397,-0.7923,0.0,-1.0305,0.0,0.0,0.0,-1.6642,0.0,0.0,0.0,0.0,0.0,0.0,0.0,0.0,0.0,0.0,0.0,0.0,0.0,0.0,0.0,0.0,0.0,0.0,0.0,0.0,0.0,0.0,0.0,0.0,0.0,0.0,0.0,0.0,-3.1219,-3.0883,-3.1399,-3.2729,-3.2848,-3.314,-3.3577,-3.3643,-3.3726,-3.3842,-3.3868,-3.4023,-3.4269,-3.4269,-3.4293,-3.434,-3.4495,-3.4539,-3.4539,-3.458,-3.4602,-3.4623,-3.4687,-3.4687,-3.484,-3.5854,-3.5721,-3.5625,-3.794,-3.8095,-3.7794,-3.9357,-3.9795,-3.9815,-3.9852,-4.0024,-4.0058,-3.9408,-3.9163,-3.8952,-3.8548,-3.8473,-3.8442,-3.8382,-3.8541,-3.8707,-3.873,-3.8711,-3.8722,-3.8849,-3.8839,-3.8857,-3.9027,-3.9272,-3.9324,-3.911,-3.9136,-3.9171,-3.9173,-3.9173,-3.9253,-3.9477,-3.9477,-3.9395,-3.9175,-3.9147,-3.9137,-3.9072,-3.9376,-3.9615,-3.9749,-4.0077,-4.0365,-4.0623,-4.063,-4.0711,-0.8116,0.0,0.0,-1.2442,-1.43,-1.6326,-1.8022,0.0,0.0,0.0,0.0,0.0,0.0,0.0,0.0,0.0,0.0,0.0,0.0,0.0,0.0,0.0,0.0,0.0,0.0,0.0,0.0,0.0,0.0,0.0,0.0,0.0,0.0,0.0,0.0,0.0,-3.0659,-3.0417,-3.0949,-3.218,-3.2619,-3.3025,-3.3374,-3.3713,-3.3895,-3.3998,-3.4148,-3.4293,-3.4495,-3.4539,-3.4561,-3.4586,-3.471,-3.473,-3.4687,-3.4689,-3.4647,-3.4602,-3.4727,-3.4727,-3.4781,-3.5495,-3.5325,-3.521,-3.7107,-3.7562,-3.7733,-3.9242,-3.9891,-4.0118,-4.0138,-4.0118,-3.9916,-3.9282,-3.9082,-3.8894,-3.841,-3.8378,-3.8442,-3.8535,-3.8748,-3.897,-3.9245,-3.9227,-3.9227,-3.9427,-3.9313,-3.9268,-3.9414,-3.9647,-3.9693,-3.9537,-3.9595,-3.9637,-3.9599,-3.9618,-3.9642,-3.9735,-3.9735,-3.9708,-3.9656,-3.9613,-3.9599,-3.958,-3.9886,-4.008,-4.02,-4.0486,-4.0684,-4.0791,-4.0849,-4.0913,-1.0154,0.0,0.0,-1.4687,-1.6171,0.0,0.0,0.0,0.0,0.0,0.0,0.0,0.0,0.0,0.0,0.0,0.0,0.0,0.0,0.0,0.0,0.0,0.0,0.0,0.0,0.0,0.0,0.0,0.0,0.0,0.0,0.0,0.0,0.0,0.0,0.0,-3.0323,-3.0379,-3.0854,0.0,-3.2525,-3.2897,-3.2934,-3.3759,-3.4124,-3.4099,-3.4386,-3.4561,-3.4626,-3.4769,-3.483,-3.4851,-3.4982,-3.4908,-3.4749,-3.4792,-3.4651,-3.4495,-3.472,-3.4779,-3.4757,-3.4956,-3.4997,-3.5073,-3.5903,-3.664,-3.744,-3.8594,-3.9394,-3.9963,-4.0081,-4.002,-3.9766,-3.9117,-3.8924,-3.8711,-3.807,-3.7985,-3.8168,-3.87,-3.8857,-3.9082,-3.9599,-3.9712,-3.9712,-3.9712,-3.9735,-3.9762,-3.9838,-3.9939,-4.0039,-4.0042,-4.0043,-4.0021,-3.9935,-3.9933,-3.9892,-3.9848,-3.9848,-3.9911,-4.0036,-3.9956,-3.9962,-4.0043,-4.0298,-4.0457,-4.0546,-4.0729,-4.084,-4.083,-4.0948,-4.1008,-1.0073,-1.2623,0.0,0.0,-1.8622,0.0,0.0,0.0,0.0,0.0,0.0,0.0,0.0,0.0,0.0,0.0,0.0,0.0,0.0,0.0,0.0,0.0,0.0,0.0,0.0,0.0,0.0,0.0,0.0,0.0,0.0,0.0,0.0,0.0,0.0,-2.9844,-3.0602,-3.001,-3.0104,0.0,-3.1787,-3.2222,-3.2278,-3.3736,-3.4495,-3.4645,-3.4691,-3.4733,-3.4772,-3.4962,-3.5053,-3.5038,-3.519,-3.5174,-3.5072,-3.4982,-3.4926,-3.4946,-3.5526,-3.575,-3.5905,-3.661,-3.6403,-3.6082,-3.6976,-3.6901,-3.6863,-3.8498,-3.9125,-3.9429,-4.0005,-4.0177,-4.0001,-3.9489,-3.9082,-3.8681,-3.8168,-3.8138,-3.8303,-3.8597,-3.8905,-3.9253,-3.9575,-3.9804,-3.9933,-3.9933,-3.9975,-4.0017,-4.0022,-4.0195,-4.0302,-4.0319,-4.0351,-4.0334,-4.0215,-4.0177,-4.0139,-4.0196,-4.0196,-4.0253,-4.0405,-4.0139,-4.0098,-4.0385,-4.0539,-4.0714,-4.0901,-4.0987,-4.1037,-4.1042,-4.1074,-4.1074,-1.1291,0.0,0.0,-1.8174,0.0,0.0,0.0,0.0,0.0,0.0,0.0,0.0,0.0,0.0,0.0,0.0,0.0,0.0,0.0,0.0,0.0,0.0,0.0,0.0,0.0,0.0,0.0,0.0,0.0,0.0,0.0,0.0,0.0,0.0,-2.9754,-2.9944,-3.0321,-2.9924,-3.0131,-3.0904,-3.1826,-3.2713,-3.3525,-3.4254,-3.4691,-3.4849,-3.485,-3.4889,-3.4943,-3.5078,-3.5193,-3.5296,-3.5369,-3.5336,-3.5339,-3.5613,-3.5662,-3.5685,-3.654,-3.6744,-3.6778,-3.7356,-3.7185,-3.688,-3.7433,-3.7547,-3.7718,-3.8793,-3.9413,-3.9868,-4.0274,-4.0353,-4.0193,-3.9778,-3.9301,-3.8836,-3.8473,-3.8478,-3.8621,-3.8894,-3.9208,-3.9532,-3.9826,-3.9996,-4.0098,-4.0098,-4.0118,-4.0177,-4.0251,-4.037,-4.0485,-4.0534,-4.0579,-4.0545,-4.0438,-4.0415,-4.0389,-4.041,-4.0431,-4.0492,-4.0599,-4.0459,-4.0471,-4.0645,-4.0735,-4.0881,-4.1052,-4.1077,-4.1101,-4.1107,-4.1092,-4.1094,-1.2366,0.0,-1.6795,-2.0052,-2.2835,0.0,0.0,0.0,0.0,0.0,0.0,0.0,0.0,0.0,0.0,0.0,0.0,0.0,0.0,0.0,0.0,0.0,0.0,0.0,0.0,0.0,0.0,0.0,0.0,0.0,0.0,0.0,-2.9965,-2.9981,-2.9965,-2.9953,-2.994,-2.9996,-3.0354,-3.1032,-3.2114,-3.3443,-3.4916,-3.4851,-3.487,-3.4945,-3.4982,-3.5051,-3.5178,-3.5249,-3.538,-3.5531,-3.5554,-3.5519,-3.556,-3.6277,-3.6463,-3.6479,-3.7544,-3.7795,-3.7676,-3.8023,-3.7928,-3.7698,-3.7813,-3.8232,-3.8707,-3.908,-3.9734,-4.0357,-4.0544,-4.0516,-4.0373,-4.0062,-3.9607,-3.9163,-3.8876,-3.8855,-3.896,-3.9298,-3.9599,-3.9873,-4.0177,-4.0234,-4.0253,-4.0253,-4.0252,-4.0302,-4.0422,-4.0496,-4.0588,-4.0687,-4.0713,-4.0694,-4.0629,-4.0616,-4.061,-4.0548,-4.0599,-4.0655,-4.0758,-4.0781,-4.0824,-4.0824,-4.0909,-4.0986,-4.1093,-4.1093,-4.1093,-4.1093,-4.1103,-4.1097,0.0,0.0,-1.8651,0.0,0.0,0.0,0.0,0.0,0.0,0.0,0.0,0.0,0.0,0.0,0.0,0.0,0.0,0.0,0.0,0.0,0.0,0.0,0.0,0.0,0.0,0.0,0.0,0.0,0.0,0.0,0.0,-3.0253,-3.0259,-3.0263,-3.0253,-3.0222,-3.0163,-3.0169,-3.0199,-3.0271,-3.1962,-3.3302,-3.4261,-3.4975,-3.5251,-3.5168,-3.5285,-3.5388,-3.547,-3.5577,-3.5649,-3.5669,-3.5743,-3.5754,-3.5824,-3.6505,-3.6813,-3.7076,-3.8383,-3.8831,-3.8961,-3.9659,-3.9375,-3.8802,-3.8872,-3.8484,-3.8175,-3.8917,-3.9326,-3.9689,-4.0347,-4.059,-4.061,-4.0392,-4.0098,-3.9766,-3.932,-3.9219,-3.9298,-3.9526,-3.9854,-4.0177,-4.0344,-4.0411,-4.0457,-4.0457,-4.0519,-4.0559,-4.0574,-4.0675,-4.0732,-4.07,-4.08,-4.0815,-4.0699,-4.0694,-4.0719,-4.0753,-4.0716,-4.0779,-4.0955,-4.0915,-4.0909,-4.0974,-4.1035,-4.1089,-4.1094,-4.1105,-4.1105,-4.1094,-4.1091,-4.1091,-1.3034,-1.6377,-1.9525,0.0,0.0,0.0,0.0,0.0,0.0,0.0,0.0,0.0,0.0,0.0,0.0,0.0,0.0,0.0,0.0,0.0,0.0,0.0,0.0,0.0,0.0,0.0,0.0,0.0,0.0,0.0,-3.0409,-3.0422,-3.0423,-3.0404,-3.0402,-3.037,-3.0306,-3.0389,-3.0651,-3.113,-3.2374,-3.3403,-3.4225,-3.4604,-3.5001,-3.5369,-3.543,-3.5534,-3.563,-3.5726,-3.5776,-3.5806,-3.5833,-3.5864,-3.5947,-3.6658,-3.7238,-3.7839,-3.8904,-3.9509,-3.9896,-4.0284,-4.0125,-3.9734,-3.9819,-3.9567,-3.9407,-3.9884,-4.0067,-4.0211,-4.0622,-4.0734,-4.0723,-4.059,-4.0438,-4.0243,-3.988,-3.9683,-3.9683,-4.0002,-4.0214,-4.0411,-4.0549,-4.0569,-4.0573,-4.0598,-4.0607,-4.0588,-4.0588,-4.0648,-4.072,-4.0738,-4.0807,-4.0859,-4.0871,-4.0827,-4.0821,-4.0859,-4.0838,-4.0843,-4.0933,-4.0947,-4.0974,-4.0991,-4.1026,-4.1042,-4.1042,-4.1033,-4.1057,-4.1091,-4.1067,-4.1042,0.0,0.0,-1.9328,0.0,0.0,0.0,0.0,0.0,0.0,0.0,0.0,0.0,0.0,0.0,0.0,0.0,0.0,0.0,0.0,0.0,0.0,0.0,0.0,0.0,0.0,0.0,0.0,0.0,0.0,0.0,-3.0549,-3.0565,-3.0582,-3.0591,-3.0582,-3.0546,-3.0482,-3.0593,-3.095,-3.1601,-3.2435,-3.3228,-3.4025,-3.4221,-3.4792,-3.5593,-3.555,-3.5609,-3.5732,-3.5806,-3.5872,-3.5924,-3.5928,-3.5928,-3.6021,-3.6762,-3.7449,-3.8118,-3.9179,-3.9843,-4.0275,-4.0565,-4.053,-4.0406,-4.0469,-4.045,-4.0485,-4.064,-4.0694,-4.0757,-4.0849,-4.0869,-4.0859,-4.0776,-4.0699,-4.0596,-4.0267,-4.0042,-4.0003,-4.0302,-4.0463,-4.0577,-4.0662,-4.0668,-4.066,-4.0713,-4.0681,-4.0648,-4.0621,-4.0635,-4.0655,-4.0761,-4.08,-4.0852,-4.0944,-4.0915,-4.0884,-4.0881,-4.0863,-4.0867,-4.0867,-4.0917,-4.0927,-4.0956,-4.0945,-4.0971,-4.0999,-4.1006,-4.1032,-4.1078,-4.1013,-4.1006,0.0,-1.5436,0.0,0.0,0.0,0.0,0.0,0.0,0.0,0.0,0.0,0.0,0.0,0.0,0.0,0.0,0.0,0.0,0.0,0.0,0.0,0.0,0.0,0.0,0.0,0.0,0.0,0.0,0.0,0.0,-3.0685,-3.0761,-3.0784,-3.0774,-3.0784,-3.0748,-3.0691,-3.0698,-3.0723,-3.0768,-3.1635,-3.2485,-3.3276,-3.4042,-3.4902,-3.5784,-3.5715,-3.5732,-3.5801,-3.5869,-3.5938,-3.5997,-3.5994,-3.5991,-3.6087,-3.6894,-3.7265,-3.7578,-3.9135,-3.9707,-3.9863,-4.0557,-4.0738,-4.0681,-4.0681,-4.0642,-4.0588,-4.0588,-4.0706,-4.08,-4.08,-4.0932,-4.1052,-4.0913,-4.0896,-4.077,-4.03,-4.0196,-4.0214,-4.0288,-4.046,-4.0603,-4.0607,-4.0707,-4.0788,-4.0788,-4.0788,-4.0764,-4.07,-4.0688,-4.07,-4.0713,-4.082,-4.0869,-4.0821,-4.0871,-4.0861,-4.0805,-4.074,-4.075,-4.08,-4.0752,-4.0745,-4.0818,-4.0818,-4.0869,-4.0996,-4.0999,-4.0999,-4.1015,-4.0999,-4.0999,0.0,0.0,0.0,0.0,0.0,0.0,0.0,0.0,0.0,0.0,0.0,0.0,0.0,0.0,0.0,0.0,0.0,0.0,0.0,0.0,0.0,0.0,0.0,0.0,0.0,0.0,0.0,0.0,0.0,0.0,-3.0755,-3.0793,-3.0802,-3.0806,-3.0802,-3.0798,-3.076,-3.0759,-3.0767,-3.0761,-3.1041,-3.1605,-3.245,-3.325,-3.4124,-3.5005,-3.5574,-3.5859,-3.5924,-3.5938,-3.597,-3.5997,-3.6004,-3.5994,-3.6023,-3.6327,-3.6794,-3.7372,-3.7969,-3.85,-3.8965,-3.9201,-3.9207,-3.9258,-3.9818,-3.999,-4.0076,-4.0643,-4.083,-4.0876,-4.0928,-4.098,-4.1011,-4.0915,-4.0866,-4.0787,-4.0568,-4.0485,-4.0476,-4.0539,-4.0583,-4.0621,-4.0706,-4.0732,-4.0752,-4.0788,-4.0732,-4.0662,-4.0635,-4.0681,-4.072,-4.075,-4.0852,-4.0883,-4.0878,-4.0842,-4.0816,-4.0746,-4.0681,-4.0662,-4.0662,-4.0688,-4.0738,-4.0807,-4.0807,-4.0878,-4.0999,-4.1007,-4.0996,-4.0996,-4.0988,-4.1007,-1.2119,0.0,0.0,0.0,0.0,0.0,0.0,0.0,0.0,0.0,0.0,0.0,0.0,0.0,0.0,0.0,0.0,0.0,0.0,0.0,0.0,0.0,0.0,0.0,0.0,0.0,0.0,0.0,0.0,0.0,-3.0794,-3.0804,-3.0804,-3.0801,-3.0801,-3.0798,-3.0794,-3.0802,-3.0798,-3.0798,-3.075,-3.1183,-3.2038,-3.2596,-3.331,-3.4175,-3.51,-3.5683,-3.5963,-3.599,-3.6004,-3.5991,-3.6001,-3.6005,-3.6007,-3.5996,-3.6378,-3.6911,-3.7209,-3.7655,-3.8131,-3.8362,-3.8385,-3.8436,-3.9031,-3.9202,-3.9377,-4.0244,-4.05,-4.05,-4.055,-4.0586,-4.066,-4.0911,-4.0921,-4.0849,-4.0779,-4.07,-4.0631,-4.0654,-4.0654,-4.0662,-4.0742,-4.0757,-4.0739,-4.0757,-4.072,-4.0662,-4.0648,-4.0694,-4.0757,-4.0828,-4.087,-4.0889,-4.0876,-4.0824,-4.0749,-4.064,-4.0593,-4.0579,-4.0579,-4.0602,-4.0668,-4.0754,-4.0773,-4.0828,-4.0974,-4.0982,-4.0982,-4.0935,-4.0982,-4.0982,0.0,0.0,0.0,0.0,0.0,0.0,0.0,0.0,0.0,0.0,0.0,0.0,0.0,0.0,0.0,0.0,0.0,0.0,0.0,0.0,0.0,0.0,0.0,0.0,0.0,0.0,0.0,0.0,0.0,-3.0806,-3.0801,-3.0801,-3.0799,-3.081,-3.0804,-3.0804,-3.0794,-3.0799,-3.0801,-3.0801,-3.0801,-3.1243,-3.2065,-3.2088,-3.2565,-3.3414,-3.4276,-3.512,-3.5879,-3.5951,-3.6001,-3.5992,-3.5996,-3.5996,-3.5996,-3.6001,-3.5991,-3.6111,-3.6962,-3.7261,-3.7382,-3.8164,-3.8373,-3.8333,-3.8349,-3.8358,-3.8551,-3.9414,-3.9665,-3.966,-3.966,-3.971,-3.9971,-4.0821,-4.0992,-4.0947,-4.0855,-4.077,-4.0681,-4.0621,-4.0668,-4.0713,-4.0713,-4.0757,-4.0769,-4.0706,-4.0757,-4.0788,-4.0706,-4.0769,-4.0834,-4.0888,-4.0891,-4.0879,-4.0818,-4.0791,-4.0707,-4.0504,-4.0489,-4.0489,-4.0489,-4.0489,-4.0579,-4.0694,-4.0694,-4.0765,-4.0869,-4.0954,-4.0927,-4.0818,-4.0936,-4.0954,-0.9874,0.0,0.0,0.0,0.0,0.0,0.0,0.0,0.0,0.0,0.0,0.0,0.0,0.0,0.0,0.0,0.0,0.0,0.0,0.0,0.0,0.0,0.0,0.0,0.0,0.0,0.0,0.0,-3.0878,-3.0857,-3.0799,-3.0856,-3.0873,-3.0871,-3.0862,-3.0847,-3.0801,-3.0797,-3.0797,-3.0801,-3.08,-3.0936,-3.1188,-3.1805,-3.2231,-3.2504,-3.338,-3.4246,-3.5075,-3.5725,-3.5994,-3.6003,-3.5994,-3.6003,-3.6003,-3.5996,-3.5991,-3.6033,-3.6289,-3.635,-3.6396,-3.6619,-3.668,-3.6774,-3.7354,-3.7526,-3.7719,-3.8586,-3.8824,-3.8827,-3.8828,-3.8847,-3.8925,-3.916,-3.9681,-3.9933,-3.9243,-4.0059,-4.0874,-4.0779,-4.0787,-4.0839,-4.0839,-4.0809,-4.0798,-4.0768,-4.0787,-4.0796,-4.0765,-4.0828,-4.0887,-4.0896,-4.0943,-4.0926,-4.0804,-4.0679,-4.0521,-4.0358,-4.036,-4.036,-4.036,-4.0504,-4.0602,-4.0694,-4.0742,-4.0505,-3.9955,-4.0607,-4.0907,-4.0869,-4.0907,-4.0917,-0.9479,-1.0518,0.0,0.0,0.0,0.0,0.0,0.0,0.0,0.0,0.0,0.0,0.0,0.0,0.0,0.0,0.0,0.0,0.0,0.0,0.0,0.0,0.0,0.0,0.0,0.0,0.0,0.0,-3.083,-3.0794,-3.076,-3.0808,-3.0813,-3.0813,-3.0839,-3.0839,-3.0793,-3.0798,-3.0798,-3.0792,-3.0796,-3.0798,-3.0818,-3.1326,-3.1562,-3.1601,-3.248,-3.3143,-3.3703,-3.4941,-3.5663,-3.5994,-3.6005,-3.5985,-3.5951,-3.5955,-3.5958,-3.5958,-3.5958,-3.5985,-3.5994,-3.6005,-3.5991,-3.6091,-3.6562,-3.6699,-3.6874,-3.7749,-3.7982,-3.8038,-3.8417,-3.8222,-3.8051,-3.8412,-3.8886,-3.912,-3.8553,-3.9247,-4.0018,-4.0246,-4.0626,-4.0907,-4.0907,-4.0878,-4.084,-4.081,-4.0859,-4.0859,-4.0849,-4.0898,-4.0955,-4.0982,-4.0975,-4.0896,-4.077,-4.0642,-4.0496,-4.0288,-4.027,-4.027,-4.027,-4.0372,-4.05,-4.0602,-4.0681,-4.051,-4.0109,-4.0645,-4.0898,-4.0908,-4.0898,-4.0898,-0.9299,-1.0107,-1.0978,0.0,0.0,0.0,-1.4029,-1.5507,0.0,0.0,0.0,0.0,0.0,0.0,0.0,0.0,0.0,0.0,0.0,0.0,0.0,0.0,0.0,0.0,0.0,0.0,-3.0414,-3.0411,-3.0508,-3.0606,-3.0684,-3.07,-3.0697,-3.0701,-3.0767,-3.0781,-3.0791,-3.0807,-3.0807,-3.0807,-3.0794,-3.0799,-3.0804,-3.0798,-3.0788,-3.0832,-3.1602,-3.2006,-3.2202,-3.376,-3.4981,-3.5872,-3.596,-3.5951,-3.5889,-3.5904,-3.5904,-3.5885,-3.5909,-3.5947,-3.5988,-3.5991,-3.5991,-3.5988,-3.601,-3.5985,-3.6153,-3.6934,-3.7106,-3.7234,-3.8014,-3.7644,-3.7242,-3.8049,-3.8288,-3.8332,-3.8242,-3.8378,-3.8661,-3.9234,-4.0124,-4.0807,-4.0904,-4.0924,-4.0904,-4.0839,-4.0932,-4.0996,-4.0921,-4.0976,-4.1035,-4.1086,-4.0972,-4.0852,-4.0703,-4.0665,-4.0519,-4.0196,-4.0196,-4.0196,-4.0177,-4.0214,-4.0304,-4.0489,-4.0482,-4.0572,-4.0807,-4.0859,-4.0888,-4.0897,-4.0888,-4.0888,-0.8737,-0.9343,-1.0159,-1.1147,0.0,0.0,0.0,-1.4637,0.0,0.0,0.0,0.0,0.0,0.0,0.0,0.0,0.0,0.0,0.0,0.0,0.0,0.0,0.0,0.0,0.0,0.0,-2.8635,-2.869,-2.9288,-2.9969,-3.0664,-3.0704,-3.0698,-3.0697,-3.0716,-3.0716,-3.0716,-3.0765,-3.0798,-3.0804,-3.0804,-3.0808,-3.0798,-3.0745,-3.0721,-3.0735,-3.0891,-3.1373,-3.206,-3.2391,-3.3501,-3.502,-3.574,-3.5951,-3.5889,-3.5904,-3.5869,-3.5827,-3.588,-3.5914,-3.5923,-3.5978,-3.5955,-3.5923,-3.599,-3.5958,-3.5943,-3.6129,-3.6163,-3.6192,-3.6358,-3.6285,-3.6211,-3.643,-3.6976,-3.7276,-3.6636,-3.7555,-3.8358,-3.7842,-3.8983,-4.0246,-4.0932,-4.1049,-4.1069,-4.1049,-4.1058,-4.1062,-4.0986,-4.1035,-4.1064,-4.1022,-4.0894,-4.0781,-4.0706,-4.0508,-4.027,-3.9998,-4.0118,-4.0118,-3.9977,-4.0233,-4.0406,-4.0489,-3.9926,-4.001,-4.0807,-4.0818,-4.0818,-4.0818,-4.0818,-4.0818,-0.9297,-0.9872,-1.0588,-1.1121,0.0,0.0,0.0,0.0,0.0,0.0,0.0,0.0,0.0,0.0,0.0,0.0,0.0,0.0,0.0,0.0,0.0,0.0,0.0,0.0,0.0,0.0,-2.8667,-2.8702,-2.9071,-2.9295,-2.9259,-2.9694,-2.9962,-2.9959,-3.0399,-3.0639,-3.0642,-3.0678,-3.0691,-3.069,-3.0671,-3.0658,-3.0646,-3.0646,-3.0646,-3.0646,-3.0691,-3.0931,-3.1333,-3.1812,-3.2522,-3.3487,-3.4798,-3.526,-3.5249,-3.5638,-3.5779,-3.5745,-3.5787,-3.582,-3.5858,-3.5889,-3.5883,-3.5858,-3.5897,-3.5879,-3.584,-3.5806,-3.582,-3.5833,-3.5813,-3.5827,-3.5872,-3.5891,-3.6203,-3.639,-3.6001,-3.6551,-3.716,-3.7198,-3.7887,-3.8742,-3.9645,-4.0168,-4.0444,-4.0448,-4.0819,-4.1074,-4.1015,-4.1026,-4.1045,-4.0999,-4.0888,-4.0771,-4.0668,-4.0473,-4.0252,-4.0017,-4.0098,-4.0098,-3.9996,-4.0158,-4.0306,-4.0444,-4.0126,-4.0158,-4.0596,-4.0668,-4.0725,-4.0757,-4.075,-4.0718,0.0,0.0,0.0,0.0,0.0,-1.3827,0.0,0.0,0.0,-1.5914,0.0,0.0,0.0,0.0,0.0,0.0,0.0,0.0,0.0,0.0,0.0,0.0,0.0,0.0,0.0,0.0,-2.8499,-2.8673,-2.8683,-2.8442,-2.7841,-2.8529,-2.8936,-2.8927,-2.9815,-3.0287,-3.0287,-3.0481,-3.0558,-3.0558,-3.0519,-3.0509,-3.049,-3.0565,-3.0585,-3.0585,-3.0645,-3.0626,-3.0637,-3.139,-3.1715,-3.1895,-3.3667,-3.4314,-3.4329,-3.4988,-3.5329,-3.5456,-3.5465,-3.5605,-3.5779,-3.5791,-3.5791,-3.5779,-3.5776,-3.5771,-3.5773,-3.5718,-3.5735,-3.5768,-3.5708,-3.5735,-3.5776,-3.5771,-3.5782,-3.5779,-3.5806,-3.5794,-3.6008,-3.6715,-3.6858,-3.72,-3.83,-3.9062,-3.9531,-3.9548,-4.0299,-4.0837,-4.0767,-4.0909,-4.0976,-4.0966,-4.0823,-4.0688,-4.0574,-4.0438,-4.0288,-4.0077,-4.0117,-4.0117,-4.0036,-4.0077,-4.0177,-4.0342,-4.0408,-4.0441,-4.0406,-4.0515,-4.0593,-4.064,-4.0662,-4.0602,0.0,0.0,0.0,0.0,-1.2913,0.0,0.0,0.0,-1.48,-1.5017,0.0,0.0,0.0,0.0,0.0,0.0,0.0,0.0,0.0,0.0,0.0,0.0,0.0,0.0,0.0,0.0,0.0,-2.6749,-2.686,-2.7169,-2.7783,-2.7896,-2.7961,-2.7961,-2.8744,-2.9179,-2.9179,-3.0012,-3.0411,-3.0423,-3.0482,-3.0501,-3.0501,-3.0521,-3.0511,-3.0511,-3.052,-3.053,-3.053,-3.0636,-3.0675,-3.0869,-3.2725,-3.34,-3.3367,-3.3444,-3.3944,-3.4555,-3.4622,-3.5115,-3.5708,-3.5791,-3.5754,-3.5698,-3.5649,-3.5659,-3.5718,-3.5708,-3.5718,-3.5718,-3.5708,-3.5718,-3.5708,-3.5706,-3.5708,-3.5736,-3.5784,-3.5803,-3.5834,-3.593,-3.5956,-3.6463,-3.8135,-3.8497,-3.8575,-3.8639,-3.9396,-3.9922,-3.9857,-4.0524,-4.0956,-4.0843,-4.0662,-4.0496,-4.0438,-4.0307,-4.0138,-3.9935,-4.0157,-4.0137,-3.9848,-4.0015,-4.0099,-4.012,-4.0214,-4.0286,-4.0406,-4.0422,-4.0422,-4.0438,-4.0504,-4.0469,0.0,0.0,0.0,0.0,0.0,0.0,0.0,0.0,-1.4747,0.0,0.0,0.0,0.0,0.0,0.0,0.0,0.0,0.0,0.0,0.0,0.0,0.0,0.0,0.0,0.0,0.0,0.0,0.0,0.0,-2.645,-2.624,-2.6706,-2.6986,-2.6979,-2.831,-2.8994,-2.8994,-2.9845,-3.0286,-3.0279,-3.0267,-3.0292,-3.0316,-3.0316,-3.0348,-3.0371,-3.0383,-3.0383,-3.0394,-3.0428,-3.0439,-3.0527,-3.1304,-3.1932,-3.2455,-3.2968,-3.3325,-3.3592,-3.3615,-3.4176,-3.4977,-3.5502,-3.5646,-3.5581,-3.5558,-3.557,-3.5581,-3.5577,-3.5612,-3.5626,-3.5589,-3.5612,-3.5637,-3.5596,-3.5574,-3.5604,-3.5679,-3.5679,-3.5708,-3.5727,-3.5727,-3.5969,-3.6723,-3.7272,-3.7657,-3.7683,-3.8427,-3.9143,-3.9587,-3.9887,-4.0227,-4.0642,-4.0496,-4.0372,-4.0341,-4.0215,-4.0117,-4.0017,-4.0137,-4.0117,-3.9975,-4.0057,-4.0098,-4.0099,-4.0177,-4.0196,-4.0177,-4.0251,-4.0251,-4.0158,-4.0323,-4.0323,-1.608,0.0,0.0,0.0,0.0,0.0,0.0,0.0,0.0,0.0,0.0,0.0,0.0,0.0,0.0,0.0,0.0,0.0,0.0,0.0,0.0,0.0,0.0,0.0,0.0,0.0,0.0,0.0,0.0,0.0,-2.4784,-2.5304,-2.5736,-2.5971,-2.7421,-2.8326,-2.8587,-2.9407,-2.9932,-3.0142,-3.0094,-3.0128,-3.0157,-3.018,-3.024,-3.0266,-3.0286,-3.0292,-3.0292,-3.0316,-3.0328,-3.0316,-3.033,-3.0707,-3.1403,-3.2066,-3.2444,-3.2605,-3.2562,-3.3282,-3.4289,-3.4911,-3.5224,-3.5369,-3.5369,-3.5369,-3.5355,-3.5364,-3.5388,-3.5443,-3.5427,-3.5449,-3.547,-3.5443,-3.543,-3.543,-3.5496,-3.5521,-3.5577,-3.562,-3.5673,-3.5695,-3.5707,-3.6267,-3.6732,-3.672,-3.7458,-3.8218,-3.8761,-3.8953,-3.9258,-3.9769,-3.9663,-3.9563,-3.9564,-3.9433,-3.9467,-3.9736,-3.9924,-4.0057,-4.0077,-4.0057,-4.0036,-4.0036,-4.0099,-4.008,-3.9996,-4.0099,-4.0099,-3.9996,-4.0177,-4.0177,0.0,0.0,0.0,-1.8547,0.0,0.0,0.0,0.0,-1.7531,0.0,0.0,0.0,0.0,0.0,-1.8077,-1.8955,0.0,0.0,0.0,0.0,0.0,0.0,0.0,0.0,0.0,0.0,0.0,0.0,0.0,0.0,-2.3852,-2.3757,-2.4095,-2.4917,-2.5769,-2.6635,-2.7547,-2.8411,-2.9243,-3.0007,-3.0072,-3.0102,-3.0102,-3.0176,-3.0185,-3.0218,-3.0266,-3.0292,-3.0312,-3.0226,-3.0171,-3.0109,-3.0109,-3.0094,-3.0079,-3.0232,-3.0881,-3.1629,-3.1484,-3.2535,-3.3917,-3.3868,-3.4385,-3.5034,-3.5034,-3.5034,-3.5034,-3.5034,-3.5034,-3.5069,-3.5261,-3.5209,-3.5155,-3.5285,-3.5254,-3.5226,-3.5293,-3.536,-3.5438,-3.5483,-3.5608,-3.5695,-3.5707,-3.5707,-3.5747,-3.5747,-3.6493,-3.7006,-3.6911,-3.7622,-3.8086,-3.7907,-3.7768,-3.7697,-3.7699,-3.7565,-3.7868,-3.8765,-3.952,-3.9933,-3.9996,-3.9933,-3.9911,-3.9911,-3.9911,-3.9933,-3.9996,-3.9996,-3.9996,-3.9996,-4.0077,-4.0077,0.0,0.0,-2.042,-1.9204,0.0,0.0,0.0,0.0,0.0,0.0,0.0,0.0,0.0,0.0,-2.0255,-2.0056,-2.0061,0.0,0.0,0.0,0.0,0.0,0.0,0.0,0.0,0.0,0.0,0.0,0.0,0.0,0.0,-2.3657,-2.3931,-2.4673,-2.548,-2.6287,-2.7114,-2.7975,-2.8801,-2.9608,-2.9645,-2.9736,-2.991,-2.9907,-3.0003,-3.0142,-3.0157,-3.0138,-3.0104,-3.0079,-3.0034,-2.9969,-2.9924,-2.9905,-2.9931,-3.0022,-3.0271,-3.061,-3.1039,-3.1578,-3.2131,-3.2683,-3.3425,-3.4072,-3.4072,-3.4471,-3.4926,-3.4944,-3.4925,-3.4962,-3.5069,-3.5105,-3.5105,-3.5155,-3.519,-3.5226,-3.5289,-3.533,-3.5355,-3.5424,-3.554,-3.5628,-3.562,-3.5673,-3.5687,-3.5698,-3.5889,-3.6199,-3.673,-3.6853,-3.7113,-3.7619,-3.7509,-3.7409,-3.7408,-3.7387,-3.7768,-3.8624,-3.8925,-3.9342,-3.9914,-3.9911,-3.9889,-3.9889,-3.9889,-3.9911,-3.9933,-3.9889,-3.987,-3.9851,-3.9299,-3.9053,-2.273,-2.2543,0.0,-2.1108,-2.0617,0.0,-1.9335,0.0,0.0,0.0,0.0,0.0,0.0,0.0,-2.1049,-2.0577,-2.0495,-2.05,0.0,0.0,0.0,0.0,0.0,0.0,0.0,0.0,-2.1813,-2.2025,0.0,0.0,0.0,0.0,-2.3526,-2.4223,-2.5017,-2.5789,-2.6505,-2.7345,-2.8165,-2.8907,-2.9223,-2.9454,-2.9664,-2.9663,-2.9734,-2.9902,-2.9905,-2.9905,-2.9851,-2.9839,-2.9787,-2.9751,-2.9681,-2.9699,-2.9769,-2.9836,-2.9853,-2.9876,-3.0373,-3.0713,-3.1053,-3.1618,-3.2562,-3.3449,-3.3449,-3.4053,-3.4732,-3.4754,-3.4754,-3.4793,-3.4926,-3.4982,-3.5019,-3.5089,-3.5089,-3.5107,-3.5138,-3.5187,-3.5251,-3.5326,-3.5416,-3.5509,-3.5522,-3.5547,-3.5565,-3.5623,-3.5558,-3.5656,-3.6104,-3.5974,-3.6045,-3.6559,-3.6457,-3.6371,-3.6371,-3.672,-3.7137,-3.7627,-3.8031,-3.8469,-3.8999,-3.9258,-3.941,-3.9432,-3.9694,-3.9845,-3.9845,-3.9781,-3.9607,-3.9328,-3.8754,-3.8188]}]]